[[{"header":{"parameterUnit":"m.s-1","parameterCategory":1,"la1":30.6,"la2":29.2853,"lo1":-89.7004,"lo2":-87.6739,"dx":0.0162,"dy":0.0183,"nx":112,"ny":82,"refTime":"2022-11-08T06:00:00:Z","depth":0,"parameterNumber":2,"parameterNumberName":"U-component_of_WINDS"},"data":[0.0,0.0,0.0,0.0,0.0,0.0,0.0,0.0,0.0,0.0,0.0,0.0,0.0,0.0,0.0,0.0,0.0,0.0,0.0,0.0,0.0,0.0,0.0,0.0,0.0,0.0,0.0,0.0,0.0,0.0,0.0,0.0,0.0,0.0,0.0,0.0,0.0,0.0,0.0,0.0,0.0,0.0,0.0,0.0,0.0,0.0,0.0,0.0,0.0,0.0,0.0,0.0,0.0,0.0,0.0,0.0,0.0,0.0,0.0,0.0,0.0,0.0,0.0,0.0,0.0,0.0,0.0,0.0,0.0,0.0,0.0,0.0,0.0,0.0,0.0,0.0,0.0,0.0,0.0,0.0,0.0,0.0,0.0,0.0,0.0,0.0,0.0,0.0,0.0,0.0,4.3829,4.6312,4.8781,5.027,5.027,4.9003,4.5906,4.0438,0.0,0.0,0.0,0.0,0.0,0.0,0.0,0.0,0.0,0.0,0.0,0.0,0.0,0.0,0.0,0.0,0.0,0.0,0.0,0.0,0.0,0.0,0.0,0.0,0.0,0.0,0.0,0.0,0.0,0.0,0.0,0.0,0.0,0.0,0.0,0.0,0.0,0.0,0.0,0.0,0.0,0.0,0.0,0.0,0.0,0.0,0.0,0.0,0.0,0.0,0.0,0.0,0.0,0.0,0.0,0.0,0.0,0.0,0.0,0.0,0.0,0.0,0.0,0.0,0.0,0.0,0.0,0.0,0.0,0.0,0.0,0.0,0.0,0.0,0.0,0.0,0.0,0.0,0.0,0.0,0.0,0.0,0.0,0.0,0.0,0.0,0.0,0.0,0.0,0.0,0.0,0.0,0.0,0.0,0.0,0.0,0.0,0.0,0.0,0.0,0.0,0.0,0.0,0.0,4.3118,4.9679,5.0761,5.1032,5.1032,5.027,4.6989,4.0514,0.0,0.0,0.0,0.0,0.0,0.0,0.0,0.0,0.0,0.0,0.0,0.0,0.0,0.0,0.0,0.0,0.0,0.0,0.0,0.0,0.0,0.0,0.0,0.0,0.0,0.0,0.0,0.0,0.0,0.0,0.0,0.0,0.0,0.0,0.0,0.0,0.0,0.0,0.0,0.0,0.0,0.0,0.0,0.0,0.0,0.0,0.0,0.0,0.0,0.0,0.0,0.0,0.0,0.0,0.0,0.0,0.0,0.0,0.0,0.0,0.0,0.0,0.0,0.0,0.0,0.0,0.0,0.0,0.0,0.0,0.0,0.0,0.0,0.0,0.0,0.0,0.0,0.0,0.0,0.0,0.0,0.0,0.0,0.0,0.0,0.0,0.0,0.0,0.0,0.0,0.0,0.0,0.0,0.0,0.0,0.0,0.0,0.0,0.0,0.0,0.0,0.0,0.0,4.3436,4.7293,5.1945,5.2469,5.2249,5.181,5.1116,4.8003,4.1711,3.9208,0.0,0.0,0.0,0.0,0.0,0.0,0.0,0.0,0.0,0.0,0.0,0.0,0.0,0.0,0.0,0.0,0.0,0.0,0.0,0.0,0.0,0.0,0.0,0.0,0.0,0.0,0.0,0.0,0.0,0.0,0.0,0.0,0.0,0.0,0.0,0.0,0.0,0.0,0.0,0.0,0.0,0.0,0.0,0.0,0.0,0.0,0.0,0.0,0.0,0.0,0.0,0.0,0.0,0.0,0.0,0.0,0.0,0.0,0.0,0.0,0.0,0.0,0.0,0.0,0.0,0.0,0.0,0.0,0.0,0.0,0.0,0.0,0.0,0.0,0.0,0.0,0.0,0.0,0.0,0.0,0.0,0.0,0.0,0.0,0.0,0.0,0.0,0.0,0.0,0.0,0.0,0.0,0.0,0.0,0.0,0.0,0.0,0.0,0.0,0.0,0.0,0.0,4.8323,5.1758,5.3348,5.3348,5.2976,5.2367,5.1319,4.8274,4.2672,4.0054,0.0,0.0,0.0,0.0,0.0,0.0,0.0,0.0,0.0,0.0,0.0,0.0,0.0,0.0,0.0,0.0,0.0,0.0,0.0,0.0,0.0,0.0,0.0,0.0,0.0,0.0,0.0,0.0,0.0,0.0,0.0,0.0,0.0,0.0,0.0,0.0,0.0,0.0,0.0,0.0,0.0,0.0,0.0,0.0,0.0,0.0,0.0,0.0,0.0,0.0,0.0,0.0,0.0,0.0,0.0,0.0,0.0,0.0,0.0,0.0,0.0,0.0,0.0,0.0,0.0,0.0,0.0,0.0,0.0,0.0,0.0,0.0,0.0,0.0,0.0,0.0,0.0,0.0,0.0,0.0,0.0,0.0,0.0,0.0,0.0,0.0,0.0,0.0,0.0,0.0,0.0,0.0,0.0,0.0,0.0,0.0,0.0,0.0,0.0,0.0,0.0,0.0,4.9796,5.4059,5.3551,5.2841,5.2367,5.23,5.0371,4.7192,4.2604,3.958,0.0,0.0,0.0,0.0,0.0,0.0,0.0,0.0,0.0,0.0,0.0,0.0,0.0,0.0,0.0,0.0,0.0,0.0,0.0,0.0,0.0,0.0,0.0,0.0,0.0,0.0,0.0,0.0,0.0,0.0,0.0,0.0,0.0,0.0,0.0,0.0,0.0,0.0,0.0,0.0,0.0,0.0,0.0,0.0,0.0,0.0,0.0,0.0,0.0,0.0,0.0,0.0,0.0,0.0,0.0,0.0,0.0,0.0,0.0,0.0,0.0,0.0,0.0,0.0,0.0,0.0,0.0,0.0,0.0,0.0,0.0,0.0,0.0,0.0,0.0,0.0,0.0,0.0,0.0,0.0,0.0,0.0,0.0,0.0,0.0,0.0,0.0,0.0,0.0,0.0,0.0,0.0,0.0,0.0,0.0,0.0,0.0,0.0,0.0,0.0,0.0,0.0,5.0744,5.4499,5.6089,5.5547,5.4938,5.4448,5.3247,4.9981,4.4093,0.0,0.0,0.0,0.0,0.0,0.0,0.0,0.0,0.0,0.0,0.0,0.0,0.0,0.0,0.0,0.0,0.0,0.0,0.0,0.0,0.0,0.0,0.0,0.0,0.0,0.0,0.0,0.0,0.0,0.0,0.0,0.0,0.0,0.0,0.0,0.0,0.0,0.0,0.0,0.0,0.0,0.0,0.0,0.0,0.0,0.0,0.0,0.0,0.0,0.0,0.0,0.0,0.0,0.0,0.0,0.0,0.0,0.0,0.0,0.0,0.0,0.0,0.0,0.0,0.0,0.0,0.0,0.0,0.0,0.0,0.0,0.0,0.0,0.0,0.0,0.0,0.0,0.0,0.0,0.0,0.0,0.0,0.0,0.0,0.0,0.0,0.0,0.0,0.0,0.0,0.0,0.0,0.0,0.0,0.0,0.0,0.0,0.0,0.0,0.0,0.0,0.0,4.7462,5.1792,5.531,5.734,5.69,5.624,5.5733,5.46,5.1436,4.565,0.0,0.0,0.0,0.0,0.0,0.0,0.0,0.0,0.0,0.0,0.0,0.0,0.0,0.0,0.0,0.0,0.0,0.0,0.0,0.0,0.0,0.0,0.0,0.0,0.0,0.0,0.0,0.0,0.0,0.0,0.0,0.0,0.0,0.0,0.0,0.0,0.0,0.0,0.0,0.0,0.0,0.0,0.0,0.0,0.0,0.0,0.0,0.0,0.0,0.0,0.0,0.0,0.0,0.0,0.0,0.0,0.0,0.0,0.0,0.0,0.0,0.0,0.0,0.0,0.0,0.0,0.0,0.0,0.0,0.0,0.0,0.0,0.0,0.0,0.0,0.0,0.0,0.0,0.0,0.0,0.0,0.0,0.0,0.0,0.0,0.0,0.0,0.0,0.0,0.0,0.0,0.0,0.0,0.0,0.0,0.0,0.0,0.0,0.0,0.0,0.0,0.0,4.7714,5.3112,5.6833,5.6833,5.6139,5.5733,5.5733,5.3653,5.0777,0.0,0.0,0.0,0.0,0.0,0.0,0.0,0.0,0.0,0.0,0.0,0.0,0.0,0.0,0.0,0.0,0.0,0.0,0.0,0.0,0.0,0.0,0.0,0.0,0.0,0.0,0.0,0.0,0.0,0.0,0.0,0.0,0.0,0.0,0.0,0.0,0.0,0.0,0.0,0.0,0.0,0.0,0.0,0.0,0.0,0.0,0.0,0.0,0.0,0.0,0.0,0.0,0.0,0.0,0.0,0.0,0.0,0.0,0.0,0.0,0.0,0.0,0.0,0.0,0.0,0.0,0.0,0.0,0.0,0.0,0.0,0.0,0.0,0.0,0.0,0.0,0.0,0.0,0.0,0.0,0.0,0.0,0.0,0.0,0.0,0.0,0.0,0.0,0.0,0.0,0.0,0.0,0.0,0.0,0.0,0.0,0.0,0.0,0.0,0.0,0.0,0.0,0.0,4.7776,5.3549,5.778,5.8321,5.7679,5.7239,5.7239,5.6156,5.345,4.8646,0.0,0.0,0.0,0.0,0.0,0.0,0.0,0.0,0.0,0.0,0.0,0.0,0.0,0.0,0.0,0.0,0.0,0.0,0.0,0.0,0.0,0.0,0.0,0.0,0.0,0.0,0.0,0.0,0.0,0.0,0.0,0.0,0.0,0.0,0.0,0.0,0.0,0.0,0.0,0.0,0.0,0.0,0.0,0.0,0.0,0.0,0.0,0.0,0.0,0.0,0.0,0.0,0.0,0.0,0.0,0.0,0.0,0.0,0.0,0.0,0.0,0.0,0.0,0.0,0.0,0.0,0.0,0.0,0.0,0.0,0.0,0.0,0.0,0.0,0.0,0.0,0.0,0.0,0.0,0.0,0.0,0.0,0.0,0.0,0.0,0.0,0.0,0.0,0.0,0.0,0.0,0.0,0.0,0.0,0.0,0.0,0.0,0.0,0.0,0.0,0.0,0.0,4.7968,5.3276,5.7157,5.7588,5.7891,5.7921,5.7653,5.7658,5.5852,5.1522,0.0,0.0,0.0,0.0,0.0,0.0,0.0,0.0,0.0,0.0,0.0,0.0,0.0,0.0,0.0,0.0,0.0,0.0,0.0,0.0,0.0,0.0,0.0,0.0,0.0,0.0,0.0,0.0,0.0,0.0,0.0,0.0,0.0,0.0,0.0,0.0,0.0,0.0,0.0,0.0,0.0,0.0,0.0,0.0,0.0,0.0,0.0,0.0,0.0,0.0,0.0,0.0,0.0,0.0,0.0,0.0,0.0,0.0,0.0,0.0,0.0,0.0,0.0,0.0,0.0,0.0,0.0,0.0,0.0,0.0,0.0,0.0,0.0,0.0,0.0,0.0,0.0,0.0,0.0,0.0,0.0,0.0,0.0,0.0,0.0,0.0,0.0,0.0,0.0,0.0,0.0,0.0,0.0,0.0,0.0,0.0,0.0,0.0,0.0,0.0,0.0,0.0,4.8096,5.2597,5.5666,5.5666,5.7087,5.7793,5.7195,5.8044,5.7441,5.4698,0.0,0.0,0.0,0.0,0.0,0.0,0.0,0.0,0.0,0.0,0.0,0.0,0.0,0.0,0.0,0.0,0.0,0.0,0.0,0.0,0.0,0.0,0.0,0.0,0.0,0.0,0.0,0.0,0.0,0.0,0.0,0.0,0.0,0.0,0.0,0.0,0.0,0.0,0.0,0.0,0.0,0.0,0.0,0.0,0.0,0.0,0.0,0.0,0.0,0.0,0.0,0.0,0.0,0.0,0.0,0.0,0.0,0.0,0.0,0.0,3.7751,3.2706,0.0,0.0,0.0,0.0,0.0,0.0,0.0,0.0,0.0,0.0,0.0,0.0,0.0,0.0,0.0,0.0,0.0,0.0,0.0,0.0,0.0,0.0,0.0,0.0,0.0,0.0,0.0,0.0,0.0,0.0,0.0,0.0,0.0,0.0,0.0,0.0,0.0,0.0,0.0,0.0,4.7265,5.257,5.6315,5.6315,5.6242,5.6294,5.6627,5.5977,5.5089,5.4113,5.2648,0.0,0.0,0.0,0.0,0.0,0.0,0.0,0.0,0.0,0.0,0.0,0.0,0.0,0.0,0.0,0.0,0.0,0.0,0.0,0.0,0.0,0.0,0.0,0.0,0.0,0.0,0.0,0.0,0.0,0.0,0.0,0.0,0.0,0.0,0.0,0.0,0.0,0.0,0.0,0.0,0.0,0.0,0.0,0.0,0.0,0.0,0.0,0.0,0.0,0.0,0.0,0.0,0.0,0.0,0.0,0.0,0.0,0.0,0.0,4.0277,3.7823,0.0,0.0,0.0,0.0,0.0,0.0,0.0,0.0,0.0,0.0,0.0,0.0,0.0,0.0,0.0,0.0,0.0,0.0,0.0,0.0,0.0,0.0,0.0,0.0,0.0,0.0,0.0,0.0,0.0,0.0,0.0,0.0,0.0,0.0,0.0,0.0,0.0,0.0,0.0,0.0,4.9377,5.3298,5.5891,5.5891,5.6386,5.6626,5.6244,5.6149,5.5996,5.5754,5.3402,0.0,0.0,0.0,0.0,0.0,0.0,0.0,0.0,0.0,0.0,0.0,0.0,0.0,0.0,0.0,0.0,0.0,0.0,0.0,0.0,0.0,0.0,0.0,0.0,0.0,0.0,0.0,0.0,0.0,0.0,0.0,0.0,0.0,0.0,0.0,0.0,0.0,0.0,0.0,0.0,0.0,0.0,0.0,0.0,0.0,0.0,0.0,0.0,0.0,0.0,0.0,0.0,0.0,4.3738,4.4178,4.4297,4.4846,4.5095,4.4925,4.2951,4.3638,4.5702,4.0397,0.0,0.0,0.0,0.0,0.0,0.0,0.0,0.0,0.0,0.0,0.0,0.0,0.0,0.0,0.0,0.0,0.0,0.0,0.0,0.0,0.0,0.0,4.5373,4.6031,4.7489,4.8233,4.662,0.0,0.0,0.0,0.0,0.0,0.0,0.0,0.0,0.0,0.0,0.0,5.2177,5.4231,5.5359,5.5359,5.6547,5.6915,5.5876,5.6463,5.7073,5.7379,5.4168,5.2909,0.0,0.0,0.0,0.0,0.0,0.0,0.0,0.0,0.0,0.0,0.0,0.0,0.0,0.0,0.0,0.0,0.0,0.0,0.0,0.0,0.0,0.0,0.0,0.0,0.0,0.0,0.0,0.0,0.0,0.0,0.0,0.0,3.118,3.4442,0.0,0.0,0.0,0.0,0.0,0.0,0.0,0.0,0.0,0.0,0.0,0.0,0.0,4.1553,4.3509,4.4835,4.6719,4.9052,5.0331,5.1199,5.1791,5.1881,5.1911,5.1768,4.977,0.0,4.5394,4.5134,0.0,0.0,0.0,0.0,0.0,0.0,0.0,0.0,0.0,0.0,0.0,0.0,0.0,0.0,0.0,0.0,0.0,0.0,0.0,0.0,0.0,0.0,5.2911,5.3593,5.3952,5.4091,5.383,4.8309,4.3675,4.4538,4.4143,4.3399,0.0,0.0,0.0,0.0,0.0,0.0,5.3038,5.483,5.6072,5.6072,5.524,5.486,5.525,5.437,5.4439,5.6031,5.6616,5.685,5.677,5.6274,0.0,0.0,0.0,0.0,0.0,0.0,0.0,0.0,0.0,0.0,0.0,0.0,0.0,0.0,0.0,0.0,0.0,0.0,0.0,0.0,0.0,0.0,0.0,0.0,0.0,0.0,0.0,0.0,0.0,3.0119,3.2991,3.6686,3.5908,3.4981,0.0,0.0,0.0,0.0,0.0,0.0,0.0,0.0,0.0,4.4197,4.4915,4.6381,4.8716,4.9314,5.0189,5.1325,5.1917,5.2546,5.3198,5.3198,5.3198,5.3169,5.2665,5.1624,5.0212,4.8992,4.8185,4.7557,0.0,0.0,0.0,0.0,4.301,4.3399,4.4287,4.63,4.8245,4.6762,0.0,0.0,0.0,0.0,0.0,0.0,0.0,4.7369,4.9164,5.1349,5.3443,5.485,5.5179,5.5089,5.473,5.2187,4.9847,4.9354,4.8681,4.7975,4.7266,4.7878,0.0,0.0,0.0,5.3887,5.5718,5.6735,5.7274,5.7274,5.6739,5.6376,5.6256,5.5444,5.5371,5.65,5.6438,5.6739,5.7611,5.6973,5.5388,0.0,0.0,0.0,0.0,0.0,0.0,0.0,0.0,0.0,0.0,0.0,0.0,0.0,0.0,0.0,0.0,0.0,0.0,0.0,0.0,0.0,0.0,0.0,0.0,0.0,0.0,0.0,0.0,3.3409,3.5712,3.9697,3.9349,3.8841,0.0,0.0,0.0,0.0,0.0,0.0,4.314,4.3818,4.5594,4.8716,4.9284,5.0504,5.2426,5.2456,5.2636,5.2965,5.2965,5.3384,5.4216,5.4216,5.4216,5.4246,5.473,5.494,5.476,5.2432,5.1654,5.1864,5.1056,4.971,4.8267,4.7916,4.7916,4.8125,4.8633,5.0219,5.1864,5.1253,5.1229,5.1206,4.9733,0.0,0.0,0.0,0.0,5.0025,5.1947,5.2935,5.3832,5.5329,5.5688,5.5538,5.5059,5.5209,5.494,5.3294,5.2695,5.2193,5.1385,5.1409,0.0,5.4162,5.4581,5.5598,5.8025,5.8205,5.8085,5.8085,5.7935,5.7663,5.7124,5.6701,5.6701,5.7334,5.662,5.6857,5.8412,5.7754,5.6894,5.5883,0.0,0.0,0.0,0.0,0.0,0.0,0.0,0.0,0.0,0.0,0.0,0.0,0.0,0.0,0.0,0.0,0.0,0.0,0.0,0.0,0.0,0.0,0.0,0.0,0.0,0.0,0.0,0.0,0.0,4.4466,4.6531,0.0,0.0,0.0,0.0,4.31,4.3728,4.5274,4.784,4.8588,5.0175,5.2809,5.2929,5.3019,5.3169,5.3169,5.3797,5.5029,5.5029,5.5688,5.6885,5.6885,5.6885,5.6915,5.6944,5.6944,5.6855,5.5508,5.4581,5.3922,5.2606,5.1648,5.1056,5.1678,5.2306,5.3139,5.5055,5.6162,5.6645,5.6042,5.5444,5.4581,5.2606,5.1947,0.0,0.0,5.1043,5.2989,5.3109,5.497,5.6885,5.6974,5.7004,5.7004,5.6944,5.6551,5.5923,5.5179,5.5534,5.5534,5.4221,0.0,5.7094,5.5388,5.7244,5.886,5.9039,5.8474,5.8085,5.8085,5.7543,5.7124,5.7094,5.7064,5.7334,5.7995,5.8466,5.9049,5.9748,5.9673,6.0141,6.1171,5.708,0.0,0.0,0.0,0.0,0.0,0.0,0.0,0.0,0.0,0.0,0.0,0.0,0.0,0.0,0.0,0.0,0.0,0.0,0.0,0.0,0.0,0.0,0.0,0.0,0.0,0.0,0.0,0.0,4.4885,4.6322,0.0,4.636,4.686,4.6791,4.5746,4.8761,5.0674,5.069,5.0928,5.2111,5.4406,5.2561,5.2483,5.4461,5.2859,5.2814,5.4288,5.3272,5.3209,5.4088,5.4088,5.4641,5.5654,5.6092,5.6474,5.6769,5.6769,5.6726,5.6709,5.6675,5.6496,5.6316,5.6555,5.6795,5.7094,5.7812,5.8201,5.8291,5.7633,5.7274,5.6855,5.5688,5.5359,5.5299,5.5029,5.5628,5.6466,5.6885,5.7693,5.8381,5.8381,5.8381,5.8261,5.7842,5.7902,5.7872,5.7214,5.6915,5.7034,5.7842,5.8411,5.865,5.8381,5.877,5.9099,5.9099,5.889,5.874,5.874,5.853,5.8381,5.8381,5.7992,5.8025,5.871,5.8897,5.913,5.9399,6.0113,6.089,6.1791,6.0118,5.7838,0.0,0.0,0.0,0.0,0.0,0.0,0.0,0.0,0.0,0.0,0.0,0.0,0.0,0.0,0.0,0.0,0.0,0.0,0.0,0.0,0.0,0.0,0.0,0.0,0.0,4.1324,4.3629,4.6022,4.7489,4.8364,4.8626,4.8994,4.8963,4.8382,5.1045,5.2362,5.1563,5.1735,5.2589,5.4182,5.2292,5.2209,5.4237,5.2575,5.2406,5.3666,5.2572,5.2447,5.3084,5.3248,5.3939,5.4998,5.5792,5.6358,5.6754,5.7603,5.8054,5.8231,5.8112,5.8392,5.8898,5.8898,5.926,5.9787,5.9787,5.9638,5.9368,5.8919,5.8623,5.8354,5.7902,5.7782,5.7872,5.8294,5.8444,5.8534,5.8979,5.9279,5.9428,5.9428,5.9608,5.9668,5.9192,5.9488,5.9668,5.9192,5.8411,5.8052,5.8919,5.871,5.8501,5.8767,5.8201,5.7932,5.8381,5.862,5.886,5.9069,5.9308,5.9428,5.9428,5.862,5.8474,5.9368,5.9009,5.9069,5.9757,5.947,5.9953,6.1279,6.0813,5.9478,5.7223,0.0,0.0,0.0,0.0,0.0,0.0,0.0,0.0,0.0,0.0,0.0,0.0,0.0,0.0,0.0,0.0,0.0,0.0,0.0,0.0,0.0,0.0,0.0,4.2981,4.569,4.7521,4.8246,5.0574,5.2336,5.3017,5.1808,5.0969,5.0944,5.0225,5.0051,5.0573,5.1207,5.187,5.242,5.2361,5.2305,5.2447,5.236,5.2718,5.3413,5.3382,5.3713,5.4376,5.4896,5.5172,5.5257,5.629,5.675,5.6859,5.8045,5.8507,5.831,5.6737,5.7087,5.8518,5.8518,5.9625,6.1139,6.1139,6.0749,6.0236,6.0234,5.9787,5.9249,5.9219,5.9189,5.9189,5.9189,5.9159,5.9159,5.9159,5.9638,6.0116,6.0116,6.0625,6.1076,6.1076,6.1076,6.1076,6.1076,6.0057,5.874,5.7453,5.7214,5.7004,5.6432,5.5803,0.0,5.7064,5.7786,5.8414,5.9039,5.9727,6.0144,6.0057,5.8949,5.877,5.9997,5.8919,5.9042,6.0986,5.8022,5.7577,6.0191,5.9208,5.9898,6.24,0.0,0.0,0.0,0.0,0.0,0.0,0.0,0.0,0.0,0.0,0.0,0.0,0.0,0.0,0.0,0.0,0.0,0.0,0.0,0.0,0.0,4.1624,4.3737,4.5739,4.6233,4.7151,4.9093,4.958,4.9832,5.0001,5.0446,5.0271,4.9218,5.1143,5.1988,5.1094,5.1225,5.1863,5.3082,5.0971,5.085,5.3111,5.1668,5.181,5.353,5.2795,5.2755,5.3296,5.345,5.417,5.5285,5.5572,5.5939,5.6305,5.6625,5.6378,5.5891,5.7862,5.8902,5.9317,5.9317,6.0447,6.1951,6.1951,6.2705,6.3588,6.3079,6.281,6.248,6.1553,6.1283,6.1164,6.0685,6.0565,6.0565,6.0565,6.0685,6.0835,6.0835,6.0984,6.1076,6.1076,6.1076,6.1076,6.1076,6.0777,6.0446,6.0086,6.0027,5.9967,5.9787,5.9608,5.9608,5.9967,6.0149,5.9969,5.9189,6.0565,6.0954,5.9488,6.0386,6.0745,6.0144,6.0206,6.0326,6.0356,5.9967,6.0734,6.2897,6.2924,6.2764,0.0,0.0,0.0,0.0,0.0,0.0,0.0,0.0,0.0,0.0,0.0,0.0,0.0,0.0,0.0,0.0,0.0,0.0,0.0,0.0,0.0,0.0,4.3291,4.5505,4.699,4.746,4.8122,4.9526,4.961,4.9665,4.994,5.0262,5.0061,4.9241,5.0347,5.0854,5.0224,5.0188,5.0772,5.2081,5.0409,5.0442,5.251,5.1369,5.139,5.262,5.2041,5.2051,5.2569,5.3055,5.3909,5.5039,5.5727,5.6182,5.6491,5.6749,5.6362,5.5732,0.0,0.0,0.0,0.0,5.9599,6.0486,6.0486,6.0998,6.1567,6.119,6.1523,6.1998,6.1232,6.1696,6.2421,6.2061,6.1942,6.1942,6.1942,6.2121,6.2331,6.2331,6.2512,6.2721,6.2721,6.2721,6.2721,6.2721,6.2721,0.0,6.2721,6.1345,6.0176,5.988,5.958,5.9638,6.0206,6.0505,6.0505,5.9997,6.1224,6.1642,6.0446,6.0894,0.0,0.0,0.0,6.0266,5.9308,5.9907,0.0,0.0,0.0,6.2725,6.2945,6.1436,0.0,0.0,5.5936,5.4126,0.0,0.0,0.0,0.0,0.0,0.0,0.0,0.0,0.0,0.0,0.0,0.0,0.0,0.0,0.0,0.0,4.3665,4.5747,4.7264,4.8637,4.9473,4.9418,4.9882,5.0483,5.1113,5.0487,5.0022,5.0022,4.8815,4.836,4.8969,4.8994,0.0,0.0,0.0,5.077,5.1306,5.1398,5.1498,5.1548,5.1674,5.2026,5.2603,5.3557,5.426,5.4873,5.6369,5.6985,5.7035,5.765,5.7549,5.6835,5.534,5.5404,5.6386,5.7418,5.7939,5.81,5.81,0.0,0.0,5.7524,5.8525,5.9716,5.9659,6.1112,6.2853,6.3087,6.3057,6.3085,6.3349,6.3767,6.4126,6.4126,6.4575,6.4994,6.4994,6.4994,6.4994,6.4994,6.4994,6.4994,6.4994,6.2063,5.9578,5.8952,5.8381,5.8411,5.9608,6.0266,6.0835,6.1283,6.2061,0.0,6.2121,6.1194,6.0805,6.1194,6.0565,5.9697,5.8593,5.9261,5.9001,5.7561,5.957,6.1768,6.4098,6.4592,6.5909,6.7726,6.0283,5.8641,0.0,0.0,0.0,0.0,0.0,0.0,0.0,0.0,0.0,0.0,0.0,0.0,0.0,0.0,0.0,4.2611,4.4964,4.6817,4.7121,4.78,4.8114,4.7649,4.77,4.8012,4.8579,4.8889,4.9089,4.9089,4.9203,4.9515,5.0067,5.0092,5.0419,5.1096,5.1122,5.1172,5.1306,5.2176,5.2829,5.3256,5.416,0.0,5.5415,5.5641,5.5792,5.5942,5.6659,5.6985,5.7035,5.765,5.7549,5.6935,5.6194,5.6034,5.6268,5.6464,5.7493,5.8735,5.8735,5.9609,6.0706,6.0706,6.091,6.109,6.0524,6.0696,0.0,6.2844,6.2871,6.2918,6.4903,6.5144,6.4815,6.4815,6.4904,6.4994,6.4994,6.4994,6.4994,6.4994,6.4994,6.4994,6.4994,6.4366,6.3798,6.3678,6.3558,6.3558,6.3828,6.3947,6.3707,6.281,6.4216,6.4395,6.2271,6.3318,6.3468,6.2002,6.1283,6.1044,6.1313,6.2503,6.2986,6.2667,6.4723,6.6007,6.644,6.6492,6.7001,6.7827,6.5053,6.4478,0.0,0.0,0.0,0.0,0.0,0.0,0.0,0.0,0.0,0.0,0.0,3.8944,3.922,0.0,4.3564,4.417,4.6326,4.7958,4.7958,4.8184,4.8134,4.755,4.7782,4.8058,4.8309,4.8862,4.9289,4.9565,4.9841,5.0243,5.082,5.0845,5.1122,5.1674,5.1975,5.2226,5.2503,5.3331,5.3884,5.4135,5.4748,5.5265,5.5817,5.6093,5.6369,5.6634,5.7487,5.7989,5.8278,5.8579,5.8378,5.7788,5.7273,5.6545,5.5767,5.5491,5.5949,5.6749,5.6749,5.7355,5.8127,5.8127,5.8872,5.9785,5.9454,6.017,6.1287,6.2179,6.2858,6.3575,6.4833,6.5581,6.6101,6.643,6.649,6.658,6.6939,6.7029,6.7029,6.7029,6.6729,6.649,6.649,6.6221,6.5742,6.5084,6.4994,6.4994,6.4994,6.4994,6.4755,6.4126,6.4934,6.4964,6.3648,6.4426,6.4426,6.3139,6.245,6.2091,6.2091,6.2733,6.3119,6.3119,6.5089,6.6147,6.6108,6.6758,6.76,6.8514,6.6713,6.6412,0.0,0.0,0.0,0.0,0.0,0.0,0.0,3.7588,3.8441,3.9421,4.035,4.1153,4.1679,4.3438,4.507,4.5974,4.7738,4.8969,4.8969,4.8969,4.8793,4.8284,4.8592,4.8843,4.8944,4.9439,4.9941,5.0393,5.0519,5.0845,5.1398,5.1548,5.185,5.2402,5.2955,5.3457,5.3858,5.4471,5.4773,5.4773,5.4974,5.529,5.5717,5.6294,5.6771,5.7236,5.8378,5.9106,5.9483,5.9483,5.9182,5.8654,5.8102,5.7072,5.5817,5.5275,5.5024,5.4924,5.4924,5.4924,5.4949,5.5049,5.6335,5.7904,5.8035,5.94,6.096,6.1446,6.2543,6.3776,6.4637,6.5826,6.7074,6.7984,6.8197,6.8347,6.8884,6.9004,6.9004,6.9004,6.8555,6.8197,6.8197,6.7747,6.6939,6.5562,6.5383,6.5383,6.5383,6.5383,6.5383,6.5383,6.5383,6.5383,6.5383,6.5383,6.5173,6.4605,6.4155,6.3647,6.3079,6.281,6.266,6.266,6.4,6.4779,6.4897,6.6012,6.7181,6.8314,6.6656,6.6748,3.1783,3.2516,3.4098,3.5207,3.6434,3.8191,0.0,4.1884,4.2336,4.4869,4.5472,4.5748,4.6271,4.738,4.8291,4.8416,4.9044,4.9515,4.9515,4.9515,4.949,4.9414,4.9069,4.8994,4.9464,4.9992,5.0343,5.0419,5.0896,5.1423,5.1975,5.2477,5.298,5.3507,5.4084,5.4446,5.4496,5.5049,5.529,5.5315,5.6294,5.6759,5.6835,5.7449,5.775,5.7851,5.893,5.9433,5.9483,5.9483,5.9182,5.8654,5.8102,5.7775,5.7549,5.6935,5.6408,5.6018,5.6018,5.6018,5.6118,5.6559,5.6907,5.7217,5.7784,5.811,5.8758,6.0921,6.1263,6.1895,6.5776,6.6483,6.6632,6.8476,6.8884,6.8914,6.8974,6.9004,6.9004,6.9004,6.8944,6.8884,6.8884,6.8824,6.8315,6.6969,6.6759,6.6759,6.6759,6.6759,6.6759,6.6759,6.6759,6.6759,6.6759,6.6759,6.6729,6.667,6.658,6.652,6.643,6.5323,6.4665,6.4665,6.3792,6.3598,6.4131,6.4261,6.4711,6.54,6.513,6.6781,3.6458,3.6257,3.6609,3.9972,4.0626,4.1054,4.3388,4.4267,4.4895,4.6075,4.6803,4.7305,4.75,4.851,4.9364,4.9665,4.9916,5.0067,5.0067,4.9791,4.9715,5.0042,4.9866,4.9816,5.0042,5.0594,5.1046,5.1373,5.1624,5.2126,5.298,5.3256,5.3632,5.422,5.4773,5.5074,5.5074,5.5917,5.6344,5.6369,5.7148,5.7524,5.7549,5.7775,5.8077,5.8428,5.9182,5.9483,5.9508,5.9834,5.9659,5.9156,5.893,5.8654,5.8303,5.775,5.7399,5.7198,5.7198,5.7198,5.7223,5.7474,5.7524,5.7575,5.7826,5.7901,5.8114,5.9115,5.9997,6.1012,6.284,6.3889,6.4764,6.5911,6.7091,6.7995,6.8404,6.9341,7.0111,7.0111,6.9812,6.9572,6.9572,6.9243,6.8824,6.8256,6.8166,6.8166,6.8166,6.7807,6.7598,6.7598,6.7926,6.8166,6.8166,6.8166,6.7986,6.7628,6.7598,6.7419,6.6999,6.646,6.6161,6.6161,6.5622,6.529,6.5178,6.5178,6.5492,6.6148,6.5338,6.6599,3.9346,3.922,3.9346,4.3536,4.4066,4.3919,4.5192,4.6145,4.6803,4.6954,4.7732,4.8385,4.8385,4.9163,4.9891,5.0142,5.0193,5.0193,5.0193,4.9967,4.9967,5.0336,5.0695,5.087,5.087,5.1272,5.1724,5.2302,5.2477,5.2955,5.3884,5.4084,5.4361,5.4823,5.534,5.5691,5.5842,5.6584,5.7085,5.7236,5.7851,5.8127,5.8127,5.8278,5.8554,5.8956,5.9508,5.9633,5.9533,6.0085,5.9985,5.9483,5.9483,5.9257,5.888,5.8478,5.8152,5.7901,5.7901,5.7901,5.7926,5.8077,5.8127,5.8152,5.8303,5.8328,5.8328,5.8328,5.9294,6.0404,6.0954,6.2059,6.3281,6.4257,6.5972,6.7507,6.7996,6.9553,7.0889,7.0889,7.056,7.0231,7.0231,6.9842,6.9512,6.9512,6.9512,6.9453,6.9273,6.8974,6.8826,6.8826,6.9213,6.9512,6.9512,6.9512,6.9303,6.8856,6.8826,6.8555,6.8106,6.7747,6.7627,6.7807,6.7268,6.6849,6.655,6.637,6.6461,6.6754,6.5738,6.6231,3.8341,4.0049,4.1729,4.4012,4.5794,4.7099,4.7682,4.7832,4.8033,4.8617,4.9138,4.954,4.954,5.0017,5.0218,4.9715,4.9615,4.9615,4.9615,5.0067,5.0361,5.0386,5.1398,5.2051,5.2051,5.2076,5.2302,5.282,5.3356,5.3909,5.4547,5.5074,5.534,5.5365,5.5892,5.6445,5.6935,5.6985,5.7286,5.7876,5.8428,5.8704,5.8666,5.9207,5.9458,5.9508,6.006,5.9985,5.9533,6.0085,5.9985,5.9483,5.9483,5.9483,5.9458,5.9458,5.878,5.7901,5.7901,5.7901,5.8001,5.8529,5.8704,5.8742,5.9282,5.9433,5.9433,5.9433,5.9471,5.9946,6.1839,6.2371,6.2888,6.4722,6.6656,6.8083,6.8112,6.9553,7.0889,7.0889,7.0889,7.0889,7.0889,7.0859,7.0829,7.0829,7.0829,7.062,6.9959,7.044,7.0799,7.0799,7.0829,7.0829,7.0829,7.0829,7.0829,7.0829,7.0799,7.0799,7.0769,6.9602,6.9243,6.9903,6.7986,6.7298,6.7928,6.7299,6.664,6.6042,6.5981,6.5652,4.2459,4.3664,4.4518,4.6351,4.7782,4.8812,4.8987,4.9615,5.0092,4.9891,5.0017,5.0017,4.9665,5.0368,5.0795,5.0243,5.077,5.1272,5.1272,5.1423,5.18,5.2503,5.2929,5.3457,5.421,5.3607,5.3231,5.3432,5.3959,5.4547,5.5089,5.529,5.5541,5.5917,5.647,5.6809,5.6985,5.7738,5.8215,5.8453,5.8981,5.9232,5.9232,5.9408,5.9684,6.006,6.0236,6.0437,6.0638,6.0814,6.0563,6.0035,6.0035,5.9809,5.9483,5.9483,5.9257,5.8956,5.8956,5.8956,5.8981,5.9182,5.9232,5.9257,5.9433,5.9483,5.9483,5.9483,5.9483,5.9637,6.0304,6.0469,6.066,6.1252,6.2915,6.4337,6.4337,6.578,6.7513,6.8788,6.9052,6.942,7.0694,7.0889,7.1038,7.1487,7.1547,7.1308,7.0649,7.1547,7.2056,7.1607,7.1966,7.2235,7.2235,7.2235,7.2056,7.1577,7.1547,7.1368,7.0919,7.05,7.038,7.059,6.9931,6.9482,6.9335,6.9093,6.8405,6.7329,6.7329,6.6969,4.5121,4.62,4.6753,4.8385,4.9515,5.0193,5.0193,5.0745,5.1172,5.0795,5.087,5.0845,5.0293,5.0946,5.1398,5.082,5.1498,5.2101,5.2101,5.2427,5.2929,5.3607,5.4059,5.4587,5.5315,5.5089,5.4888,5.4888,5.5239,5.5691,5.6244,5.6294,5.6445,5.6796,5.7148,5.7387,5.7587,5.8315,5.8805,5.9006,5.9332,5.9608,5.9784,5.9784,6.0085,6.0638,6.0638,6.0839,6.119,6.119,6.0964,6.0638,6.0638,6.0412,6.0085,6.0085,6.0085,6.0035,5.9633,5.9483,5.9483,5.9483,5.9483,5.9483,5.9483,5.9483,5.9483,5.9483,5.9633,5.9784,5.9784,5.9935,6.0085,6.0085,6.1556,6.2982,6.2982,6.4488,6.6116,6.7184,6.7948,6.8711,6.9711,7.0644,7.1398,7.1816,7.2295,7.2445,7.2026,7.2924,7.3432,7.3047,7.3133,7.3283,7.3283,7.3043,7.2714,7.2265,7.2265,7.1966,7.1278,7.1248,7.1128,7.0889,7.0889,7.0709,7.032,7.032,6.9784,6.8706,6.8466,6.8017,4.6245,4.7626,4.8435,5.0034,5.0896,5.1356,5.1356,5.1306,5.1247,5.1247,5.1574,5.1699,5.1172,5.1574,5.18,5.1306,5.1724,5.2176,5.2226,5.3105,5.3758,5.3833,5.4813,5.5491,5.5516,5.6458,5.7085,5.7136,5.7085,5.7286,5.7876,5.7926,5.7926,5.7901,5.7951,5.8227,5.8704,5.8755,5.9031,5.9533,5.9533,5.9834,6.0362,6.0362,6.0688,6.1215,6.1215,6.124,6.1266,6.1266,6.124,6.1215,6.1215,6.1215,6.119,6.119,6.119,6.104,5.996,5.9583,5.9583,5.9583,5.9583,5.9583,5.9583,5.9583,5.9583,5.9583,5.996,6.0362,6.0362,6.0763,6.119,6.119,6.2546,6.386,6.386,6.5286,6.6505,6.6183,6.7743,6.8924,6.845,7.0367,7.1996,7.1996,7.3103,7.3941,7.3881,7.448,7.4903,7.4903,7.43,7.3941,7.3941,7.3373,7.3013,7.2954,7.2954,7.2654,7.1966,7.1936,7.1637,7.1009,7.1009,7.1009,7.1009,7.1009,7.0679,7.0083,6.9423,6.8764,4.883,4.9658,4.9992,5.0845,5.1473,5.19,5.19,5.1247,5.0645,5.0645,4.9439,4.8328,4.8178,4.9314,5.0193,5.0042,5.1548,5.3005,5.3833,5.422,5.4662,5.5465,5.6157,5.6796,5.7223,5.7876,5.8415,5.883,5.8127,5.775,5.7901,5.8278,5.8328,5.7901,5.8679,5.8956,5.8679,5.9106,5.9583,6.0111,6.0111,6.0412,6.0964,6.0964,6.1266,6.1793,6.1793,6.2019,6.2395,6.2395,6.2169,6.1793,6.1793,6.1542,6.119,6.119,6.119,6.114,6.0864,6.0763,6.0763,6.0763,6.0763,6.0763,6.0763,6.0763,6.0763,6.0763,6.0864,6.0964,6.0964,6.1065,6.119,6.119,6.1562,6.1931,6.1931,6.2298,6.3489,6.623,6.955,7.1833,7.1718,7.2622,7.3373,7.3373,7.4125,7.445,7.3941,7.448,7.4903,7.4903,7.4753,7.4663,7.4663,7.448,7.418,7.3672,7.3642,7.3343,7.2684,7.2654,7.2565,7.2415,7.2415,7.2415,7.2415,7.2415,7.2056,7.1398,7.1218,7.056,4.9859,5.077,5.1247,5.1548,5.2051,5.2277,5.1523,5.087,5.0185,4.9432,4.8303,4.7676,4.8403,4.954,5.0494,5.0971,5.2528,5.3858,5.4522,5.4798,5.5239,5.6118,5.6922,5.7549,5.7876,5.8604,5.9182,5.9483,5.893,5.8704,5.8956,5.9257,5.9408,5.9332,5.9684,5.9583,5.9031,5.9583,6.001,6.0311,6.0588,6.0989,6.1542,6.1542,6.1843,6.237,6.237,6.2505,6.2781,6.2781,6.2606,6.237,6.237,6.2169,6.1893,6.1893,6.1893,6.1893,6.1893,6.1893,6.1818,6.1341,6.119,6.119,6.119,6.119,6.119,6.119,6.1366,6.1542,6.1542,6.1718,6.1893,6.1893,6.1893,6.1893,6.1893,6.1893,6.2978,6.6702,6.9706,7.2015,7.3148,7.3642,7.4001,7.427,7.4663,7.4783,7.436,7.4693,7.4903,7.4903,7.4903,7.4903,7.4903,7.4903,7.4753,7.436,7.433,7.4031,7.3373,7.3343,7.3223,7.2924,7.2924,7.2924,7.2924,7.2924,7.2714,7.2325,7.2026,7.1338,5.0092,5.1247,5.2026,5.2176,5.2578,5.2443,5.0762,5.0243,4.9615,4.7933,4.7405,4.7757,4.9464,5.0167,5.0896,5.2042,5.3055,5.3843,5.422,5.4662,5.5265,5.6118,5.7198,5.7901,5.7901,5.8855,5.9533,5.9608,5.9608,5.9809,6.0286,6.0423,6.0738,6.1205,6.0613,6.006,5.9508,6.0035,6.0362,6.0437,6.1014,6.1592,6.2119,6.2119,6.237,6.2781,6.2781,6.2781,6.2781,6.2781,6.2781,6.2781,6.2781,6.2781,6.2781,6.2781,6.2781,6.2781,6.2781,6.2781,6.2631,6.1718,6.1391,6.1391,6.1391,6.1391,6.1391,6.1391,6.1743,6.2119,6.2119,6.2471,6.2781,6.2781,6.2781,6.2781,6.2781,6.3026,6.4169,6.7384,6.9277,7.1173,7.3725,7.418,7.436,7.4963,7.5053,7.5023,7.4933,7.4903,7.4903,7.4903,7.4903,7.4903,7.4903,7.4903,7.4903,7.4903,7.4903,7.4663,7.4061,7.4031,7.3762,7.3193,7.3163,7.3163,7.3163,7.3163,7.3163,7.3163,7.2565,7.1936,5.0795,5.1272,5.1649,5.2519,5.282,5.2443,5.0762,4.9339,4.7883,4.625,4.4794,4.4342,4.6024,4.6426,4.7004,4.8535,4.8937,4.9866,5.2201,5.2603,5.3557,5.5917,5.7198,5.7901,5.7901,5.8855,5.9684,6.0136,6.0186,6.0211,6.0311,6.1215,6.1542,6.119,6.0613,6.006,5.9508,6.0035,6.0563,6.104,6.1592,6.2144,6.2656,6.2656,6.2706,6.2781,6.2781,6.2781,6.2781,6.2781,6.2781,6.2781,6.2781,6.2781,6.2781,6.2781,6.2781,6.2781,6.2781,6.2781,6.2756,6.2556,6.2505,6.2505,6.2505,6.2505,6.2505,6.2505,6.2581,6.2656,6.2656,6.2706,6.2781,6.2781,6.2781,6.2781,6.2781,6.4123,6.5974,6.826,7.0266,7.2411,7.5096,7.5557,7.5587,7.5707,7.5736,7.5527,7.4993,7.4903,7.4903,7.4903,7.4903,7.4903,7.4903,7.4903,7.4903,7.4903,7.4903,7.4873,7.4753,7.4753,7.4693,7.4574,7.4574,7.4574,7.4574,7.4574,7.4574,7.4574,7.442,7.4001,4.9615,5.0594,5.1825,5.2377,5.2669,5.2142,4.9332,4.8052,4.6672,4.3887,4.2685,4.2635,4.4292,4.5095,4.5924,4.7249,4.8711,5.0243,5.1875,5.2854,5.4084,5.5993,5.7198,5.7901,5.7901,5.8855,5.9734,6.0286,6.0588,6.0889,6.119,6.1994,6.2044,6.1255,6.0914,6.0487,5.9935,6.0487,6.104,6.1617,6.2169,6.2531,6.2781,6.2781,6.2781,6.2781,6.2781,6.2781,6.2781,6.2781,6.2781,6.2781,6.2781,6.2781,6.2781,6.2781,6.2781,6.2781,6.2781,6.2781,6.2781,6.2781,6.2781,6.2781,6.2781,6.2781,6.2781,6.2781,6.2781,6.2781,6.2781,6.2781,6.2781,6.2781,6.2781,6.2781,6.2781,6.4378,6.6429,6.8473,7.0521,7.2847,7.5871,7.6125,7.6125,7.6784,7.6335,7.5796,7.5467,7.5142,7.4903,7.4903,7.4903,7.4903,7.4903,7.4903,7.4903,7.4903,7.4903,7.4903,7.4903,7.4903,7.4903,7.4903,7.4903,7.4903,7.4903,7.4903,7.4903,7.4903,7.4903,7.4544,4.8636,5.0067,5.1774,5.19,5.2352,5.1691,4.7801,4.7023,4.5995,4.2105,4.1302,4.1804,4.3489,4.4342,4.5171,4.6371,4.8234,4.9992,5.1373,5.2713,5.4185,5.5993,5.7198,5.7901,5.7901,5.8855,5.9784,6.0462,6.114,6.1718,6.2169,6.2556,6.232,6.1215,6.1291,6.1014,6.0337,6.1014,6.1567,6.2019,6.2531,6.2781,6.2781,6.2781,6.2781,6.2781,6.2781,6.2781,6.2781,6.2781,6.2781,6.2781,6.2781,6.2781,6.2781,6.2781,6.2781,6.2781,6.2781,6.2781,6.2781,6.2781,6.2781,6.2781,6.2781,6.2781,6.2781,6.2781,6.2781,6.2781,6.2781,6.2781,6.2781,6.2781,6.2781,6.2781,6.2781,6.4042,6.5883,6.8397,7.019,7.2468,7.6152,7.6425,7.6485,7.7652,7.6963,7.6215,7.5946,7.5437,7.5083,7.4933,7.4903,7.4903,7.4903,7.4903,7.4903,7.4903,7.4903,7.4903,7.4903,7.4903,7.4903,7.4903,7.4903,7.4903,7.4903,7.4903,7.4903,7.4903,7.4903,7.4634,4.954,5.0336,5.0695,5.1222,5.1774,5.1172,4.728,4.6747,4.5995,4.2105,4.1302,4.1804,4.3489,4.309,4.3014,4.4564,4.4242,4.52,4.9264,4.9967,5.1574,5.5717,5.7198,5.7901,5.7901,5.8855,5.9935,6.1014,6.2069,6.2656,6.2706,6.2756,6.232,6.1215,6.1667,6.1416,6.0337,6.1391,6.1943,6.2019,6.2531,6.2781,6.2781,6.2781,6.2781,6.2781,6.2781,6.2781,6.2781,6.2781,6.2781,6.2781,6.2781,6.2781,6.2781,6.2781,6.2781,6.2781,6.2781,6.2781,6.2781,6.2781,6.2781,6.2781,6.2781,6.2781,6.2781,6.2781,6.2781,6.2781,6.2781,6.2781,6.2781,6.2781,6.2781,6.2781,6.2781,6.2945,6.4243,6.8132,6.9038,7.0769,7.591,7.6749,7.6958,7.7711,7.7711,7.7203,7.6066,7.5856,7.5557,7.4993,7.4903,7.4903,7.4903,7.4903,7.4903,7.4903,7.4903,7.4903,7.4903,7.4903,7.4903,7.4903,7.4903,7.4903,7.4903,7.4903,7.4903,7.4903,7.4903,7.4873,4.6973,4.9138,5.1498,5.1724,5.1699,5.067,4.7129,4.5668,4.4116,4.0576,3.9572,3.9647,4.0651,4.0778,4.1103,4.2406,4.336,4.5271,4.9063,5.0469,5.2377,5.5792,5.7198,5.7499,5.6495,5.8579,6.0462,6.1592,6.2395,6.2781,6.2781,6.2781,6.232,6.1215,6.1718,6.1642,6.0839,6.1617,6.2169,6.2455,6.2681,6.2781,6.2781,6.2781,6.2781,6.2781,6.2781,6.2781,6.2781,6.2781,6.2781,6.2781,6.2781,6.2781,6.2781,6.2781,6.2781,6.2781,6.2781,6.2781,6.2781,6.2781,6.2781,6.2781,6.2781,6.2781,6.2781,6.2781,6.2781,6.2781,6.2781,6.2781,6.2781,6.2781,6.2781,6.2781,6.2781,6.2781,6.4002,6.8094,6.8888,7.0584,7.5875,7.6779,7.7137,7.825,7.8071,7.7472,7.6539,7.6125,7.5647,7.4993,7.4903,7.4903,7.4903,7.4903,7.4903,7.4903,7.4903,7.4903,7.4903,7.4903,7.4903,7.4903,7.4903,7.4903,7.4903,7.4903,7.4903,7.4903,7.4903,7.4903,4.5543,4.8058,5.082,5.1649,5.1071,4.949,4.6502,4.4392,4.2233,3.9245,3.8291,3.8191,3.8793,3.9346,4.0049,4.1127,4.2758,4.5221,4.9063,5.0619,5.2452,5.5365,5.657,5.6746,5.5742,5.8629,6.0964,6.1943,6.2521,6.2706,6.2556,6.2531,6.222,6.1441,6.1793,6.1818,6.1441,6.1969,6.2446,6.2781,6.2781,6.2781,6.2781,6.2781,6.2781,6.2781,6.2781,6.2781,6.2781,6.2781,6.2781,6.2781,6.2781,6.2781,6.2781,6.2781,6.2781,6.2781,6.2781,6.2781,6.2781,6.2781,6.2781,6.2781,6.2781,6.2781,6.2781,6.2781,6.2781,6.2781,6.2781,6.2781,6.2781,6.2781,6.2781,6.2781,6.2781,6.2781,6.3827,6.7292,6.8473,7.0342,7.4838,7.6277,7.7167,7.834,7.828,7.7861,7.7167,7.6539,7.5916,7.5258,7.5023,7.4903,7.4903,7.4903,7.4903,7.4903,7.4903,7.4903,7.4903,7.4903,7.4903,7.4903,7.4903,7.4903,7.4903,7.4903,7.4903,7.4903,7.4903,7.4903,4.6401,4.75,4.7801,5.0594,4.9615,4.7355,4.5116,4.2908,4.07,3.8492,3.8015,3.8191,3.8793,3.9346,4.0049,4.1127,4.1806,4.3944,4.8887,4.9615,5.0845,5.422,5.5125,5.5616,5.6143,5.9207,6.1416,6.1969,6.2521,6.2556,6.2044,6.2019,6.1994,6.1994,6.1994,6.1994,6.1994,6.2505,6.2781,6.2781,6.2781,6.2781,6.2781,6.2781,6.2781,6.2781,6.2781,6.2781,6.2781,6.2781,6.2781,6.2781,6.2781,6.2781,6.2781,6.2781,6.2781,6.2781,6.2781,6.2781,6.2781,6.2781,6.2781,6.2781,6.2781,6.2781,6.2781,6.2781,6.2781,6.2781,6.2781,6.2781,6.2781,6.2781,6.2781,6.2781,6.2781,6.2781,6.3382,6.5437,6.7483,6.9718,7.2399,7.504,7.7018,7.7711,7.837,7.8549,7.7891,7.7197,7.6539,7.5946,7.5288,7.4903,7.4903,7.4903,7.4903,7.4903,7.4903,7.4903,7.4903,7.4903,7.4903,7.4903,7.4903,7.4903,7.4903,7.4903,7.4903,7.4903,7.4903,7.4903,4.2457,4.4088,4.5593,4.6502,4.5623,4.4166,4.2682,4.0926,3.9245,3.7739,3.716,3.7185,3.8115,3.8417,3.9145,4.1001,4.1453,4.3463,4.8837,4.959,5.1247,5.5717,5.6068,5.6922,5.9382,5.9533,6.0362,6.238,6.233,6.2195,6.2019,6.1266,6.104,6.1441,6.1818,6.1994,6.1994,6.2546,6.2781,6.2781,6.2781,6.2781,6.2781,6.2781,6.2781,6.2781,6.2781,6.2781,6.2781,6.2781,6.2781,6.2781,6.2781,6.2781,6.2781,6.2781,6.2781,6.2781,6.2781,6.2781,6.2781,6.2781,6.2781,6.2781,6.2781,6.2781,6.2781,6.2781,6.2781,6.2781,6.2781,6.2781,6.2781,6.2781,6.2781,6.2781,6.2781,6.2781,6.3382,6.5398,6.7483,6.9718,7.2334,7.5004,7.7018,7.7711,7.837,7.8549,7.7891,7.7197,7.6569,7.5976,7.5288,7.4903,7.4903,7.4903,7.4903,7.4903,7.4903,7.4903,7.4903,7.4903,7.4903,7.4903,7.4903,7.4903,7.4903,7.4903,7.4903,7.4903,7.4903,7.4903,4.0499,4.1904,4.3285,4.4338,4.3338,4.1882,4.1152,3.9421,3.7738,3.7034,3.6783,3.6959,3.7839,3.8341,3.9496,4.213,4.203,4.3589,4.9113,4.9188,5.0368,5.4902,5.6057,5.7424,5.9709,5.9558,6.0136,6.2069,6.1893,6.1592,6.1391,6.0914,6.0814,6.1165,6.1517,6.1893,6.232,6.2606,6.2781,6.2781,6.2781,6.2781,6.2781,6.2781,6.2781,6.2781,6.2781,6.2781,0.0,6.2781,6.2781,6.2781,6.2781,6.2781,6.2781,6.2781,6.2781,6.2781,6.2781,6.2781,6.2781,6.2781,6.2781,6.2781,6.2781,6.2781,6.2781,6.2781,6.2781,6.2781,6.2781,6.2781,6.2781,6.2781,6.2781,6.2781,6.2781,6.2781,6.3164,6.4418,6.6972,6.9438,7.103,7.4157,7.6659,7.7352,7.7981,7.837,7.819,7.7592,7.6928,7.6335,7.5647,7.5168,7.4933,7.4903,7.4903,7.4903,7.4903,7.4903,7.4903,7.4903,7.4903,7.4903,7.4903,7.4903,7.4903,7.4903,7.4903,7.4903,7.4903,7.4903,0.0,4.0549,4.08,4.336,4.2108,4.0224,4.0224,3.8266,0.0,3.6455,3.6884,3.7412,3.8015,3.9069,4.0877,4.3912,4.3263,4.4195,4.9439,4.873,4.9031,5.2644,5.5505,5.7387,5.8001,5.9433,6.0563,6.114,6.114,6.0889,6.0337,6.0839,6.114,6.119,6.1215,6.1743,6.2781,6.2781,6.2781,6.2781,6.2781,6.2781,6.2781,6.2781,6.2781,6.2781,6.2781,6.2781,6.2781,6.2781,6.2781,6.2781,6.2781,6.2781,6.2781,6.2781,6.2781,6.2781,6.2781,6.2781,6.2781,6.2781,6.2781,6.2781,6.2781,6.2781,6.2781,6.2781,6.2781,6.2781,6.2781,6.2781,6.2781,6.2781,6.2781,6.2781,6.2781,6.2781,6.2781,6.2781,6.6105,6.8888,6.8888,7.2785,7.6096,7.6629,7.7352,7.8041,7.8639,7.819,7.7562,7.6868,7.6275,7.5617,7.4963,7.4903,7.4903,7.4903,7.4903,7.4903,7.4903,7.4903,7.4903,7.4903,7.4903,7.4903,7.4903,7.4903,7.4903,7.4903,7.4903,7.4903,3.6386,0.0,3.7512,3.8165,3.7838,3.7361,0.0,3.7185,3.7009,3.7009,3.7437,3.8115,3.912,4.0577,4.1858,4.2637,4.3463,4.4916,4.75,5.1096,5.3783,5.4712,5.7248,5.9131,5.9684,6.0085,6.0563,6.114,6.0763,6.0462,6.0337,6.0437,6.0713,6.1205,6.1592,6.2144,6.2781,6.2781,6.2781,6.2781,6.2781,6.2781,6.2781,6.2781,6.2781,6.2781,6.2781,6.2781,6.2781,6.2781,6.2781,6.2781,6.2781,6.2781,6.2781,6.2781,6.2781,6.2781,6.2781,6.2781,6.2781,6.2781,6.2781,6.2781,6.2781,6.2781,6.2781,6.2781,6.2781,6.2781,6.2781,6.2781,6.2781,6.2781,6.2781,6.2781,6.2781,6.2781,6.2781,6.2781,6.6105,6.8888,6.8888,7.2785,7.5946,7.6096,7.7083,7.7861,7.8011,7.7921,7.7562,7.6868,7.6275,7.5617,7.4963,7.4903,7.4903,7.4903,7.4903,7.4903,7.4903,7.4903,7.4903,7.4903,7.4903,7.4903,7.4903,7.4903,7.4903,7.4903,7.4903,7.4903,3.4603,3.5355,3.6031,3.6331,3.6405,3.6457,3.6708,3.6984,3.7286,3.7513,3.8216,3.8969,3.9597,4.108,4.2688,4.4192,4.497,4.622,4.8686,5.2477,5.5114,5.5365,5.7826,5.9508,5.9583,5.9809,6.006,6.0387,6.0111,6.006,6.0311,6.0563,6.0989,6.1542,6.2094,6.2521,6.2781,6.2781,6.2781,6.2781,6.2781,6.2781,6.2781,6.2781,6.2781,6.2781,6.2781,6.2781,6.2781,6.2781,6.2781,6.2781,6.2781,6.2781,6.2781,6.2781,6.2781,6.2781,6.2781,6.2781,6.2781,6.2781,6.2781,6.2781,6.2781,6.2781,6.2781,6.2781,6.2781,6.2781,6.2781,6.2781,6.2781,6.2781,6.2781,6.2781,6.2781,6.2781,6.2781,6.2781,6.6105,6.8888,6.885,7.2496,7.5557,7.5856,7.6724,7.7472,7.7771,7.8071,7.8011,7.7352,7.6689,7.6066,7.5407,7.5083,7.4903,7.4903,7.4903,7.4903,7.4903,7.4903,7.4903,7.4903,7.4903,7.4903,7.4903,7.4903,7.4903,7.4903,7.4903,7.4903,3.3972,3.4753,3.5658,3.6356,3.6531,3.6683,3.7311,3.7462,3.7588,3.814,3.9295,4.0249,4.0425,4.1959,4.412,4.6898,4.7205,4.8033,5.077,5.3215,5.4898,5.534,5.775,5.9232,5.888,5.9232,5.9483,5.9483,5.9483,5.9734,6.0286,6.0864,6.1441,6.1994,6.2505,6.2781,6.2781,6.2781,6.2781,6.2781,6.2781,6.2781,6.2781,6.2781,6.2781,6.2781,6.2781,6.2781,6.2781,6.2781,6.2781,6.2781,6.2781,6.2781,6.2781,6.2781,6.2781,6.2781,6.2781,6.2781,6.2781,6.2781,6.2781,6.2781,6.2781,6.2781,6.2781,6.2781,6.2781,6.2781,6.2781,6.2781,6.2781,6.2781,6.2781,6.2781,6.2781,6.2781,6.2781,6.2781,6.6105,6.8888,6.8822,7.2207,7.5113,7.5647,7.6275,7.6898,7.7562,7.822,7.843,7.7861,7.7287,7.6659,7.5976,7.5377,7.5023,7.4933,7.4903,7.4903,7.4903,7.4903,7.4903,7.4903,7.4903,7.4903,7.4903,7.4903,7.4903,7.4903,7.4903,7.4903,3.4327,3.5029,3.5734,3.681,3.7085,3.7361,3.8391,3.8642,3.8793,3.932,4.1053,4.276,4.3661,4.5999,4.7964,4.8466,4.964,5.0519,5.0544,5.3256,5.529,5.539,5.7424,5.8981,5.9332,5.9458,5.9483,5.9483,5.9483,5.9734,6.0286,6.0864,6.1441,6.1994,6.2505,6.2781,6.2781,6.2781,6.2781,6.2781,6.2781,6.2781,6.2781,6.2781,6.2781,6.2781,6.2781,6.2781,6.2781,6.2781,6.2781,6.2781,6.2781,6.2781,6.2781,6.2781,6.2781,6.2781,6.2781,6.2781,6.2781,6.2781,6.2781,6.2781,6.2781,6.2781,6.2781,6.2781,6.2781,6.2781,6.2781,6.2781,6.2781,6.2781,6.2781,6.2781,6.2781,6.2781,6.2781,6.2781,6.6105,6.8888,6.8888,7.2207,7.4933,7.5053,7.5617,7.6275,7.6868,7.7562,7.7921,7.7831,7.7711,7.7173,7.6006,7.5826,7.5497,7.4963,7.4903,7.4903,7.4903,7.4903,7.4903,7.4903,7.4903,7.4903,7.4903,7.4903,7.4903,7.4903,7.4903,7.4903,3.4048,3.4879,3.6135,3.8743,3.9421,3.9722,4.0853,4.206,4.2459,4.0876,4.2585,4.4392,4.4564,4.6175,4.8234,5.0619,5.19,5.2929,5.3823,5.5064,5.6068,5.6671,5.7901,5.8805,5.9056,5.9332,5.9483,5.9483,5.9483,5.9885,6.0738,6.104,6.1567,6.2421,6.2656,6.2781,6.2781,6.2781,6.2781,6.2781,6.2781,6.2781,6.2781,6.2781,6.2781,6.2781,6.2781,6.2781,6.2781,6.2781,6.2781,6.2781,6.2781,6.2781,6.2781,6.2781,6.2781,6.2781,6.2781,6.2781,6.2781,6.2781,6.2781,6.2781,6.2781,6.2781,6.2781,6.2781,6.2781,6.2781,6.2781,6.2781,6.2781,6.2781,6.2781,6.2781,6.2781,6.2781,6.2781,6.2781,6.6105,6.8888,6.8888,7.2272,7.4903,7.4903,7.5467,7.6006,7.6305,7.7203,7.7801,7.7801,7.7801,7.7442,7.6485,7.6096,7.5617,7.4963,7.4903,7.4903,7.4903,7.4903,7.4903,7.4903,7.4903,7.4903,7.4903,7.4903,7.4903,7.4903,7.4903,7.4903,3.4048,3.5255,3.7287,4.0675,4.1503,4.1955,4.374,4.5271,4.5618,4.3335,4.4794,4.6351,4.602,4.6903,4.8786,5.2142,5.3406,5.4587,5.6533,5.6696,5.6922,5.7801,5.8378,5.8742,5.8905,5.9257,5.9483,5.9483,5.9608,6.0136,6.114,6.1316,6.1818,6.2756,6.2781,6.2781,6.2781,6.2781,6.2781,6.2781,6.2781,6.2781,6.2781,6.2781,6.2781,6.2781,6.2781,6.2781,6.2781,6.2781,6.2781,6.2781,6.2781,6.2781,6.2781,6.2781,6.2781,6.2781,6.2781,6.2781,6.2781,6.2781,6.2781,6.2781,6.2781,6.2781,6.2781,6.2781,6.2781,6.2781,6.2781,6.2781,6.2781,6.2781,6.2781,6.2781,6.2781,6.2781,6.2781,6.2781,6.5713,6.8322,6.8812,7.1848,7.4357,7.4834,7.5318,7.5707,7.5886,7.6754,7.7472,7.7771,7.7801,7.7592,7.7078,7.6365,7.5677,7.5172,7.4993,7.4903,7.4903,7.4903,7.4903,7.4903,7.4903,7.4903,7.4903,7.4903,7.4903,7.4903,7.4903,7.4903,3.4904,3.6985,3.9823,4.1683,4.2135,4.309,4.6728,4.6903,4.6527,4.728,4.8435,4.9439,4.9916,5.0921,5.18,5.2126,5.3517,5.4949,5.6118,5.7148,5.7801,5.7901,5.8378,5.8905,5.9382,5.9483,5.9483,5.9483,5.996,6.0537,6.114,6.1667,6.222,6.2781,6.2781,6.2781,6.2781,6.2781,6.2781,6.2781,6.2781,6.2781,6.2781,6.2781,6.2781,6.2781,6.2781,6.2781,6.2781,6.2781,6.2781,6.2781,6.2781,6.2781,6.2781,6.2781,6.2781,6.2781,6.2781,6.2781,6.2781,6.2781,6.2781,6.2781,6.2781,6.2781,6.2781,6.2781,6.2781,6.2781,6.2781,6.2781,6.2781,6.2781,6.2781,6.2781,6.2781,6.2781,6.2781,6.2781,6.4537,6.6635,6.8549,7.0667,7.277,7.4598,7.4963,7.5198,7.5826,7.5976,7.6485,7.7682,7.7801,7.7801,7.7741,7.6604,7.5886,7.5826,7.5228,7.4903,7.4903,7.4903,7.4903,7.4903,7.4903,7.4903,7.4903,7.4903,7.4903,7.4903,7.4903,7.4903,3.513,3.7639,4.0852,4.3592,4.4744,4.5723,4.7506,4.9464,5.0444,4.8786,4.9891,5.1322,5.1841,5.2603,5.3432,5.4486,5.4612,5.4974,5.6068,5.6872,5.7499,5.7851,5.8378,5.893,5.9433,5.9483,5.9483,5.9483,6.001,6.0563,6.114,6.1718,6.227,6.2781,6.2781,6.2781,6.2781,6.2781,6.2781,6.2781,6.2781,6.2781,6.2781,6.2781,6.2781,6.2781,6.2781,6.2781,6.2781,6.2781,6.2781,6.2781,6.2781,6.2781,6.2781,6.2781,6.2781,6.2781,6.2781,6.2781,6.2781,6.2781,6.2781,6.2781,6.2781,6.2781,6.2781,6.2781,6.2781,6.2781,6.2781,6.2781,6.2781,6.2781,6.2781,6.2781,6.2781,6.2781,6.2781,6.2781,6.4418,6.6039,6.6829,6.9718,7.2171,7.2911,7.412,7.4993,7.5228,7.5647,7.6096,7.6574,7.6963,7.7167,7.7167,7.6719,7.627,7.5916,7.5258,7.4903,7.4903,7.4903,7.4903,7.4903,7.4903,7.4903,7.4903,7.4903,7.4903,7.4903,7.4903,7.4903,3.5631,3.8592,4.2108,4.4392,4.6577,4.8278,4.8862,5.0469,5.1473,5.0117,5.1448,5.2879,5.2895,5.3196,5.3884,5.5214,5.4787,5.4813,5.6269,5.691,5.7524,5.8102,5.8629,5.9106,5.9458,5.9483,5.9483,5.9483,6.0186,6.0763,6.1165,6.1868,6.2446,6.2781,6.2781,6.2781,6.2781,6.2781,6.2781,6.2781,6.2781,6.2781,6.2781,6.2781,6.2781,6.2781,6.2781,6.2781,6.2781,6.2781,6.2781,6.2781,6.2781,6.2781,6.2781,6.2781,6.2781,6.2781,6.2781,6.2781,6.2781,6.2781,6.2781,6.2781,6.2781,6.2781,6.2781,6.2781,6.2781,6.2832,6.3007,6.2932,6.2781,6.2781,6.2781,6.2781,6.2781,6.2781,6.2781,6.2781,6.3922,6.5042,6.5687,6.8672,7.1169,7.182,7.3638,7.4903,7.4903,7.5288,7.5677,7.5886,7.642,7.6779,7.6779,7.6779,7.6599,7.6215,7.5557,7.5108,7.4933,7.4903,7.4903,7.4903,7.4903,7.4903,7.4903,7.4903,7.4903,7.4903,7.4903,7.4903,3.6582,4.0075,4.384,4.384,4.7179,5.0569,5.1147,4.9565,4.8736,5.1523,5.3466,5.4295,5.3096,5.292,5.3096,5.3632,5.3708,5.4486,5.6684,5.7524,5.8102,5.8654,5.9182,5.9483,5.9483,5.9483,5.9483,5.9508,6.0537,6.119,6.119,6.222,6.2781,6.2781,6.2781,6.2781,6.2781,6.2781,6.2781,6.2781,6.2781,6.2781,6.2781,6.2781,6.2781,6.2781,6.2781,6.2781,6.2781,6.2781,6.2781,6.2781,6.2781,6.2781,6.2781,6.2781,6.2781,6.2781,6.2781,6.2781,6.2781,6.2781,6.2781,6.2781,6.2781,6.2781,6.2781,6.2781,6.2781,6.2973,6.355,6.3274,6.2807,6.2807,6.2781,6.2781,6.2781,6.2781,6.2781,6.2781,6.2781,6.3423,6.5437,6.7522,6.956,7.1568,7.3603,7.4903,7.4903,7.4903,7.5138,7.5826,7.642,7.6779,7.6779,7.6779,7.6779,7.6779,7.6245,7.5587,7.4963,7.4903,7.4903,7.4903,7.4903,7.4903,7.4903,7.4903,7.4903,7.4903,7.4903,7.4903,3.9371,4.3212,4.6878,4.7682,4.9464,5.1071,5.128,5.1071,5.087,5.0921,5.3783,5.5717,5.3808,5.411,5.4838,5.5365,5.5139,5.539,5.6784,5.7838,5.8529,5.8666,5.9182,5.9483,5.9483,5.9483,5.9659,6.0035,6.0763,6.1341,6.1743,6.2446,6.2781,6.2781,6.2781,6.2781,6.2781,6.2781,6.2781,6.2781,6.2781,6.2781,6.2781,6.2781,6.2781,6.2781,6.2781,6.2781,6.2781,6.2781,6.2781,6.2781,6.2781,6.2781,6.2781,6.2781,6.2781,6.2781,6.2781,6.2781,6.2781,6.2781,6.2781,6.2781,6.2781,6.2781,6.2781,6.2781,6.3124,6.3475,6.3651,6.3576,6.3425,6.3425,6.3124,6.2781,6.2781,6.2781,6.2781,6.2781,6.2781,6.2985,6.3584,6.6585,6.9075,6.9709,7.2699,7.4903,7.4903,7.4903,7.4993,7.5168,7.5766,7.6185,7.6185,7.6539,7.6599,7.6215,7.6006,7.5826,7.5617,7.5138,7.4903,7.4903,7.4903,7.4903,7.4903,7.4903,7.4903,7.4903,7.4903,7.4903,4.0851,4.4865,4.8912,5.0268,5.1749,5.2804,5.2352,5.2176,5.2026,5.1774,5.4526,5.6659,5.5566,5.5917,5.6495,5.6821,5.6595,5.6696,5.7537,5.8265,5.8805,5.9006,5.9307,5.9483,5.9483,5.9483,5.9734,6.0286,6.0864,6.1416,6.1969,6.248,6.2781,6.2781,6.2781,6.2781,6.2781,6.2781,6.2781,6.2781,6.2781,6.2781,6.2781,6.2781,6.2781,6.2781,6.2781,6.2781,6.2781,6.2781,6.2781,6.2781,6.2781,6.2781,6.2781,6.2781,6.2781,6.2781,6.2781,6.2781,6.2781,6.2781,6.2781,6.2781,6.2781,6.2781,6.2781,6.2781,6.3073,6.345,6.3877,6.3852,6.3701,6.3701,6.3249,6.2781,6.2781,6.2781,6.2781,6.2781,6.2781,6.2781,6.2781,6.6195,6.8888,6.8888,7.2314,7.4903,7.4903,7.4903,7.4903,7.4903,7.5258,7.5497,7.5497,7.6096,7.6305,7.5916,7.5916,7.5916,7.5916,7.5258,7.4903,7.4903,7.4903,7.4903,7.4903,7.4903,7.4903,7.4903,7.4903,7.4903,4.1553,4.5374,4.9739,5.1816,5.3768,5.4913,5.3803,5.274,5.2188,5.3068,5.5032,5.6726,5.7275,5.7587,5.7775,5.7863,5.7976,5.8202,5.8654,5.8716,5.8956,5.9433,5.9483,5.9483,5.9483,5.9483,5.9734,6.0362,6.0889,6.1441,6.2044,6.2546,6.2781,6.2781,6.2781,6.2781,6.2781,6.2781,6.2781,6.2781,6.2781,6.2781,6.2781,6.2781,6.2781,6.2781,6.2781,6.2781,6.2781,6.2781,6.2781,6.2781,6.2781,6.2781,6.2781,6.2781,6.2781,6.2781,6.2781,6.2781,6.2781,6.2781,6.2781,6.2781,6.2781,6.2781,6.2781,6.2781,6.2857,6.3199,6.4245,6.4153,6.3827,6.3827,6.335,6.2857,6.2807,6.2781,6.2781,6.2781,6.2781,6.2781,6.2781,6.6195,6.9,6.9374,7.2557,7.4903,7.4903,7.4903,7.4903,7.4903,7.4903,7.4903,7.4903,7.5437,7.5826,7.5826,7.5826,7.5826,7.5826,7.5198,7.4903,7.4903,7.4963,7.4963,7.4903,7.4963,7.4963,7.4903,7.4903,7.4903,4.3413,4.5552,4.7768,5.2809,5.3739,5.3291,5.274,5.1662,5.0564,4.9985,5.162,5.3191,5.3326,5.5121,5.6863,5.7762,5.8604,5.9056,5.8716,5.9081,5.9357,5.9483,5.9483,5.9483,5.9483,5.9483,5.991,6.0914,6.1115,6.1617,6.2596,6.2731,6.2781,6.2781,6.2781,6.2781,6.2781,6.2781,6.2781,6.2781,6.2781,6.2781,6.2781,6.2781,6.2781,6.2781,6.2781,6.2781,6.2781,6.2781,6.2781,6.2781,6.2781,6.2781,6.2781,6.2781,6.2781,6.2781,6.2781,6.2781,6.2781,6.2781,6.2781,6.2781,6.2781,6.2781,6.2781,6.2781,6.345,6.422,6.4446,6.4748,6.4957,6.4957,6.4203,6.3375,6.2882,6.2781,6.2781,6.2781,6.2781,6.2781,6.2781,6.6195,6.9968,7.3117,7.4357,7.4903,7.4903,7.4903,7.4903,7.4903,7.4903,7.4903,7.4903,7.5053,7.5142,7.5142,7.5142,7.5142,7.5142,7.4993,7.4903,7.4903,7.5407,7.5407,7.4903,7.5437,7.5407,7.4903,7.4903,7.4903,4.3819,4.5259,4.6621,5.1255,5.1958,5.1462,5.1246,5.0048,4.8923,4.8547,5.1259,5.3763,5.4027,5.5423,5.7109,5.8785,5.8826,5.8857,5.9403,5.9709,5.9784,5.9533,5.9483,5.9483,5.9483,5.9734,6.0236,6.1115,6.1441,6.1943,6.2756,6.2781,6.2781,6.2781,6.2781,6.2781,6.2781,6.2781,6.2781,6.2781,6.2781,6.2781,6.2781,6.2781,6.2781,6.2781,6.2781,6.2781,6.2781,6.2781,6.2781,6.2781,6.2781,6.2781,6.2832,6.3149,6.3249,6.3249,6.3249,6.3249,6.3199,6.2882,6.2781,6.2781,6.2781,6.2781,6.2781,6.2781,6.3249,6.3802,6.4371,6.4722,6.4957,6.5233,6.4479,6.3601,6.3299,6.2982,6.2781,6.2781,6.2781,6.2781,6.2781,6.6195,7.0292,7.4288,7.4903,7.4903,7.4903,7.4903,7.4903,7.4903,7.4903,7.4903,7.4903,7.4903,7.4903,7.4903,7.4903,7.4903,7.4903,7.4903,7.4903,7.4903,7.5228,7.5228,7.4903,7.5557,7.5707,7.5377,7.5377,7.5377,4.2188,4.4215,4.6094,4.8774,4.9528,4.955,4.9462,4.8192,4.7154,4.7506,5.1157,5.458,5.548,5.6108,5.7322,5.9879,5.8928,5.8384,6.0072,6.0311,5.9954,5.9028,5.9251,5.9367,5.8954,5.9751,6.0563,6.114,6.1692,6.2245,6.2756,6.2781,6.2781,6.2781,6.2781,6.2781,6.2781,6.2781,6.2781,6.2781,6.2781,6.2781,6.2781,6.2781,6.2781,6.2781,6.2781,6.2781,6.2781,6.2781,6.2781,6.2781,6.2781,6.2781,6.2857,6.3375,6.3601,6.3701,6.3701,6.3701,6.3626,6.3124,6.2857,6.2781,6.2781,6.2781,6.2781,6.2781,6.2932,6.3324,6.427,6.4647,6.4923,6.5333,6.468,6.3927,6.3726,6.3324,6.2907,6.2807,6.2781,6.2904,6.3245,6.6429,7.0181,7.3812,7.4697,7.4903,7.4903,7.4903,7.4903,7.4903,7.4903,7.4903,7.4903,7.4903,7.4903,7.4903,7.4903,7.4903,7.4903,7.4903,7.4903,7.4903,7.5023,7.5023,7.4903,7.5557,7.5916,7.5916,7.5916,7.5976,3.6356,4.1394,4.62,4.7097,4.7585,4.7714,4.7312,4.627,4.5365,4.5424,4.7773,5.0552,5.2914,5.41,5.5975,5.9692,5.922,5.8858,6.0122,6.0311,5.938,5.6949,5.8344,5.8734,5.6828,5.8852,6.0563,6.114,6.1692,6.2245,6.2756,6.2781,6.2781,6.2781,6.2781,6.2781,6.2781,6.2781,6.2781,6.2781,6.2781,6.2781,6.2781,6.2781,6.2781,6.2781,6.2781,6.2781,6.2781,6.2781,6.2781,6.2781,6.2781,6.2781,6.2807,6.2882,6.3249,6.3701,6.3701,6.3701,6.3676,6.3601,6.3249,6.2781,6.2781,6.2781,6.2781,6.2781,6.35,6.432,6.4471,6.5183,6.5911,6.5986,6.5534,6.4831,6.3902,6.3626,6.3425,6.2882,6.2781,6.3367,6.5082,6.733,6.9672,7.1963,7.3777,7.4903,7.4903,7.4903,7.4903,7.4903,7.4903,7.4903,7.4903,7.4903,7.4903,7.4903,7.4903,7.4903,7.4903,7.4903,7.4903,7.4903,7.5467,7.5467,7.4903,7.5557,7.5916,7.5916,7.5916,7.6185,3.3142,3.8959,4.4205,4.3508,4.4361,4.541,4.543,4.4826,4.4433,4.4879,4.6917,4.911,5.0775,5.1808,5.344,5.6508,5.7033,5.7462,5.8677,5.997,5.9648,5.6574,5.8148,5.8617,5.6415,5.8719,6.0563,6.114,6.1692,6.2245,6.2756,6.2781,6.2781,6.2781,6.2781,6.2781,6.2781,6.2781,6.2781,6.2781,6.2781,6.2781,6.2781,6.2781,6.2781,6.2781,6.2781,6.2781,6.2781,6.2781,6.2781,6.2781,6.2781,6.2781,6.2832,6.3199,6.3651,6.4119,6.3802,6.3877,6.4028,6.34,6.3048,6.2781,6.2781,6.2781,6.2857,6.3224,6.3651,6.4178,6.4823,6.5283,6.5735,6.6036,6.5936,6.5534,6.4756,6.4354,6.3977,6.3425,6.3007,6.3423,6.5477,6.7522,6.956,7.1604,7.3638,7.4903,7.4903,7.4903,7.4903,7.4903,7.4903,7.4903,7.4903,7.4903,7.4903,7.4903,7.4903,7.4903,7.4903,7.4903,7.4903,7.4903,7.5168,7.5168,7.4903,7.5557,7.5916,7.5916,7.5916,7.6066,3.1259,3.6135,4.0406,4.0375,4.1641,4.3125,4.4023,4.3945,4.3926,4.4707,4.6152,4.7588,4.8454,4.9773,5.1528,5.3996,5.4644,5.556,5.7615,5.8805,5.8491,5.5879,5.7409,5.781,5.5574,5.8338,6.0512,6.0939,6.1617,6.2195,6.2596,6.2706,6.2781,6.2781,6.2781,6.2781,6.2781,6.2781,6.2781,6.2781,6.2781,6.2781,6.2781,6.2781,6.2781,6.2781,6.2781,6.2781,6.2781,6.2781,6.2781,6.2781,6.2781,6.2781,6.2832,6.3324,6.3902,6.4446,6.4028,6.4228,6.4572,6.355,6.3249,6.3224,6.3099,6.3149,6.335,6.3776,6.3977,6.4279,6.5082,6.5383,6.5609,6.6011,6.6112,6.5961,6.5409,6.4756,6.4195,6.3776,6.3224,6.3286,6.479,6.7176,6.9412,7.0886,7.3293,7.4903,7.4903,7.4903,7.4903,7.4903,7.4903,7.4903,7.4903,7.4903,7.4903,7.4903,7.4903,7.4903,7.4903,7.4903,7.4903,7.4903,7.4903,7.4903,7.4903,7.5377,7.5736,7.5916,7.5916,7.5976,3.0723,3.2385,3.4367,3.8826,4.0312,4.123,4.3281,4.373,4.3848,4.4336,4.4517,4.4856,4.5762,4.8263,5.1145,5.3951,5.2974,5.3452,5.7849,5.634,5.4493,5.3892,5.5346,5.5487,5.3292,5.7477,6.0337,6.0362,6.1391,6.2019,6.2044,6.2505,6.2781,6.2781,6.2781,6.2781,6.2781,6.2781,6.2781,6.2781,6.2781,6.2781,6.2781,6.2781,6.2781,6.2781,6.2781,6.2781,6.2781,6.2781,6.2781,6.2781,6.2781,6.2781,6.2781,6.2832,6.355,6.4496,6.4471,6.4823,6.5157,6.4622,6.4421,6.432,6.3802,6.4002,6.4421,6.4446,6.4806,6.5233,6.5283,6.5685,6.6086,6.6112,6.6112,6.5961,6.5409,6.4479,6.3726,6.3701,6.3224,6.2822,6.2945,6.6234,6.8925,6.9038,7.2414,7.4903,7.4903,7.4903,7.4903,7.4903,7.4903,7.4903,7.4903,7.4903,7.4903,7.4903,7.4903,7.4903,7.4903,7.4903,7.4903,7.4903,7.4903,7.4903,7.4903,7.4963,7.5258,7.5916,7.5916,7.6215,2.8621,3.0713,3.3019,3.5561,3.7519,3.9162,4.0508,4.1465,4.2285,4.2988,4.3808,4.457,4.5156,4.6567,4.8134,4.9369,5.0566,5.1845,5.3405,5.4087,5.367,5.1701,5.4541,5.5683,5.315,5.7085,5.9935,6.0247,6.0688,6.124,6.1969,6.2195,6.243,6.2781,6.2781,6.2998,6.3375,6.3375,6.3375,6.3375,6.3375,6.3375,6.3375,6.3375,6.3576,6.3877,6.3877,6.3475,6.2781,6.2781,6.2781,6.2781,6.2781,6.2781,6.2832,6.3249,6.3852,6.4496,6.4496,6.4873,6.5208,6.4697,6.4496,6.4471,6.4295,6.4371,6.4572,6.4949,6.5132,6.5383,6.5735,6.5961,6.6112,6.6112,6.6112,6.6061,6.586,6.4957,6.422,6.422,6.345,6.2781,6.2781,6.5108,6.7368,6.8699,7.1242,7.3433,7.4731,7.4903,7.4903,7.4903,7.4903,7.4903,7.4903,7.4903,7.4903,7.4903,7.4903,7.4903,7.4903,7.4903,7.4903,7.4903,7.4903,7.4903,7.4903,7.4903,7.5023,7.5258,7.5258,7.5377,2.7272,2.9246,3.1514,3.3223,3.5254,3.7187,3.8476,4.0019,4.1328,4.1894,4.3164,4.4297,4.4726,4.5273,4.5898,4.6601,4.8402,5.0266,5.1872,5.196,5.181,5.1638,5.4085,5.5122,5.3337,5.7181,5.9859,6.0035,6.0211,6.0638,6.1391,6.1793,6.227,6.2781,6.3023,6.3199,6.34,6.34,6.34,6.34,6.34,6.34,6.34,6.34,6.3701,6.4245,6.4245,6.3802,6.3124,6.3124,6.2957,6.2807,6.3007,6.3124,6.3174,6.3751,6.4279,6.4798,6.4798,6.5107,6.5484,6.4931,6.4923,6.4982,6.4848,6.4923,6.5082,6.5459,6.5559,6.566,6.6011,6.6112,6.6112,6.6112,6.6112,6.6112,6.6112,6.5383,6.4722,6.4547,6.3726,6.3048,6.2832,6.4497,6.6273,6.7637,6.9598,7.1604,7.3638,7.3882,7.4154,7.4834,7.4903,7.4903,7.4903,7.4903,7.4903,7.4903,7.4903,7.4903,7.4903,7.4903,7.4903,7.4903,7.4903,7.4903,7.4903,7.4903,7.4903,7.4903,7.4903,7.4903,0.0,0.0,0.0,3.207,3.3652,3.5156,3.7308,3.9492,4.1074,4.1211,4.25,4.3789,4.4297,4.4394,4.4805,4.6035,4.6601,4.8561,5.3482,4.9995,4.8733,5.3696,5.3907,5.3699,5.368,5.7662,6.006,5.9533,5.9985,6.0272,6.0311,6.1391,6.2245,6.2756,6.3375,6.3425,6.2832,6.2832,6.2832,6.2807,6.2807,6.2807,6.2807,6.2807,6.3174,6.3751,6.3751,6.3751,6.3726,6.3726,6.3375,6.2882,6.35,6.3726,6.3776,6.4346,6.4873,6.5283,6.5308,6.566,6.6011,6.5484,6.5685,6.6011,6.5484,6.5685,6.6112,6.6112,6.6112,6.6112,6.6112,6.6112,6.6112,6.6112,6.6112,6.6112,6.6112,6.5685,6.5157,6.4622,6.4094,6.35,6.2882,6.4418,6.5726,6.5804,6.7522,6.956,7.164,7.1891,7.267,7.4697,7.4903,7.4903,7.4903,7.4903,7.4903,7.4903,7.4903,7.4903,7.4903,7.4903,7.4903,7.4903,7.4903,7.4903,7.4903,7.4903,7.4903,7.4903,7.4903,7.4903,2.6973,0.0,0.0,0.0,0.0,0.0,3.5469,3.6562,3.7871,4.0996,4.1758,4.2402,4.4082,4.4394,4.4512,4.4863,4.5547,4.6631,4.8314,4.7614,4.8038,5.1016,5.2327,5.366,5.5317,5.7712,5.9257,5.9483,5.9633,5.991,6.0286,6.1391,6.2069,6.222,6.3174,6.3626,6.345,6.3827,6.3827,6.345,6.345,6.345,6.345,6.345,6.3977,6.4856,6.4856,6.4856,6.4831,6.4471,6.4195,6.4028,6.422,6.4295,6.4371,6.4856,6.5157,6.5358,6.5735,6.5986,6.6086,6.5936,6.5986,6.6086,6.5936,6.5986,6.6112,6.6112,6.6112,6.6112,6.6112,6.6112,6.6112,6.6112,6.6112,6.6112,6.6112,6.5986,6.5609,6.4697,6.4094,6.35,6.2882,6.3245,6.4123,6.5569,6.6312,6.7915,7.1431,7.1891,7.267,7.4697,7.4903,7.4903,7.4903,7.4903,7.4903,7.4903,7.4903,7.4903,7.4903,7.4903,7.4903,7.4903,7.4903,7.4903,7.4903,7.4903,7.4903,7.4903,7.4903,7.4903,2.7246,2.7773,2.8516,2.9434,0.0,0.0,3.334,3.4609,3.6348,3.9746,4.0292,4.0741,4.2695,4.2461,4.2207,4.293,4.3476,4.4572,4.6811,4.6563,4.7058,4.963,5.1685,5.3442,5.4962,5.7467,5.9156,5.9483,5.9307,5.9508,6.0286,6.1165,6.1868,6.2345,6.3224,6.3802,6.4002,6.4145,6.4002,6.3701,6.345,6.3324,6.335,6.3576,6.4153,6.4957,6.5183,6.5434,6.5609,6.5283,6.4923,6.4521,6.4773,6.4806,6.4923,6.5434,6.5634,6.5685,6.5986,6.6112,6.6112,6.6112,6.6112,6.6112,6.6112,6.6112,6.6112,6.6112,6.6112,6.6112,6.6112,6.6112,6.6112,6.6112,6.6112,6.6112,6.6112,6.6112,6.586,6.5024,6.4555,6.4103,6.3324,6.3199,6.3482,6.4403,6.4551,6.6039,7.0116,7.0631,7.1712,7.4598,7.4903,7.4903,7.4903,7.4903,7.4903,7.4903,7.4903,7.4903,7.4903,7.4903,7.4903,7.4903,7.4903,7.4903,7.4903,7.4903,7.4903,7.4903,7.4903,7.4903,2.7604,2.7995,2.8398,2.8781,2.9844,0.0,3.1552,3.3418,3.5625,3.7949,3.8356,3.8787,4.0526,3.9627,3.9119,4.0663,4.1093,4.2724,4.7029,4.5948,4.5912,4.9218,5.1383,5.3025,5.4059,5.7299,5.9332,5.9408,5.8981,5.9131,6.0046,6.0814,6.1642,6.2581,6.3375,6.3977,6.4421,6.3977,6.3751,6.3676,6.3099,6.2781,6.2807,6.3375,6.3927,6.4547,6.4982,6.5534,6.6112,6.6112,6.5534,6.4748,6.5183,6.5383,6.5434,6.5936,6.6112,6.6112,6.6112,6.6112,6.6112,6.6112,6.6112,6.6112,6.6112,6.6112,6.6112,6.6112,6.6112,6.6112,6.6112,6.6112,6.6112,6.6112,6.6112,6.6112,6.6112,6.6112,6.5961,6.5484,6.5333,6.4982,6.3952,6.3776,6.3601,6.3099,6.2948,6.436,6.8469,6.8998,7.0524,7.458,7.5023,7.5023,7.5023,7.4963,7.4903,7.4903,7.4903,7.4903,7.4903,7.4903,7.4903,7.4903,7.4903,7.4903,7.4903,7.4903,7.4903,7.4903,7.4903,7.4903,0.0,0.0,0.0,0.0,0.0,0.0,3.2528,3.2625,3.3281,3.6816,3.6738,3.6543,3.8242,3.8574,3.8728,3.906,4.0292,4.1739,4.3338,4.3173,4.4543,4.8977,4.9544,5.1701,5.7164,5.8008,5.8403,5.8792,5.8742,5.8767,5.8992,6.0387,6.1291,6.1492,6.3324,6.422,6.3852,6.4195,6.4145,6.3676,6.3099,6.2781,6.2781,6.2907,6.3525,6.4521,6.4622,6.5183,6.6112,6.6112,6.5986,6.581,6.5911,6.5936,6.5961,6.6061,6.6112,6.6112,6.6112,6.6112,6.6112,6.6112,6.6112,6.6112,6.6112,6.6112,6.6112,6.6112,6.6112,6.6112,6.6112,6.6112,6.6112,6.6112,6.6112,6.6112,6.6112,6.6112,6.6086,6.5961,6.5584,6.5082,6.4471,6.4346,6.432,6.422,6.3802,6.4978,6.9006,6.9578,7.1182,7.5294,7.5707,7.5707,7.5707,7.5198,7.4903,7.4903,7.4903,7.4903,7.4903,7.4903,7.4903,7.4903,7.4903,7.4903,7.4903,7.4903,7.4903,7.4903,7.4903,7.4903,0.0,0.0,0.0,2.8926,0.0,0.0,0.0,3.166,3.2383,3.5371,3.4824,3.4297,3.5996,3.5801,3.5698,3.6504,3.7383,3.8242,3.9065,4.1406,4.3917,4.6309,4.8479,5.1069,5.4434,5.6382,5.77,5.8278,5.8805,5.9232,5.9469,6.0035,6.0864,6.1969,6.2797,6.3626,6.4479,6.4521,6.4371,6.4078,6.3525,6.3099,6.2807,6.3124,6.3701,6.4521,6.4798,6.5358,6.6112,6.6112,6.6112,6.6112,6.6112,6.6112,6.6112,6.6112,6.6112,6.6112,6.6112,6.6112,6.6112,6.6112,6.6112,6.6112,6.6112,6.6112,6.6112,6.6112,6.6112,6.6112,6.6112,6.6112,6.6112,6.6112,6.6112,6.6112,6.6112,6.6112,6.6112,6.6112,6.5886,6.5534,6.4982,6.4923,6.4823,6.4547,6.4295,6.5585,6.9675,7.0213,7.1831,7.5914,7.6096,7.5916,7.5916,7.5288,7.5053,7.5377,7.5078,7.5053,7.5377,7.5083,7.4903,7.4903,7.4903,7.4903,7.4903,7.4903,7.4903,7.4903,7.4903,7.4903,0.0,0.0,0.0,0.0,0.0,3.0195,0.0,0.0,0.0,3.3496,3.2812,3.2374,3.3711,3.2941,3.2433,3.3535,3.4258,3.4844,3.5215,3.9434,4.2582,4.2922,4.6337,4.9099,5.008,5.3766,5.6548,5.7801,5.8533,5.9267,5.9946,5.9885,6.0638,6.2446,6.2395,6.3199,6.4957,6.453,6.4421,6.4496,6.3827,6.335,6.2998,6.3475,6.3977,6.4547,6.5057,6.5609,6.6112,6.6112,6.6112,6.6112,6.6112,6.6112,6.6112,6.6112,6.6112,6.6112,6.6112,6.6112,6.6112,6.6112,6.6112,6.6112,6.6112,6.6112,6.6112,6.6112,6.6112,6.6112,6.6112,6.6112,6.6112,6.6112,6.6112,6.6112,6.6112,6.6112,6.6112,6.6112,6.6112,6.5961,6.5534,6.5434,6.5308,6.4856,6.4748,6.5986,6.9786,7.0605,7.2292,7.5974,7.6299,7.6275,7.6275,7.5647,7.5497,7.6036,7.5557,7.5497,7.6066,7.5557,7.5172,7.4903,7.5053,7.5053,7.4903,7.4903,7.4903,7.4903,7.4903,7.4903,0.0,0.0,0.0,0.0,2.9844,0.0,3.0195,0.0,3.0918,3.0742,0.0,3.1123,3.1289,0.0,0.0,3.0341,3.2715,3.4219,3.2824,3.5742,3.8564,4.0055,4.072,4.287,4.7493,5.0818,5.413,5.7637,5.7349,5.7572,5.8815,6.0236,6.1115,6.1366,6.2747,6.3626,6.3877,6.3802,6.4002,6.4496,6.3425,6.3149,6.3601,6.3676,6.3977,6.4547,6.5057,6.5609,6.6112,6.6112,6.6112,6.6112,6.6112,6.6112,6.6112,6.6112,6.6112,6.6112,6.6112,6.6112,6.6112,6.6112,6.6112,6.6112,6.6112,6.6112,6.6112,6.6112,6.6112,6.6112,6.6112,6.6112,6.6112,6.6112,6.6112,6.6112,6.6112,6.6112,6.6112,6.6112,6.6112,6.6086,6.6036,6.6011,6.5986,6.5936,6.5509,6.6017,6.8283,7.0278,7.2375,7.4695,7.6523,7.7592,7.7592,7.6993,7.6599,7.6689,7.6629,7.6599,7.6689,7.6599,7.6066,7.4933,7.5467,7.5497,7.4903,7.4903,7.4903,7.4903,7.4903,7.4903,0.0,0.0,0.0,0.0,0.0,0.0,3.0547,0.0,3.0762,0.0,0.0,0.0,0.0,0.0,0.0,0.0,3.0976,3.1836,3.1162,3.25,3.4692,3.7665,3.9534,4.2375,4.7051,4.9154,5.1326,5.3934,5.5562,5.6805,5.7675,5.9307,6.0638,6.1617,6.2044,6.2697,6.3676,6.3701,6.3802,6.4028,6.3852,6.3751,6.3701,6.4002,6.4471,6.4957,6.5183,6.5609,6.6112,6.6112,6.6112,6.6112,6.6112,6.6112,6.6112,6.6112,6.6112,6.6112,6.6112,6.6112,6.6112,6.6112,6.6112,6.6112,6.6112,6.6112,6.6112,6.6112,6.6112,6.6112,6.6112,6.6112,6.6112,6.6112,6.6112,6.6112,6.6112,6.6112,6.6112,6.6112,6.6112,6.6112,6.6112,6.6112,6.6112,6.6112,6.5911,6.6518,6.8602,6.968,7.1539,7.4886,7.5711,7.6489,7.7694,7.7167,7.6958,7.7382,7.7382,7.7233,7.6808,7.6779,7.6539,7.6006,7.6305,7.6305,7.6006,7.6006,7.6006,7.5976,7.5228,7.4903,3.4961,3.4922,3.4609,3.4277,3.3899,3.3215,3.1758,0.0,0.0,0.0,3.0019,0.0,0.0,0.0,0.0,0.0,0.0,2.9648,2.9062,2.9668,3.1445,3.4863,3.7679,4.0817,4.4613,4.5826,4.7605,5.052,5.2695,5.4746,5.6697,5.8077,5.9734,6.1718,6.1542,6.2069,6.345,6.345,6.3525,6.3701,6.3927,6.3902,6.3701,6.4078,6.4479,6.4856,6.5007,6.5283,6.566,6.566,6.566,6.566,6.566,6.576,6.5911,6.6061,6.6112,6.6112,6.6112,6.6112,6.6112,6.6112,6.6112,6.6112,6.6112,6.6112,6.6112,6.6112,6.6112,6.6112,6.6112,6.6112,6.6112,6.6112,6.6112,6.6112,6.6112,6.6112,6.6112,6.6112,6.6112,6.6112,6.6112,6.6112,6.6112,6.6112,6.6112,6.6661,6.8205,6.8929,7.0475,7.3549,7.4021,7.4703,7.6212,7.6421,7.6932,7.8005,7.8071,7.7771,7.7078,7.7227,7.7167,7.6808,7.6958,7.6958,7.6779,7.6779,7.6779,7.6779,7.5856,7.5318,3.7757,3.6289,3.5195,3.7246,3.498,3.2667,3.4199,3.2969,3.1133,0.0,0.0,0.0,0.0,0.0,0.0,0.0,0.0,0.0,0.0,2.7324,2.9199,3.1426,3.3598,3.5947,3.8539,3.9627,4.2627,4.8534,4.8338,5.0415,5.5924,5.6759,5.834,6.1115,6.1718,6.227,6.2807,6.2807,6.3149,6.3676,6.3149,6.3174,6.3701,6.3701,6.3726,6.3776,6.432,6.4547,6.4547,6.4547,6.4547,6.4547,6.4547,6.4898,6.5383,6.5911,6.6112,6.6112,6.6112,6.6112,6.6112,6.6112,6.6112,6.6112,6.6112,6.6112,6.6112,6.6112,6.6112,6.6112,6.6112,6.6112,6.6112,6.6112,6.6112,6.6112,6.6112,6.6112,6.6112,6.6112,6.6112,6.6112,6.6112,6.6112,6.6112,6.6112,6.6112,6.6112,6.6197,6.8022,6.9357,6.948,7.1363,7.2597,7.2676,7.4476,7.65,7.8651,7.8759,7.846,7.7801,7.84,7.813,7.6808,7.7442,7.7472,7.6779,7.6779,7.6779,7.6779,7.6749,7.642,3.9377,3.9316,3.9023,3.9199,3.7598,3.5762,3.4902,3.3262,3.169,0.0,0.0,0.0,0.0,0.0,0.0,0.0,0.0,0.0,0.0,0.0,2.8269,2.9258,0.0,0.0,0.0,3.7598,3.979,4.1938,4.4947,4.808,5.1219,5.3498,5.6395,5.9946,6.0964,6.1718,6.227,6.1071,6.1382,6.3083,6.1708,6.1988,6.3701,6.4094,6.4245,6.427,6.4421,6.4496,6.4496,6.4496,6.4496,6.4496,6.4496,6.4622,6.4848,6.5358,6.581,6.6112,6.6112,6.6112,6.6112,6.6112,6.6112,6.6112,6.6112,6.6112,6.6112,6.6112,6.6112,6.6112,6.6112,6.6112,6.6112,6.6112,6.6112,6.6112,6.6112,6.6112,6.6112,6.6112,6.6112,6.6112,6.6112,6.6112,6.6112,6.6112,6.6112,6.6112,6.6112,6.6746,6.7754,6.9177,6.9972,7.1523,7.4312,7.6484,7.804,7.8753,7.8789,7.8699,7.846,7.8669,7.8579,7.813,7.834,7.834,7.813,7.813,7.813,7.813,7.813,7.7562,4.1426,4.1308,4.1035,4.1406,3.9687,3.7757,3.7324,3.5664,3.4023,3.332,3.2441,0.0,0.0,0.0,0.0,0.0,0.0,0.0,0.0,2.7233,0.0,0.0,0.0,0.0,0.0,0.0,3.7149,3.9421,4.1601,4.4528,4.8434,5.0902,5.3777,5.7112,5.9588,6.0471,5.9563,6.0051,6.0275,6.0302,6.0026,6.0683,6.214,6.2485,6.3119,6.3877,6.3877,6.3877,6.3877,6.3877,6.3877,6.3877,6.3877,6.4002,6.4295,6.4806,6.5333,6.581,6.581,6.5936,6.6112,6.6112,6.6112,6.6112,6.6112,6.6112,6.6112,6.6112,6.6112,6.6112,6.6112,6.6112,6.6112,6.6112,6.6112,6.6112,6.6112,6.6112,6.6112,6.6112,6.6112,6.6112,6.6112,6.6112,6.6112,6.6112,6.6112,6.6112,6.6112,6.6112,6.6618,6.8022,6.819,6.989,7.4119,7.5742,7.721,7.8717,7.8789,7.8789,7.8789,7.8789,7.8669,7.846,7.8669,7.8669,7.843,7.8669,7.8789,7.8789,7.8789,7.834]},{"header":{"parameterUnit":"m.s-1","parameterCategory":1,"la1":30.6,"la2":29.2853,"lo1":-89.7004,"lo2":-87.6739,"dx":0.0162,"dy":0.0183,"nx":112,"ny":82,"refTime":"2022-11-08T06:00:00:Z","depth":0,"parameterNumber":3,"parameterNumberName":"V-component_of_WINDS"},"data":[0.0,0.0,0.0,0.0,0.0,0.0,0.0,0.0,0.0,0.0,0.0,0.0,0.0,0.0,0.0,0.0,0.0,0.0,0.0,0.0,0.0,0.0,0.0,0.0,0.0,0.0,0.0,0.0,0.0,0.0,0.0,0.0,0.0,0.0,0.0,0.0,0.0,0.0,0.0,0.0,0.0,0.0,0.0,0.0,0.0,0.0,0.0,0.0,0.0,0.0,0.0,0.0,0.0,0.0,0.0,0.0,0.0,0.0,0.0,0.0,0.0,0.0,0.0,0.0,0.0,0.0,0.0,0.0,0.0,0.0,0.0,0.0,0.0,0.0,0.0,0.0,0.0,0.0,0.0,0.0,0.0,0.0,0.0,0.0,0.0,0.0,0.0,0.0,0.0,0.0,2.5336,2.6738,2.8164,2.9023,2.9023,2.8327,2.6504,2.3318,0.0,0.0,0.0,0.0,0.0,0.0,0.0,0.0,0.0,0.0,0.0,0.0,0.0,0.0,0.0,0.0,0.0,0.0,0.0,0.0,0.0,0.0,0.0,0.0,0.0,0.0,0.0,0.0,0.0,0.0,0.0,0.0,0.0,0.0,0.0,0.0,0.0,0.0,0.0,0.0,0.0,0.0,0.0,0.0,0.0,0.0,0.0,0.0,0.0,0.0,0.0,0.0,0.0,0.0,0.0,0.0,0.0,0.0,0.0,0.0,0.0,0.0,0.0,0.0,0.0,0.0,0.0,0.0,0.0,0.0,0.0,0.0,0.0,0.0,0.0,0.0,0.0,0.0,0.0,0.0,0.0,0.0,0.0,0.0,0.0,0.0,0.0,0.0,0.0,0.0,0.0,0.0,0.0,0.0,0.0,0.0,0.0,0.0,0.0,0.0,0.0,0.0,0.0,0.0,2.4926,2.8718,2.9344,2.95,2.95,2.9023,2.7129,2.342,0.0,0.0,0.0,0.0,0.0,0.0,0.0,0.0,0.0,0.0,0.0,0.0,0.0,0.0,0.0,0.0,0.0,0.0,0.0,0.0,0.0,0.0,0.0,0.0,0.0,0.0,0.0,0.0,0.0,0.0,0.0,0.0,0.0,0.0,0.0,0.0,0.0,0.0,0.0,0.0,0.0,0.0,0.0,0.0,0.0,0.0,0.0,0.0,0.0,0.0,0.0,0.0,0.0,0.0,0.0,0.0,0.0,0.0,0.0,0.0,0.0,0.0,0.0,0.0,0.0,0.0,0.0,0.0,0.0,0.0,0.0,0.0,0.0,0.0,0.0,0.0,0.0,0.0,0.0,0.0,0.0,0.0,0.0,0.0,0.0,0.0,0.0,0.0,0.0,0.0,0.0,0.0,0.0,0.0,0.0,0.0,0.0,0.0,0.0,0.0,0.0,0.0,0.0,2.5078,2.7305,3.0028,3.0293,3.0204,2.995,2.9512,2.7715,2.4082,2.2637,0.0,0.0,0.0,0.0,0.0,0.0,0.0,0.0,0.0,0.0,0.0,0.0,0.0,0.0,0.0,0.0,0.0,0.0,0.0,0.0,0.0,0.0,0.0,0.0,0.0,0.0,0.0,0.0,0.0,0.0,0.0,0.0,0.0,0.0,0.0,0.0,0.0,0.0,0.0,0.0,0.0,0.0,0.0,0.0,0.0,0.0,0.0,0.0,0.0,0.0,0.0,0.0,0.0,0.0,0.0,0.0,0.0,0.0,0.0,0.0,0.0,0.0,0.0,0.0,0.0,0.0,0.0,0.0,0.0,0.0,0.0,0.0,0.0,0.0,0.0,0.0,0.0,0.0,0.0,0.0,0.0,0.0,0.0,0.0,0.0,0.0,0.0,0.0,0.0,0.0,0.0,0.0,0.0,0.0,0.0,0.0,0.0,0.0,0.0,0.0,0.0,0.0,2.7864,2.9883,3.0801,3.0801,3.0586,3.0234,2.9629,2.7871,2.4606,2.3125,0.0,0.0,0.0,0.0,0.0,0.0,0.0,0.0,0.0,0.0,0.0,0.0,0.0,0.0,0.0,0.0,0.0,0.0,0.0,0.0,0.0,0.0,0.0,0.0,0.0,0.0,0.0,0.0,0.0,0.0,0.0,0.0,0.0,0.0,0.0,0.0,0.0,0.0,0.0,0.0,0.0,0.0,0.0,0.0,0.0,0.0,0.0,0.0,0.0,0.0,0.0,0.0,0.0,0.0,0.0,0.0,0.0,0.0,0.0,0.0,0.0,0.0,0.0,0.0,0.0,0.0,0.0,0.0,0.0,0.0,0.0,0.0,0.0,0.0,0.0,0.0,0.0,0.0,0.0,0.0,0.0,0.0,0.0,0.0,0.0,0.0,0.0,0.0,0.0,0.0,0.0,0.0,0.0,0.0,0.0,0.0,0.0,0.0,0.0,0.0,0.0,0.0,2.875,3.1211,3.0918,3.0508,3.0234,3.0195,2.9082,2.7246,2.4567,2.2852,0.0,0.0,0.0,0.0,0.0,0.0,0.0,0.0,0.0,0.0,0.0,0.0,0.0,0.0,0.0,0.0,0.0,0.0,0.0,0.0,0.0,0.0,0.0,0.0,0.0,0.0,0.0,0.0,0.0,0.0,0.0,0.0,0.0,0.0,0.0,0.0,0.0,0.0,0.0,0.0,0.0,0.0,0.0,0.0,0.0,0.0,0.0,0.0,0.0,0.0,0.0,0.0,0.0,0.0,0.0,0.0,0.0,0.0,0.0,0.0,0.0,0.0,0.0,0.0,0.0,0.0,0.0,0.0,0.0,0.0,0.0,0.0,0.0,0.0,0.0,0.0,0.0,0.0,0.0,0.0,0.0,0.0,0.0,0.0,0.0,0.0,0.0,0.0,0.0,0.0,0.0,0.0,0.0,0.0,0.0,0.0,0.0,0.0,0.0,0.0,0.0,0.0,2.9297,3.1465,3.2383,3.207,3.1719,3.1475,3.0742,2.882,2.5425,0.0,0.0,0.0,0.0,0.0,0.0,0.0,0.0,0.0,0.0,0.0,0.0,0.0,0.0,0.0,0.0,0.0,0.0,0.0,0.0,0.0,0.0,0.0,0.0,0.0,0.0,0.0,0.0,0.0,0.0,0.0,0.0,0.0,0.0,0.0,0.0,0.0,0.0,0.0,0.0,0.0,0.0,0.0,0.0,0.0,0.0,0.0,0.0,0.0,0.0,0.0,0.0,0.0,0.0,0.0,0.0,0.0,0.0,0.0,0.0,0.0,0.0,0.0,0.0,0.0,0.0,0.0,0.0,0.0,0.0,0.0,0.0,0.0,0.0,0.0,0.0,0.0,0.0,0.0,0.0,0.0,0.0,0.0,0.0,0.0,0.0,0.0,0.0,0.0,0.0,0.0,0.0,0.0,0.0,0.0,0.0,0.0,0.0,0.0,0.0,0.0,0.0,2.7402,2.9902,3.1934,3.3105,3.2851,3.2511,3.2218,3.1523,2.9659,2.6323,0.0,0.0,0.0,0.0,0.0,0.0,0.0,0.0,0.0,0.0,0.0,0.0,0.0,0.0,0.0,0.0,0.0,0.0,0.0,0.0,0.0,0.0,0.0,0.0,0.0,0.0,0.0,0.0,0.0,0.0,0.0,0.0,0.0,0.0,0.0,0.0,0.0,0.0,0.0,0.0,0.0,0.0,0.0,0.0,0.0,0.0,0.0,0.0,0.0,0.0,0.0,0.0,0.0,0.0,0.0,0.0,0.0,0.0,0.0,0.0,0.0,0.0,0.0,0.0,0.0,0.0,0.0,0.0,0.0,0.0,0.0,0.0,0.0,0.0,0.0,0.0,0.0,0.0,0.0,0.0,0.0,0.0,0.0,0.0,0.0,0.0,0.0,0.0,0.0,0.0,0.0,0.0,0.0,0.0,0.0,0.0,0.0,0.0,0.0,0.0,0.0,0.0,2.7513,3.0664,3.2812,3.2812,3.2452,3.2218,3.2218,3.0976,2.9316,0.0,0.0,0.0,0.0,0.0,0.0,0.0,0.0,0.0,0.0,0.0,0.0,0.0,0.0,0.0,0.0,0.0,0.0,0.0,0.0,0.0,0.0,0.0,0.0,0.0,0.0,0.0,0.0,0.0,0.0,0.0,0.0,0.0,0.0,0.0,0.0,0.0,0.0,0.0,0.0,0.0,0.0,0.0,0.0,0.0,0.0,0.0,0.0,0.0,0.0,0.0,0.0,0.0,0.0,0.0,0.0,0.0,0.0,0.0,0.0,0.0,0.0,0.0,0.0,0.0,0.0,0.0,0.0,0.0,0.0,0.0,0.0,0.0,0.0,0.0,0.0,0.0,0.0,0.0,0.0,0.0,0.0,0.0,0.0,0.0,0.0,0.0,0.0,0.0,0.0,0.0,0.0,0.0,0.0,0.0,0.0,0.0,0.0,0.0,0.0,0.0,0.0,0.0,2.9169,3.1543,3.3359,3.3672,3.3301,3.3047,3.3047,3.2422,3.0859,2.8086,0.0,0.0,0.0,0.0,0.0,0.0,0.0,0.0,0.0,0.0,0.0,0.0,0.0,0.0,0.0,0.0,0.0,0.0,0.0,0.0,0.0,0.0,0.0,0.0,0.0,0.0,0.0,0.0,0.0,0.0,0.0,0.0,0.0,0.0,0.0,0.0,0.0,0.0,0.0,0.0,0.0,0.0,0.0,0.0,0.0,0.0,0.0,0.0,0.0,0.0,0.0,0.0,0.0,0.0,0.0,0.0,0.0,0.0,0.0,0.0,0.0,0.0,0.0,0.0,0.0,0.0,0.0,0.0,0.0,0.0,0.0,0.0,0.0,0.0,0.0,0.0,0.0,0.0,0.0,0.0,0.0,0.0,0.0,0.0,0.0,0.0,0.0,0.0,0.0,0.0,0.0,0.0,0.0,0.0,0.0,0.0,0.0,0.0,0.0,0.0,0.0,0.0,3.0486,3.3493,3.5759,3.6029,3.5389,3.4889,3.4727,3.3879,3.2246,2.9746,0.0,0.0,0.0,0.0,0.0,0.0,0.0,0.0,0.0,0.0,0.0,0.0,0.0,0.0,0.0,0.0,0.0,0.0,0.0,0.0,0.0,0.0,0.0,0.0,0.0,0.0,0.0,0.0,0.0,0.0,0.0,0.0,0.0,0.0,0.0,0.0,0.0,0.0,0.0,0.0,0.0,0.0,0.0,0.0,0.0,0.0,0.0,0.0,0.0,0.0,0.0,0.0,0.0,0.0,0.0,0.0,0.0,0.0,0.0,0.0,0.0,0.0,0.0,0.0,0.0,0.0,0.0,0.0,0.0,0.0,0.0,0.0,0.0,0.0,0.0,0.0,0.0,0.0,0.0,0.0,0.0,0.0,0.0,0.0,0.0,0.0,0.0,0.0,0.0,0.0,0.0,0.0,0.0,0.0,0.0,0.0,0.0,0.0,0.0,0.0,0.0,0.0,3.1796,3.6022,3.9068,3.9068,3.8099,3.7308,3.701,3.5439,3.3709,3.1899,0.0,0.0,0.0,0.0,0.0,0.0,0.0,0.0,0.0,0.0,0.0,0.0,0.0,0.0,0.0,0.0,0.0,0.0,0.0,0.0,0.0,0.0,0.0,0.0,0.0,0.0,0.0,0.0,0.0,0.0,0.0,0.0,0.0,0.0,0.0,0.0,0.0,0.0,0.0,0.0,0.0,0.0,0.0,0.0,0.0,0.0,0.0,0.0,0.0,0.0,0.0,0.0,0.0,0.0,0.0,0.0,0.0,0.0,0.0,0.0,3.1642,2.7444,0.0,0.0,0.0,0.0,0.0,0.0,0.0,0.0,0.0,0.0,0.0,0.0,0.0,0.0,0.0,0.0,0.0,0.0,0.0,0.0,0.0,0.0,0.0,0.0,0.0,0.0,0.0,0.0,0.0,0.0,0.0,0.0,0.0,0.0,0.0,0.0,0.0,0.0,0.0,0.0,3.4696,3.7628,3.9707,3.9707,3.9062,3.8781,3.9192,3.8069,3.6376,3.4143,3.3098,0.0,0.0,0.0,0.0,0.0,0.0,0.0,0.0,0.0,0.0,0.0,0.0,0.0,0.0,0.0,0.0,0.0,0.0,0.0,0.0,0.0,0.0,0.0,0.0,0.0,0.0,0.0,0.0,0.0,0.0,0.0,0.0,0.0,0.0,0.0,0.0,0.0,0.0,0.0,0.0,0.0,0.0,0.0,0.0,0.0,0.0,0.0,0.0,0.0,0.0,0.0,0.0,0.0,0.0,0.0,0.0,0.0,0.0,0.0,3.3796,3.1738,0.0,0.0,0.0,0.0,0.0,0.0,0.0,0.0,0.0,0.0,0.0,0.0,0.0,0.0,0.0,0.0,0.0,0.0,0.0,0.0,0.0,0.0,0.0,0.0,0.0,0.0,0.0,0.0,0.0,0.0,0.0,0.0,0.0,0.0,0.0,0.0,0.0,0.0,0.0,0.0,3.8189,4.1036,4.2983,4.2983,4.2201,4.1615,4.1476,4.0143,3.88,3.7562,3.602,0.0,0.0,0.0,0.0,0.0,0.0,0.0,0.0,0.0,0.0,0.0,0.0,0.0,0.0,0.0,0.0,0.0,0.0,0.0,0.0,0.0,0.0,0.0,0.0,0.0,0.0,0.0,0.0,0.0,0.0,0.0,0.0,0.0,0.0,0.0,0.0,0.0,0.0,0.0,0.0,0.0,0.0,0.0,0.0,0.0,0.0,0.0,0.0,0.0,0.0,0.0,0.0,0.0,3.666,3.6987,3.7088,3.7589,3.7839,3.7738,3.608,3.6658,3.8391,3.3897,0.0,0.0,0.0,0.0,0.0,0.0,0.0,0.0,0.0,0.0,0.0,0.0,0.0,0.0,0.0,0.0,0.0,0.0,0.0,0.0,0.0,0.0,3.8115,3.8668,3.9848,4.0115,3.7459,0.0,0.0,0.0,0.0,0.0,0.0,0.0,0.0,0.0,0.0,0.0,4.1643,4.4507,4.6451,4.6451,4.5435,4.4467,4.3704,4.2163,4.1134,4.0975,3.8549,3.6534,0.0,0.0,0.0,0.0,0.0,0.0,0.0,0.0,0.0,0.0,0.0,0.0,0.0,0.0,0.0,0.0,0.0,0.0,0.0,0.0,0.0,0.0,0.0,0.0,0.0,0.0,0.0,0.0,0.0,0.0,0.0,0.0,2.6163,2.89,0.0,0.0,0.0,0.0,0.0,0.0,0.0,0.0,0.0,0.0,0.0,0.0,0.0,3.4828,3.6508,3.7663,3.9245,4.1205,4.2233,4.2961,4.341,4.3485,4.351,4.3438,4.1808,0.0,3.809,3.7914,0.0,0.0,0.0,0.0,0.0,0.0,0.0,0.0,0.0,0.0,0.0,0.0,0.0,0.0,0.0,0.0,0.0,0.0,0.0,0.0,0.0,0.0,4.4446,4.497,4.5271,4.5288,4.4869,4.0267,3.6003,3.5308,3.5986,3.6457,0.0,0.0,0.0,0.0,0.0,0.0,4.4111,4.5805,4.6998,4.6998,4.6045,4.5525,4.5849,4.4769,4.3692,4.28,4.0899,3.8799,3.6516,3.4064,0.0,0.0,0.0,0.0,0.0,0.0,0.0,0.0,0.0,0.0,0.0,0.0,0.0,0.0,0.0,0.0,0.0,0.0,0.0,0.0,0.0,0.0,0.0,0.0,0.0,0.0,0.0,0.0,0.0,2.5301,2.7713,3.0783,3.0131,2.9352,0.0,0.0,0.0,0.0,0.0,0.0,0.0,0.0,0.0,3.7086,3.7688,3.8919,4.0877,4.1379,4.216,4.3115,4.3564,4.4091,4.4589,4.4589,4.4589,4.4564,4.4192,4.3366,4.2133,4.1155,4.0477,3.9949,0.0,0.0,0.0,0.0,3.613,3.6457,3.7161,3.8894,4.0527,3.9194,0.0,0.0,0.0,0.0,0.0,0.0,0.0,3.9747,4.1254,4.3087,4.4844,4.6024,4.6301,4.6225,4.5924,4.379,4.1595,4.0413,4.0308,4.0301,3.9749,4.0174,0.0,0.0,0.0,4.5167,4.6753,4.7606,4.8058,4.8058,4.7662,4.7305,4.7205,4.6471,4.5949,4.5804,4.4442,4.2902,4.1188,3.8339,3.5414,0.0,0.0,0.0,0.0,0.0,0.0,0.0,0.0,0.0,0.0,0.0,0.0,0.0,0.0,0.0,0.0,0.0,0.0,0.0,0.0,0.0,0.0,0.0,0.0,0.0,0.0,0.0,0.0,2.8065,2.9999,3.3273,3.3018,3.2591,0.0,0.0,0.0,0.0,0.0,0.0,3.6158,3.6686,3.8216,4.0877,4.1354,4.2331,4.3991,4.4016,4.4166,4.4443,4.4443,4.4794,4.5443,4.5443,4.5443,4.5468,4.5924,4.61,4.5949,4.4044,4.3391,4.3567,4.2889,4.1758,4.0501,4.025,4.025,4.0426,4.0853,4.2185,4.3567,4.2958,4.2986,4.3014,4.1731,0.0,0.0,0.0,0.0,4.193,4.3589,4.4418,4.5171,4.6426,4.6728,4.6602,4.62,4.6326,4.61,4.4719,4.4217,4.3843,4.3165,4.3137,0.0,4.5447,4.5799,4.6652,4.8743,4.8894,4.8793,4.8793,4.8667,4.8385,4.7933,4.7525,4.7525,4.8109,4.6829,4.5735,4.5024,4.2057,3.9011,3.5945,0.0,0.0,0.0,0.0,0.0,0.0,0.0,0.0,0.0,0.0,0.0,0.0,0.0,0.0,0.0,0.0,0.0,0.0,0.0,0.0,0.0,0.0,0.0,0.0,0.0,0.0,0.0,0.0,0.0,3.7312,3.9044,0.0,0.0,0.0,0.0,3.6205,3.6733,3.799,4.0098,4.0725,4.2055,4.4263,4.4364,4.4439,4.4564,4.4564,4.5091,4.6175,4.6175,4.6728,4.7732,4.7732,4.7732,4.7757,4.7782,4.7782,4.7707,4.6577,4.5799,4.5246,4.4141,4.3338,4.2889,4.3363,4.389,4.4539,4.6145,4.7074,4.7531,4.6973,4.6471,4.5799,4.4141,4.3589,0.0,0.0,4.2783,4.4414,4.4514,4.6125,4.7732,4.7807,4.7832,4.7832,4.7782,4.74,4.6873,4.6301,4.6547,4.6547,4.5497,0.0,4.7908,4.6476,4.8033,4.9389,4.954,4.912,4.8793,4.8793,4.8284,4.7933,4.7908,4.7883,4.8109,4.8718,4.6663,4.5669,4.6105,4.3405,4.1045,3.9205,3.6539,0.0,0.0,0.0,0.0,0.0,0.0,0.0,0.0,0.0,0.0,0.0,0.0,0.0,0.0,0.0,0.0,0.0,0.0,0.0,0.0,0.0,0.0,0.0,0.0,0.0,0.0,0.0,0.0,3.7663,3.8868,0.0,3.8944,3.932,4.0007,4.0964,4.1969,4.328,4.5045,4.5306,4.55,4.5703,4.7639,4.7725,4.5698,4.8066,4.8981,4.8347,4.9406,5.0274,5.0993,5.0993,5.04,4.9456,4.9845,5.0239,5.0612,5.0612,4.942,4.7637,4.7556,4.7405,4.7255,4.7456,4.7657,4.7908,4.851,4.8837,4.8912,4.836,4.8058,4.7707,4.6728,4.6451,4.6401,4.6175,4.6677,4.738,4.7732,4.841,4.8987,4.8987,4.8987,4.8887,4.8535,4.8586,4.856,4.8008,4.7757,4.7857,4.8535,4.9012,4.9213,4.8987,4.9314,4.959,4.959,4.9414,4.9289,4.9289,4.9113,4.8987,4.8987,4.8661,4.8743,4.9264,4.8551,4.8204,4.8369,4.6335,4.4188,4.2023,3.9322,3.5922,0.0,0.0,0.0,0.0,0.0,0.0,0.0,0.0,0.0,0.0,0.0,0.0,0.0,0.0,0.0,0.0,0.0,0.0,0.0,0.0,0.0,0.0,0.0,0.0,0.0,3.4675,3.6609,3.8617,3.9848,4.0627,4.0802,4.1938,4.3224,4.4626,4.6112,4.751,4.8718,4.8934,4.8879,4.8465,5.0443,5.0528,4.8462,5.0937,5.1724,5.0871,5.1945,5.2734,5.3258,5.3481,5.3006,5.2021,5.2887,5.3482,5.3916,5.4723,5.3959,5.2259,5.1981,5.149,5.103,5.103,5.0669,5.0167,5.0167,5.0042,4.9816,4.9439,4.9245,4.9019,4.8586,4.8485,4.856,4.8969,4.9095,4.917,4.949,4.9741,4.9866,4.9866,5.0017,5.0067,4.9723,4.9916,5.0067,4.9723,4.9012,4.8711,4.9439,4.9264,4.9088,4.9257,4.8837,4.8611,4.8987,4.9188,4.9389,4.9565,4.9766,4.9866,4.9866,4.9188,4.912,4.9816,4.9515,4.9565,5.0142,4.8158,4.6159,4.4318,4.0538,3.6761,3.2996,0.0,0.0,0.0,0.0,0.0,0.0,0.0,0.0,0.0,0.0,0.0,0.0,0.0,0.0,0.0,0.0,0.0,0.0,0.0,0.0,0.0,0.0,0.0,3.6467,3.8466,4.0052,4.0708,4.2672,4.4159,4.4684,4.6139,4.7064,4.7092,4.8927,5.0325,5.1017,5.1543,5.2097,5.2706,5.282,5.2821,5.2734,5.2876,5.3181,5.3647,5.3733,5.4065,5.4673,5.5257,5.5534,5.5559,5.6845,5.7435,5.7546,5.8681,5.9213,5.9078,5.7172,5.543,5.3975,5.3975,5.2926,5.1473,5.1473,5.1087,5.0544,5.0486,5.0167,4.9715,4.969,4.9665,4.9665,4.9665,4.964,4.964,4.964,5.0042,5.0444,5.0444,5.087,5.1306,5.1306,5.1306,5.1306,5.1306,5.0393,4.9289,4.8209,4.8008,4.7832,4.7299,4.6772,0.0,4.7883,4.8542,4.9069,4.954,5.0117,5.0411,5.0393,4.9464,4.9314,5.0343,4.9439,4.9597,5.123,4.8686,4.6833,4.5978,4.0125,3.675,3.5982,0.0,0.0,0.0,0.0,0.0,0.0,0.0,0.0,0.0,0.0,0.0,0.0,0.0,0.0,0.0,0.0,0.0,0.0,0.0,0.0,0.0,4.0682,4.2375,4.1729,4.1766,4.3253,4.6894,4.7514,4.7703,4.7866,4.9036,5.0216,5.1302,5.2101,5.3077,5.4315,5.4513,5.4177,5.3315,5.5443,5.5554,5.3286,5.6447,5.7794,5.7278,5.8957,6.0089,6.0705,6.0881,6.0294,5.9221,5.9594,6.0053,6.0512,6.0855,6.1932,6.3104,6.0115,5.8709,5.829,5.829,5.7174,5.5658,5.5658,5.4689,5.3356,5.2929,5.2703,5.2427,5.1649,5.1423,5.1322,5.0921,5.082,5.082,5.082,5.0921,5.1046,5.1046,5.1172,5.1306,5.1306,5.1306,5.1306,5.1306,5.1054,5.072,5.0419,5.0368,5.0318,5.0167,5.0017,5.0017,5.0318,5.0527,5.0376,4.9665,5.082,5.1147,4.9916,5.067,5.0971,5.0411,5.0519,5.0619,5.0645,5.0318,4.8581,4.5279,3.9943,3.6833,0.0,0.0,0.0,0.0,0.0,0.0,0.0,0.0,0.0,0.0,0.0,0.0,0.0,0.0,0.0,0.0,0.0,0.0,0.0,0.0,0.0,0.0,4.4536,4.7122,4.7144,4.6335,4.6776,4.958,4.9881,4.9937,5.0159,5.1651,5.2927,5.3796,5.4584,5.5497,5.6643,5.6727,5.6574,5.6279,5.7989,5.8219,5.6681,5.9224,6.0237,5.9739,6.1067,6.2032,6.2718,6.3228,6.3119,6.2553,6.3405,6.3993,6.4345,6.4639,6.5339,6.5979,0.0,0.0,0.0,0.0,5.8504,5.7587,5.7587,5.6758,5.5618,5.5277,5.4671,5.3954,5.3346,5.2809,5.2377,5.2076,5.1975,5.1975,5.1975,5.2126,5.2302,5.2302,5.2512,5.2687,5.2687,5.2687,5.2687,5.2687,5.2687,0.0,5.2687,5.1532,5.0494,5.0301,5.0049,5.0042,5.0519,5.077,5.077,5.0343,5.1373,5.1724,5.072,5.1096,0.0,0.0,0.0,5.0569,4.9766,5.0268,0.0,0.0,0.0,3.8863,3.8055,3.6008,0.0,0.0,3.2335,3.125,0.0,0.0,0.0,0.0,0.0,0.0,0.0,0.0,0.0,0.0,0.0,0.0,0.0,0.0,0.0,0.0,4.6876,5.0585,5.232,5.1477,5.0675,5.0619,5.1149,5.1709,5.224,5.4081,5.5251,5.5251,5.6527,5.7633,5.8294,5.8324,0.0,0.0,0.0,6.0505,6.1076,6.1253,6.1373,6.1433,6.1583,6.2002,6.269,6.3827,6.4665,6.5323,6.7178,6.7987,6.8047,6.8704,6.8585,6.7808,6.5951,6.3946,6.1872,5.9783,5.8895,5.8737,5.8737,0.0,0.0,5.7712,5.664,5.5383,5.533,5.4604,5.374,5.3525,5.344,5.3346,5.3215,5.3507,5.3808,5.3808,5.4185,5.4597,5.4597,5.4597,5.4597,5.4597,5.4597,5.4597,5.4597,5.2135,4.9992,4.9522,4.8987,4.9012,5.0017,5.0569,5.1046,5.1423,5.2076,0.0,5.2126,5.1348,5.1021,5.1348,5.082,5.0092,4.922,4.9396,4.7991,4.4719,4.328,4.2056,4.1081,3.8955,3.8341,3.9101,3.4805,3.3899,0.0,0.0,0.0,0.0,0.0,0.0,0.0,0.0,0.0,0.0,0.0,0.0,0.0,0.0,0.0,4.9343,5.2472,5.4998,5.5355,5.5597,5.5532,5.5056,5.5115,5.5414,5.6008,5.6927,5.7476,5.7476,5.825,5.9009,5.9668,5.9697,6.0086,6.0894,6.0924,6.0984,6.1076,6.2181,6.2959,6.3468,6.4545,0.0,6.6041,6.6311,6.649,6.667,6.7598,6.7987,6.8047,6.8704,6.8585,6.7928,6.6969,6.6337,6.5882,6.5457,6.4345,6.3054,6.3054,6.2065,6.0772,6.0772,6.0513,6.0164,5.9737,5.9451,0.0,5.7523,5.6796,5.6218,5.5188,5.4662,5.4446,5.4446,5.4522,5.4597,5.4597,5.4597,5.4597,5.4597,5.4597,5.4597,5.4597,5.4069,5.3592,5.3491,5.3391,5.3391,5.3617,5.3718,5.3457,5.2703,5.3884,5.4034,5.2251,5.313,5.3256,5.2026,5.1423,5.1222,5.1448,4.9996,4.8879,4.814,4.6755,4.4784,4.2276,4.1902,4.0858,3.916,3.7559,3.7226,0.0,0.0,0.0,0.0,0.0,0.0,0.0,0.0,0.0,0.0,0.0,4.6411,4.6741,0.0,5.1917,5.2582,5.5209,5.7154,5.7154,5.7423,5.7363,5.6731,5.6944,5.7274,5.7573,5.8231,5.874,5.9069,5.9398,5.9877,6.0565,6.0595,6.0924,6.1583,6.1942,6.2241,6.257,6.3558,6.4216,6.4515,6.5174,6.5862,6.652,6.6849,6.7178,6.7568,6.8586,6.9185,6.9453,6.9812,6.9572,6.8945,6.8256,6.7388,6.646,6.6131,6.5436,6.4639,6.4639,6.405,6.3296,6.3296,6.2926,6.2384,6.2106,6.1631,6.102,6.0111,5.9002,5.7938,5.7297,5.6259,5.5465,5.5742,5.5792,5.5867,5.6168,5.6244,5.6244,5.6244,5.5993,5.5792,5.5792,5.5566,5.5225,5.4672,5.4597,5.4597,5.4597,5.4597,5.4396,5.3808,5.4486,5.4572,5.3466,5.412,5.412,5.298,5.2402,5.2101,5.2101,5.1141,5.0602,5.0602,4.9215,4.7784,4.6289,4.5347,4.3795,4.1678,4.1991,4.0997,0.0,0.0,0.0,0.0,0.0,0.0,0.0,4.4796,4.5762,4.698,4.8087,4.9045,4.9726,5.1768,5.3713,5.479,5.6829,5.8294,5.8294,5.8294,5.8085,5.7543,5.7846,5.8145,5.8264,5.8919,5.9518,6.0057,6.0206,6.0595,6.1253,6.1433,6.1792,6.245,6.3109,6.3707,6.4186,6.4845,6.5203,6.5203,6.5443,6.5892,6.64,6.7089,6.7657,6.8287,6.9572,7.044,7.0889,7.0889,7.053,6.9901,6.9243,6.8016,6.652,6.5802,6.5503,6.5383,6.5383,6.5383,6.5413,6.5532,6.4949,6.4239,6.4384,6.3769,6.2988,6.2733,6.1528,6.0192,5.9554,5.8238,5.7097,5.7172,5.7161,5.7286,5.7801,5.7901,5.7901,5.7901,5.7524,5.7161,5.7161,5.6846,5.6168,5.5074,5.4924,5.4924,5.4924,5.4924,5.4924,5.4924,5.4924,5.4924,5.4924,5.4924,5.4687,5.421,5.3773,5.3347,5.2929,5.2703,5.2578,5.2578,5.1251,5.0327,4.9854,4.8236,4.6388,4.4417,4.5704,4.3814,3.7836,3.8751,4.0636,4.2051,4.3469,4.5514,0.0,4.986,5.0398,5.3473,5.4192,5.4521,5.5204,5.6466,5.7487,5.7636,5.8384,5.9009,5.9009,5.9009,5.8979,5.889,5.8414,5.8324,5.8949,5.9578,5.9997,6.0086,6.0655,6.1283,6.1942,6.254,6.3139,6.3767,6.4455,6.4815,6.4874,6.5532,6.5892,6.5922,6.7089,6.7718,6.7808,6.8465,6.8824,6.8944,7.0231,7.0829,7.0889,7.0889,7.053,6.9901,6.9243,6.8854,6.8585,6.7928,6.7299,6.6759,6.6759,6.6759,6.6879,6.7479,6.7594,6.7588,6.8182,6.8264,6.7966,6.6776,6.5984,6.4798,6.1943,6.0721,5.9799,5.8162,5.7801,5.7826,5.7876,5.7901,5.7901,5.7901,5.7851,5.7801,5.7801,5.775,5.7323,5.6194,5.6018,5.6018,5.6018,5.6018,5.6018,5.6018,5.6018,5.6018,5.6018,5.6018,5.5993,5.5942,5.5867,5.5817,5.5742,5.4813,5.4321,5.4321,5.3173,5.1501,4.9377,4.9143,4.7829,4.5529,4.5711,4.3836,4.3449,4.321,4.3629,4.769,4.8416,4.8873,5.1708,5.2755,5.3503,5.491,5.5777,5.6376,5.6671,5.7812,5.883,5.9189,5.9488,5.9668,5.9668,5.9338,5.9249,5.9638,5.9428,5.9368,5.9638,6.0296,6.0835,6.1224,6.1523,6.2121,6.3139,6.3468,6.3917,6.4545,6.5203,6.5562,6.5562,6.664,6.7148,6.7178,6.8106,6.8555,6.8585,6.8854,6.9213,6.9632,7.053,7.0889,7.0919,7.1308,7.1098,7.05,7.0231,6.9901,6.9482,6.8824,6.8405,6.8166,6.8166,6.8166,6.8196,6.8495,6.8555,6.8615,6.8914,6.9004,6.8875,6.838,6.7294,6.6003,6.4648,6.3334,6.2269,6.1799,6.0807,6.009,6.0453,5.9616,5.883,5.883,5.8579,5.8378,5.8378,5.8102,5.775,5.7273,5.7198,5.7198,5.7198,5.6897,5.6659,5.6659,5.6997,5.7198,5.7198,5.7198,5.7047,5.6684,5.6659,5.6508,5.6219,5.5767,5.5516,5.5516,5.5064,5.4181,5.2839,5.2839,5.1571,4.9171,5.0306,4.8889,4.689,4.6741,4.689,5.1941,5.2516,5.2282,5.3917,5.5055,5.5777,5.5957,5.6885,5.7663,5.7663,5.859,5.9458,5.9757,5.9817,5.9817,5.9817,5.9548,5.9548,6.0054,6.0416,6.0625,6.0625,6.1104,6.1642,6.2331,6.254,6.3109,6.4216,6.4455,6.4784,6.5263,6.5951,6.637,6.655,6.7508,6.8107,6.8287,6.8944,6.9273,6.9273,6.9453,6.9782,7.026,7.0919,7.1068,7.0949,7.1607,7.1487,7.0889,7.0889,7.062,7.0171,6.9692,6.9303,6.9004,6.9004,6.9004,6.9034,6.9213,6.9273,6.9303,6.9482,6.9512,6.9512,6.9512,6.8587,6.7454,6.6958,6.5827,6.4818,6.4679,6.3154,6.1859,6.2307,6.0862,5.9483,5.9483,5.9207,5.893,5.893,5.8604,5.8328,5.8328,5.8328,5.8278,5.8127,5.7876,5.7688,5.7688,5.8077,5.8328,5.8328,5.8328,5.8152,5.7713,5.7688,5.7524,5.7148,5.6846,5.6746,5.6897,5.6445,5.6093,5.5842,5.5691,5.4604,5.2683,5.413,5.3215,4.5642,4.7728,4.9786,5.251,5.4635,5.6192,5.6825,5.7004,5.7244,5.7876,5.856,5.9039,5.9039,5.9608,5.9847,5.9249,5.9129,5.9129,5.9129,5.9668,6.0084,6.0114,6.1253,6.2032,6.2032,6.2061,6.2331,6.3018,6.3588,6.4246,6.4934,6.5562,6.5951,6.5981,6.661,6.7268,6.7928,6.7987,6.8347,6.8974,6.9632,6.9961,6.9993,7.056,7.0859,7.0919,7.1577,7.1487,7.0949,7.1607,7.1487,7.0889,7.0889,7.0889,7.0859,7.0859,7.0051,6.9004,6.9004,6.9004,6.9123,6.9752,6.9961,7.0083,7.0649,7.0829,7.0829,7.0829,7.0797,7.0343,6.8528,6.7991,6.7513,6.5647,6.3739,6.2386,6.2413,6.0862,5.9483,5.9483,5.9483,5.9483,5.9483,5.9458,5.9433,5.9433,5.9433,5.9257,5.8768,5.9106,5.9408,5.9408,5.9433,5.9433,5.9433,5.9433,5.9433,5.9433,5.9408,5.9408,5.9382,5.8403,5.8102,5.8591,5.7047,5.647,5.6935,5.6408,5.5856,5.5293,5.5365,5.5028,5.0601,5.2037,5.3054,5.5239,5.6944,5.8171,5.8381,5.9129,5.9697,5.9458,5.9608,5.9608,5.9189,6.0027,6.0535,5.9877,6.0505,6.1104,6.1104,6.1283,6.1732,6.257,6.3079,6.3707,6.4605,6.3887,6.3438,6.3677,6.4306,6.4934,6.5652,6.5892,6.6191,6.664,6.7298,6.7778,6.7987,6.8886,6.9454,6.9662,7.029,7.059,7.059,7.0799,7.1128,7.1577,7.1787,7.2026,7.2265,7.2475,7.2176,7.1547,7.1547,7.1278,7.0889,7.0889,7.062,7.026,7.026,7.026,7.029,7.053,7.059,7.062,7.0829,7.0889,7.0889,7.0889,7.0889,7.0759,7.014,6.9946,6.9781,6.9157,6.7542,6.6188,6.6188,6.4642,6.2888,6.1666,6.1429,6.1014,5.9714,5.9483,5.9608,5.9985,6.0035,5.9834,5.9282,6.0035,6.0462,6.0085,6.0387,6.0613,6.0613,6.0613,6.0462,6.006,6.0035,5.9885,5.9508,5.9156,5.9056,5.9232,5.8679,5.8303,5.8114,5.7976,5.7399,5.6433,5.6433,5.6194,5.3773,5.5059,5.5718,5.7663,5.9009,5.9817,5.9817,6.0475,6.0984,6.0535,6.0625,6.0595,5.9937,6.0715,6.1253,6.0565,6.1373,6.2091,6.2091,6.248,6.3079,6.3887,6.4425,6.5054,6.5922,6.5652,6.5413,6.5413,6.5832,6.637,6.7029,6.7089,6.7268,6.7687,6.8106,6.8466,6.8706,6.9574,7.0081,7.032,7.0709,7.1038,7.1248,7.1248,7.1607,7.2265,7.2265,7.2505,7.2924,7.2924,7.2654,7.2265,7.2265,7.1996,7.1607,7.1607,7.1607,7.1547,7.1068,7.0889,7.0889,7.0889,7.0889,7.0889,7.0889,7.0889,7.0889,7.0889,7.1068,7.1248,7.1248,7.1427,7.1607,7.1607,7.0191,6.8808,6.8808,6.7291,6.547,6.4034,6.3224,6.2276,6.0799,6.0136,5.991,6.0261,6.0663,6.0788,6.0437,6.119,6.1617,6.1226,6.1366,6.1492,6.1492,6.1291,6.1014,6.0638,6.0638,6.0387,5.9809,5.9784,5.9684,5.9483,5.9483,5.9332,5.9006,5.9006,5.8491,5.7587,5.7387,5.701,5.5174,5.6821,5.7723,5.9695,6.0655,6.1136,6.1136,6.1076,6.1074,6.1074,6.1463,6.1613,6.0984,6.1463,6.1732,6.1076,6.1642,6.2181,6.2241,6.3288,6.4066,6.4156,6.5323,6.6131,6.6161,6.7359,6.8107,6.8167,6.8107,6.8347,6.8974,6.9034,6.9034,6.9004,6.9064,6.9393,6.9961,7.0021,7.035,7.0949,7.0949,7.1308,7.1936,7.1936,7.2325,7.2954,7.2954,7.2984,7.3013,7.3013,7.2984,7.2954,7.2954,7.2954,7.2924,7.2924,7.2924,7.2744,7.1457,7.1009,7.1009,7.1009,7.1009,7.1009,7.1009,7.1009,7.1009,7.1009,7.1457,7.1936,7.1936,7.2415,7.2924,7.2924,7.1556,7.0228,7.0228,6.8797,6.7235,6.6399,6.4637,6.3088,6.2448,6.1236,6.0412,6.0412,6.1341,6.2044,6.1994,6.2496,6.2781,6.2781,6.2345,6.2044,6.2044,6.1567,6.1266,6.1215,6.1215,6.0964,6.0387,6.0362,6.0111,5.9583,5.9583,5.9583,5.9583,5.9583,5.9307,5.8742,5.8252,5.77,5.8258,5.9246,5.9578,6.0595,6.1343,6.1852,6.1852,6.1074,6.0356,6.0356,5.8919,5.7659,5.7479,5.877,5.9817,5.9638,6.1433,6.3169,6.4156,6.4545,6.5144,6.6101,6.7,6.7687,6.8196,6.8974,6.9694,7.0111,6.9273,6.8824,6.9004,6.9453,6.9512,6.9004,6.9931,7.026,6.9931,7.044,7.1009,7.1637,7.1637,7.1996,7.2654,7.2654,7.3013,7.3642,7.3642,7.3911,7.436,7.436,7.4091,7.3642,7.3642,7.3343,7.2924,7.2924,7.2924,7.2864,7.2535,7.2415,7.2415,7.2415,7.2415,7.2415,7.2415,7.2415,7.2415,7.2415,7.2535,7.2654,7.2654,7.2774,7.2924,7.2924,7.2559,7.2193,7.2193,7.1824,7.0512,6.7396,6.4081,6.1691,6.1524,6.1547,6.1567,6.1567,6.2129,6.2471,6.2044,6.2496,6.2781,6.2781,6.2656,6.2581,6.2581,6.2496,6.2245,6.1818,6.1793,6.1542,6.0989,6.0964,6.0889,6.0763,6.0763,6.0763,6.0763,6.0763,6.0462,5.991,5.9759,5.9207,5.9485,6.0505,6.1074,6.1433,6.2032,6.2301,6.1403,6.0625,5.9874,5.8976,5.7629,5.6881,5.7749,5.9039,6.0176,6.0745,6.26,6.4186,6.4904,6.5233,6.5832,6.6879,6.7837,6.8585,6.8974,6.9842,7.053,7.0889,7.0231,6.9961,7.026,7.062,7.0799,7.0709,7.1128,7.1009,7.035,7.1009,7.1517,7.1876,7.2206,7.2684,7.3343,7.3343,7.3702,7.433,7.433,7.4574,7.4903,7.4903,7.4693,7.433,7.433,7.4091,7.3762,7.3762,7.3762,7.3762,7.3762,7.3762,7.3672,7.3103,7.2924,7.2924,7.2924,7.2924,7.2924,7.2924,7.3133,7.3343,7.3343,7.3552,7.3762,7.3762,7.3762,7.3762,7.3762,7.3762,7.2528,6.8247,6.4718,6.2257,6.1651,6.1793,6.2094,6.232,6.2581,6.2681,6.2395,6.2606,6.2781,6.2781,6.2781,6.2781,6.2781,6.2781,6.2656,6.2395,6.237,6.2119,6.1567,6.1542,6.1441,6.119,6.119,6.119,6.119,6.119,6.1014,6.0688,6.0437,5.9859,5.9697,6.1074,6.2002,6.2181,6.266,6.2569,6.0563,5.9877,5.9129,5.7124,5.6496,5.6915,5.8949,5.9787,6.0655,6.209,6.3228,6.4097,6.4545,6.5144,6.5862,6.6879,6.8166,6.9004,6.9004,7.0141,7.0949,7.1038,7.1038,7.1278,7.1846,7.2089,7.2385,7.286,7.2235,7.1577,7.0919,7.1547,7.1936,7.2026,7.2714,7.3402,7.4031,7.4031,7.433,7.4903,7.4903,7.4903,7.4903,7.4903,7.4903,7.4903,7.4903,7.4903,7.4903,7.4903,7.4903,7.4903,7.4903,7.4903,7.4723,7.3552,7.3163,7.3163,7.3163,7.3163,7.3163,7.3163,7.3582,7.4031,7.4031,7.445,7.4903,7.4903,7.4903,7.4903,7.4903,7.4697,7.3251,6.8946,6.6029,6.3804,6.2482,6.2245,6.2395,6.2832,6.2907,6.2882,6.2807,6.2781,6.2781,6.2781,6.2781,6.2781,6.2781,6.2781,6.2781,6.2781,6.2781,6.2581,6.2144,6.2119,6.1893,6.1416,6.1391,6.1391,6.1391,6.1391,6.1391,6.1391,6.0889,6.0362,6.0535,6.1104,6.1553,6.2659,6.3018,6.2569,6.0563,5.88,5.7064,5.5119,5.3384,5.2845,5.485,5.5329,5.6017,5.7842,5.8321,5.9428,6.2211,6.269,6.3827,6.664,6.8166,6.9004,6.9004,7.0141,7.1128,7.1667,7.1727,7.1757,7.1876,7.2954,7.3343,7.2924,7.2235,7.1577,7.0919,7.1547,7.2176,7.2744,7.3402,7.4061,7.4753,7.4753,7.4813,7.4903,7.4903,7.4903,7.4903,7.4903,7.4903,7.4903,7.4903,7.4903,7.4903,7.4903,7.4903,7.4903,7.4903,7.4903,7.4873,7.4634,7.4574,7.4574,7.4574,7.4574,7.4574,7.4574,7.4663,7.4753,7.4753,7.4813,7.4903,7.4903,7.4903,7.4903,7.4903,7.3603,7.1683,6.9235,6.6972,6.5057,6.3644,6.34,6.3425,6.3525,6.355,6.3375,6.2857,6.2781,6.2781,6.2781,6.2781,6.2781,6.2781,6.2781,6.2781,6.2781,6.2781,6.2756,6.2656,6.2656,6.2606,6.2505,6.2505,6.2505,6.2505,6.2505,6.2505,6.2505,6.2446,6.2094,5.9129,6.0296,6.1762,6.2421,6.2838,6.221,5.8857,5.733,5.5683,5.236,5.087,5.081,5.2785,5.3743,5.473,5.6372,5.8052,5.9877,6.1822,6.2989,6.4455,6.6729,6.8166,6.9004,6.9004,7.0141,7.1188,7.1846,7.2206,7.2565,7.2924,7.3881,7.3941,7.292,7.2595,7.2086,7.1427,7.2086,7.2744,7.3432,7.4091,7.4604,7.4903,7.4903,7.4903,7.4903,7.4903,7.4903,7.4903,7.4903,7.4903,7.4903,7.4903,7.4903,7.4903,7.4903,7.4903,7.4903,7.4903,7.4903,7.4903,7.4903,7.4903,7.4903,7.4903,7.4903,7.4903,7.4903,7.4903,7.4903,7.4903,7.4903,7.4903,7.4903,7.4903,7.4903,7.4903,7.3328,7.1314,6.93,6.7215,6.5448,6.43,6.3877,6.3877,6.4429,6.4053,6.3601,6.3324,6.2982,6.2781,6.2781,6.2781,6.2781,6.2781,6.2781,6.2781,6.2781,6.2781,6.2781,6.2781,6.2781,6.2781,6.2781,6.2781,6.2781,6.2781,6.2781,6.2781,6.2781,6.2781,6.248,5.7962,5.9668,6.1702,6.1852,6.2391,6.1671,5.703,5.6102,5.4875,5.0235,4.9277,4.9875,5.1828,5.2845,5.3832,5.5324,5.7483,5.9578,6.1224,6.2751,6.4575,6.6729,6.8166,6.9004,6.9004,7.0141,7.1248,7.2056,7.2864,7.3552,7.4091,7.4634,7.427,7.2954,7.3043,7.2714,7.1906,7.2714,7.3373,7.3911,7.4604,7.4903,7.4903,7.4903,7.4903,7.4903,7.4903,7.4903,7.4903,7.4903,7.4903,7.4903,7.4903,7.4903,7.4903,7.4903,7.4903,7.4903,7.4903,7.4903,7.4903,7.4903,7.4903,7.4903,7.4903,7.4903,7.4903,7.4903,7.4903,7.4903,7.4903,7.4903,7.4903,7.4903,7.4903,7.4903,7.4903,7.3672,7.182,6.9374,6.756,6.6042,6.4753,6.4128,6.4178,6.5157,6.458,6.3952,6.3726,6.3299,6.2932,6.2807,6.2781,6.2781,6.2781,6.2781,6.2781,6.2781,6.2781,6.2781,6.2781,6.2781,6.2781,6.2781,6.2781,6.2781,6.2781,6.2781,6.2781,6.2781,6.2781,6.2556,5.9039,6.0054,6.0416,6.1044,6.1702,6.0984,5.6346,5.5773,5.4875,5.0235,4.9277,4.9875,5.1828,5.1295,5.1206,5.3169,5.2725,5.3808,5.871,5.9548,6.1463,6.64,6.8166,6.9004,6.9004,7.0141,7.1427,7.2714,7.3971,7.4753,7.4813,7.4873,7.427,7.2954,7.3492,7.3193,7.1906,7.3163,7.3821,7.3911,7.4604,7.4903,7.4903,7.4903,7.4903,7.4903,7.4903,7.4903,7.4903,7.4903,7.4903,7.4903,7.4903,7.4903,7.4903,7.4903,7.4903,7.4903,7.4903,7.4903,7.4903,7.4903,7.4903,7.4903,7.4903,7.4903,7.4903,7.4903,7.4903,7.4903,7.4903,7.4903,7.4903,7.4903,7.4903,7.4903,7.4903,7.4766,7.3498,6.9635,6.8737,6.7747,6.4977,6.4471,6.4647,6.5208,6.5208,6.4781,6.3827,6.3651,6.34,6.2857,6.2781,6.2781,6.2781,6.2781,6.2781,6.2781,6.2781,6.2781,6.2781,6.2781,6.2781,6.2781,6.2781,6.2781,6.2781,6.2781,6.2781,6.2781,6.2781,6.2756,5.6042,5.856,6.1373,6.1642,6.1613,6.0386,5.6166,5.4486,5.2576,4.8356,4.716,4.7249,4.8446,4.8544,4.8985,5.0594,5.1732,5.3952,5.8471,6.0146,6.2421,6.649,6.8166,6.8525,6.7328,6.9812,7.2056,7.3402,7.436,7.4903,7.4903,7.4903,7.427,7.2954,7.3552,7.3462,7.2505,7.3432,7.4091,7.4514,7.4783,7.4903,7.4903,7.4903,7.4903,7.4903,7.4903,7.4903,7.4903,7.4903,7.4903,7.4903,7.4903,7.4903,7.4903,7.4903,7.4903,7.4903,7.4903,7.4903,7.4903,7.4903,7.4903,7.4903,7.4903,7.4903,7.4903,7.4903,7.4903,7.4903,7.4903,7.4903,7.4903,7.4903,7.4903,7.4903,7.4903,7.4903,7.3707,6.9672,6.8888,6.7939,6.5018,6.4496,6.4798,6.566,6.5509,6.5007,6.4295,6.3877,6.3475,6.2857,6.2781,6.2781,6.2781,6.2781,6.2781,6.2781,6.2781,6.2781,6.2781,6.2781,6.2781,6.2781,6.2781,6.2781,6.2781,6.2781,6.2781,6.2781,6.2781,6.2781,5.4336,5.7274,6.0565,6.1553,6.0864,5.8979,5.5418,5.2905,5.0331,4.6719,4.5633,4.5514,4.6181,4.6839,4.7728,4.9067,5.1013,5.3892,5.8471,6.0326,6.251,6.5981,6.7418,6.7627,6.643,6.9871,7.2654,7.3821,7.451,7.4813,7.4634,7.4604,7.4151,7.3223,7.3642,7.3672,7.3223,7.3851,7.442,7.4903,7.4903,7.4903,7.4903,7.4903,7.4903,7.4903,7.4903,7.4903,7.4903,7.4903,7.4903,7.4903,7.4903,7.4903,7.4903,7.4903,7.4903,7.4903,7.4903,7.4903,7.4903,7.4903,7.4903,7.4903,7.4903,7.4903,7.4903,7.4903,7.4903,7.4903,7.4903,7.4903,7.4903,7.4903,7.4903,7.4903,7.4903,7.4903,7.3911,7.0447,6.93,6.8077,6.5559,6.4788,6.4823,6.5735,6.5685,6.5333,6.4823,6.4295,6.3701,6.3149,6.2882,6.2781,6.2781,6.2781,6.2781,6.2781,6.2781,6.2781,6.2781,6.2781,6.2781,6.2781,6.2781,6.2781,6.2781,6.2781,6.2781,6.2781,6.2781,6.2781,5.5299,5.6671,5.703,6.0296,5.9129,5.6436,5.3827,5.1193,4.8558,4.5873,4.5304,4.5514,4.6181,4.6839,4.7728,4.9067,4.9823,5.2312,5.8261,5.9129,6.0595,6.4545,6.5622,6.6281,6.6909,7.056,7.3193,7.3851,7.451,7.4634,7.3941,7.3911,7.3881,7.3881,7.3881,7.3881,7.3881,7.4574,7.4903,7.4903,7.4903,7.4903,7.4903,7.4903,7.4903,7.4903,7.4903,7.4903,7.4903,7.4903,7.4903,7.4903,7.4903,7.4903,7.4903,7.4903,7.4903,7.4903,7.4903,7.4903,7.4903,7.4903,7.4903,7.4903,7.4903,7.4903,7.4903,7.4903,7.4903,7.4903,7.4903,7.4903,7.4903,7.4903,7.4903,7.4903,7.4903,7.4903,7.4293,7.2278,7.0264,6.8437,6.6925,6.5447,6.4697,6.5208,6.576,6.5911,6.5358,6.4848,6.4295,6.3726,6.3174,6.2781,6.2781,6.2781,6.2781,6.2781,6.2781,6.2781,6.2781,6.2781,6.2781,6.2781,6.2781,6.2781,6.2781,6.2781,6.2781,6.2781,6.2781,6.2781,5.0654,5.26,5.4396,5.5418,5.4371,5.2636,5.0923,4.8828,4.677,4.4975,4.4237,4.4267,4.5424,4.5783,4.6651,4.8917,4.9456,5.1798,5.8201,5.9099,6.1074,6.64,6.6819,6.7837,7.0769,7.0949,7.1936,7.4424,7.4364,7.4121,7.3911,7.3013,7.2744,7.3223,7.3672,7.3881,7.3881,7.454,7.4903,7.4903,7.4903,7.4903,7.4903,7.4903,7.4903,7.4903,7.4903,7.4903,7.4903,7.4903,7.4903,7.4903,7.4903,7.4903,7.4903,7.4903,7.4903,7.4903,7.4903,7.4903,7.4903,7.4903,7.4903,7.4903,7.4903,7.4903,7.4903,7.4903,7.4903,7.4903,7.4903,7.4903,7.4903,7.4903,7.4903,7.4903,7.4903,7.4903,7.4293,7.2314,7.0264,6.8437,6.6938,6.5488,6.4697,6.5208,6.576,6.5911,6.5358,6.4848,6.432,6.3751,6.3174,6.2781,6.2781,6.2781,6.2781,6.2781,6.2781,6.2781,6.2781,6.2781,6.2781,6.2781,6.2781,6.2781,6.2781,6.2781,6.2781,6.2781,6.2781,6.2781,4.8319,4.9995,5.1642,5.2899,5.1648,4.9912,4.9097,4.698,4.4925,4.4087,4.3788,4.3997,4.5095,4.5693,4.707,5.0265,5.0145,5.1947,5.853,5.862,6.0027,6.5503,6.688,6.8435,7.1158,7.0979,7.1667,7.3971,7.3762,7.3402,7.3163,7.2595,7.2475,7.2894,7.3313,7.3762,7.427,7.4693,7.4903,7.4903,7.4903,7.4903,7.4903,7.4903,7.4903,7.4903,7.4903,7.4903,0.0,7.4903,7.4903,7.4903,7.4903,7.4903,7.4903,7.4903,7.4903,7.4903,7.4903,7.4903,7.4903,7.4903,7.4903,7.4903,7.4903,7.4903,7.4903,7.4903,7.4903,7.4903,7.4903,7.4903,7.4903,7.4903,7.4903,7.4903,7.4903,7.4903,7.453,7.3293,7.0805,6.861,6.77,6.5681,6.4396,6.4906,6.5434,6.576,6.5609,6.5107,6.4622,6.4053,6.3475,6.3073,6.2807,6.2781,6.2781,6.2781,6.2781,6.2781,6.2781,6.2781,6.2781,6.2781,6.2781,6.2781,6.2781,6.2781,6.2781,6.2781,6.2781,6.2781,0.0,4.8379,4.8678,5.1732,5.0182,4.7938,4.7938,4.5553,0.0,4.3349,4.3908,4.4586,4.5304,4.6561,4.8716,5.239,5.1558,5.2611,5.8919,5.8138,5.8497,6.2808,6.6221,6.8466,6.9123,7.0829,7.2176,7.2864,7.2864,7.2565,7.1906,7.2505,7.2864,7.2924,7.2954,7.3582,7.4903,7.4903,7.4903,7.4903,7.4903,7.4903,7.4903,7.4903,7.4903,7.4903,7.4903,7.4903,7.4903,7.4903,7.4903,7.4903,7.4903,7.4903,7.4903,7.4903,7.4903,7.4903,7.4903,7.4903,7.4903,7.4903,7.4903,7.4903,7.4903,7.4903,7.4903,7.4903,7.4903,7.4903,7.4903,7.4903,7.4903,7.4903,7.4903,7.4903,7.4903,7.4903,7.4903,7.4903,7.1668,6.8888,6.8888,6.6041,6.3852,6.4371,6.4906,6.5484,6.5986,6.5609,6.5082,6.4572,6.4002,6.345,6.2832,6.2781,6.2781,6.2781,6.2781,6.2781,6.2781,6.2781,6.2781,6.2781,6.2781,6.2781,6.2781,6.2781,6.2781,6.2781,6.2781,6.2781,4.3459,0.0,4.4655,4.5433,4.5044,4.4476,0.0,4.4267,4.4057,4.4057,4.4616,4.5424,4.6621,4.8304,4.983,5.0757,5.1798,5.3588,5.6671,6.0894,6.4096,6.5203,6.8226,7.047,7.1128,7.1607,7.2176,7.2864,7.2415,7.2056,7.1906,7.2026,7.2355,7.286,7.3402,7.4061,7.4903,7.4903,7.4903,7.4903,7.4903,7.4903,7.4903,7.4903,7.4903,7.4903,7.4903,7.4903,7.4903,7.4903,7.4903,7.4903,7.4903,7.4903,7.4903,7.4903,7.4903,7.4903,7.4903,7.4903,7.4903,7.4903,7.4903,7.4903,7.4903,7.4903,7.4903,7.4903,7.4903,7.4903,7.4903,7.4903,7.4903,7.4903,7.4903,7.4903,7.4903,7.4903,7.4903,7.4903,7.1668,6.8888,6.8888,6.6041,6.3726,6.3852,6.468,6.5333,6.5459,6.5383,6.5082,6.4572,6.4002,6.345,6.2832,6.2781,6.2781,6.2781,6.2781,6.2781,6.2781,6.2781,6.2781,6.2781,6.2781,6.2781,6.2781,6.2781,6.2781,6.2781,6.2781,6.2781,4.1283,4.2182,4.294,4.325,4.329,4.3399,4.3698,4.4027,4.4386,4.4706,4.5544,4.6441,4.7189,4.8903,5.0817,5.2665,5.3593,5.5144,5.8022,6.254,6.5682,6.5981,6.8914,7.0919,7.1009,7.1278,7.1577,7.1966,7.1637,7.1577,7.1876,7.2176,7.2684,7.3343,7.4001,7.451,7.4903,7.4903,7.4903,7.4903,7.4903,7.4903,7.4903,7.4903,7.4903,7.4903,7.4903,7.4903,7.4903,7.4903,7.4903,7.4903,7.4903,7.4903,7.4903,7.4903,7.4903,7.4903,7.4903,7.4903,7.4903,7.4903,7.4903,7.4903,7.4903,7.4903,7.4903,7.4903,7.4903,7.4903,7.4903,7.4903,7.4903,7.4903,7.4903,7.4903,7.4903,7.4903,7.4903,7.4903,7.1668,6.8888,6.8925,6.5779,6.34,6.3651,6.4379,6.5007,6.5258,6.5509,6.5459,6.4906,6.4421,6.3827,6.3274,6.2932,6.2781,6.2781,6.2781,6.2781,6.2781,6.2781,6.2781,6.2781,6.2781,6.2781,6.2781,6.2781,6.2781,6.2781,6.2781,6.2781,4.0487,4.1463,4.259,4.328,4.3439,4.3668,4.4416,4.4596,4.4796,4.5454,4.683,4.7967,4.8177,4.9949,5.2522,5.5953,5.6256,5.7244,6.0505,6.3349,6.5353,6.5951,6.8824,7.059,7.0171,7.059,7.0889,7.0889,7.0889,7.1188,7.1846,7.2535,7.3223,7.3881,7.4574,7.4903,7.4903,7.4903,7.4903,7.4903,7.4903,7.4903,7.4903,7.4903,7.4903,7.4903,7.4903,7.4903,7.4903,7.4903,7.4903,7.4903,7.4903,7.4903,7.4903,7.4903,7.4903,7.4903,7.4903,7.4903,7.4903,7.4903,7.4903,7.4903,7.4903,7.4903,7.4903,7.4903,7.4903,7.4903,7.4903,7.4903,7.4903,7.4903,7.4903,7.4903,7.4903,7.4903,7.4903,7.4903,7.1668,6.8888,6.8897,6.5516,6.2957,6.3475,6.4002,6.4597,6.5082,6.5634,6.581,6.5333,6.4923,6.4396,6.3751,6.3249,6.2882,6.2807,6.2781,6.2781,6.2781,6.2781,6.2781,6.2781,6.2781,6.2781,6.2781,6.2781,6.2781,6.2781,6.2781,6.2781,4.0954,4.1792,4.268,4.3868,4.4147,4.4476,4.5702,4.6001,4.6181,4.686,4.8925,5.096,5.2091,5.482,5.7098,5.7696,5.9159,6.0206,6.0236,6.3468,6.5892,6.6011,6.8435,7.029,7.0709,7.0859,7.0889,7.0889,7.0889,7.1188,7.1846,7.2535,7.3223,7.3881,7.4574,7.4903,7.4903,7.4903,7.4903,7.4903,7.4903,7.4903,7.4903,7.4903,7.4903,7.4903,7.4903,7.4903,7.4903,7.4903,7.4903,7.4903,7.4903,7.4903,7.4903,7.4903,7.4903,7.4903,7.4903,7.4903,7.4903,7.4903,7.4903,7.4903,7.4903,7.4903,7.4903,7.4903,7.4903,7.4903,7.4903,7.4903,7.4903,7.4903,7.4903,7.4903,7.4903,7.4903,7.4903,7.4903,7.1668,6.8888,6.8888,6.5516,6.2807,6.2907,6.345,6.4002,6.4572,6.5082,6.5383,6.5308,6.5208,6.4756,6.3776,6.3626,6.335,6.2832,6.2781,6.2781,6.2781,6.2781,6.2781,6.2781,6.2781,6.2781,6.2781,6.2781,6.2781,6.2781,6.2781,6.2781,4.0576,4.1613,4.3159,4.6223,4.698,4.7339,4.8633,5.0069,5.0601,4.8768,5.075,5.2905,5.3169,5.5029,5.7483,6.0326,6.1852,6.3079,6.4215,6.5622,6.6819,6.7537,6.9004,7.0081,7.038,7.0709,7.0889,7.0889,7.0889,7.1368,7.2385,7.2744,7.3373,7.439,7.4753,7.4903,7.4903,7.4903,7.4903,7.4903,7.4903,7.4903,7.4903,7.4903,7.4903,7.4903,7.4903,7.4903,7.4903,7.4903,7.4903,7.4903,7.4903,7.4903,7.4903,7.4903,7.4903,7.4903,7.4903,7.4903,7.4903,7.4903,7.4903,7.4903,7.4903,7.4903,7.4903,7.4903,7.4903,7.4903,7.4903,7.4903,7.4903,7.4903,7.4903,7.4903,7.4903,7.4903,7.4903,7.4903,7.1668,6.8888,6.8888,6.5503,6.2781,6.2781,6.3324,6.3776,6.4028,6.4781,6.5283,6.5283,6.5283,6.4982,6.4178,6.3852,6.345,6.2832,6.2781,6.2781,6.2781,6.2781,6.2781,6.2781,6.2781,6.2781,6.2781,6.2781,6.2781,6.2781,6.2781,6.2781,4.0576,4.2062,4.4487,4.8528,4.9516,5.0055,5.2127,5.3952,5.4426,5.1702,5.3384,5.5239,5.4905,5.5897,5.8141,6.221,6.3647,6.5054,6.7449,6.7567,6.7837,6.8884,6.9572,7.0083,7.0201,7.062,7.0889,7.0889,7.1038,7.1667,7.2864,7.3073,7.3672,7.4873,7.4903,7.4903,7.4903,7.4903,7.4903,7.4903,7.4903,7.4903,7.4903,7.4903,7.4903,7.4903,7.4903,7.4903,7.4903,7.4903,7.4903,7.4903,7.4903,7.4903,7.4903,7.4903,7.4903,7.4903,7.4903,7.4903,7.4903,7.4903,7.4903,7.4903,7.4903,7.4903,7.4903,7.4903,7.4903,7.4903,7.4903,7.4903,7.4903,7.4903,7.4903,7.4903,7.4903,7.4903,7.4903,7.4903,7.2028,6.9449,6.8963,6.5909,6.3367,6.2863,6.3199,6.3525,6.3676,6.4404,6.5007,6.5258,6.5283,6.5107,6.4748,6.4078,6.35,6.3007,6.2857,6.2781,6.2781,6.2781,6.2781,6.2781,6.2781,6.2781,6.2781,6.2781,6.2781,6.2781,6.2781,6.2781,4.1643,4.4077,4.7459,4.962,5.0159,5.1295,5.5688,5.5897,5.5448,5.6346,5.7723,5.8919,5.9488,6.0685,6.1732,6.2121,6.3708,6.5413,6.6879,6.8106,6.8884,6.9004,6.9572,7.0201,7.0769,7.0889,7.0889,7.0889,7.1457,7.2146,7.2864,7.3492,7.4151,7.4903,7.4903,7.4903,7.4903,7.4903,7.4903,7.4903,7.4903,7.4903,7.4903,7.4903,7.4903,7.4903,7.4903,7.4903,7.4903,7.4903,7.4903,7.4903,7.4903,7.4903,7.4903,7.4903,7.4903,7.4903,7.4903,7.4903,7.4903,7.4903,7.4903,7.4903,7.4903,7.4903,7.4903,7.4903,7.4903,7.4903,7.4903,7.4903,7.4903,7.4903,7.4903,7.4903,7.4903,7.4903,7.4903,7.4903,7.3187,7.1068,6.9225,6.7061,6.4949,6.3082,6.2832,6.3099,6.3626,6.3751,6.4178,6.5183,6.5283,6.5283,6.5233,6.4279,6.3676,6.3626,6.3124,6.2781,6.2781,6.2781,6.2781,6.2781,6.2781,6.2781,6.2781,6.2781,6.2781,6.2781,6.2781,6.2781,4.1912,4.4906,4.8686,5.1894,5.3324,5.4491,5.6615,5.8949,6.0116,5.8141,5.9458,6.1164,6.185,6.269,6.3677,6.4934,6.5084,6.5443,6.6819,6.7777,6.8525,6.8944,6.9572,7.0231,7.0829,7.0889,7.0889,7.0889,7.1517,7.2176,7.2864,7.3552,7.421,7.4903,7.4903,7.4903,7.4903,7.4903,7.4903,7.4903,7.4903,7.4903,7.4903,7.4903,7.4903,7.4903,7.4903,7.4903,7.4903,7.4903,7.4903,7.4903,7.4903,7.4903,7.4903,7.4903,7.4903,7.4903,7.4903,7.4903,7.4903,7.4903,7.4903,7.4903,7.4903,7.4903,7.4903,7.4903,7.4903,7.4903,7.4903,7.4903,7.4903,7.4903,7.4903,7.4903,7.4903,7.4903,7.4903,7.4903,7.3293,7.1676,7.0886,6.7991,6.5556,6.479,6.3584,6.2857,6.3124,6.3475,6.3852,6.4254,6.458,6.4823,6.4823,6.4446,6.4069,6.3701,6.3149,6.2781,6.2781,6.2781,6.2781,6.2781,6.2781,6.2781,6.2781,6.2781,6.2781,6.2781,6.2781,6.2781,4.2511,4.6043,5.0182,5.2905,5.5508,5.7599,5.8231,6.0146,6.1343,5.9727,6.1313,6.3019,6.3108,6.3467,6.4216,6.5802,6.5293,6.5323,6.7059,6.7898,6.8555,6.9243,6.9871,7.044,7.0859,7.0889,7.0889,7.0889,7.1727,7.2415,7.2894,7.3732,7.442,7.4903,7.4903,7.4903,7.4903,7.4903,7.4903,7.4903,7.4903,7.4903,7.4903,7.4903,7.4903,7.4903,7.4903,7.4903,7.4903,7.4903,7.4903,7.4903,7.4903,7.4903,7.4903,7.4903,7.4903,7.4903,7.4903,7.4903,7.4903,7.4903,7.4903,7.4903,7.4903,7.4903,7.4903,7.4903,7.4903,7.4963,7.5172,7.5083,7.4903,7.4903,7.4903,7.4903,7.4903,7.4903,7.4903,7.4903,7.3777,7.2634,7.1999,6.9047,6.6585,6.5883,6.4083,6.2781,6.2781,6.3174,6.35,6.3676,6.4195,6.4496,6.4496,6.4496,6.4346,6.3952,6.34,6.3023,6.2807,6.2781,6.2781,6.2781,6.2781,6.2781,6.2781,6.2781,6.2781,6.2781,6.2781,6.2781,4.3549,4.7706,5.2247,5.2247,5.6226,6.0266,6.0954,5.9069,5.8082,6.1403,6.3648,6.4635,6.3347,6.3138,6.3347,6.3917,6.4006,6.4934,6.7628,6.8555,6.9243,6.9901,7.053,7.0889,7.0889,7.0889,7.0889,7.0919,7.2146,7.2924,7.2924,7.4151,7.4903,7.4903,7.4903,7.4903,7.4903,7.4903,7.4903,7.4903,7.4903,7.4903,7.4903,7.4903,7.4903,7.4903,7.4903,7.4903,7.4903,7.4903,7.4903,7.4903,7.4903,7.4903,7.4903,7.4903,7.4903,7.4903,7.4903,7.4903,7.4903,7.4903,7.4903,7.4903,7.4903,7.4903,7.4903,7.4903,7.4903,7.5048,7.5736,7.5407,7.4933,7.4933,7.4903,7.4903,7.4903,7.4903,7.4903,7.4903,7.4903,7.4258,7.2278,7.0227,6.8208,6.6156,6.4123,6.2781,6.2781,6.2781,6.3048,6.3626,6.4195,6.4496,6.4496,6.4496,6.4496,6.4496,6.3977,6.3425,6.2832,6.2781,6.2781,6.2781,6.2781,6.2781,6.2781,6.2781,6.2781,6.2781,6.2781,6.2781,4.692,5.1498,5.5867,5.6825,5.8949,6.0864,6.1046,6.0864,6.0625,6.0685,6.4096,6.64,6.4126,6.4485,6.5353,6.5981,6.5712,6.6011,6.7748,6.9005,6.9752,6.9993,7.053,7.0889,7.0889,7.0889,7.1098,7.1547,7.2415,7.3103,7.3582,7.442,7.4903,7.4903,7.4903,7.4903,7.4903,7.4903,7.4903,7.4903,7.4903,7.4903,7.4903,7.4903,7.4903,7.4903,7.4903,7.4903,7.4903,7.4903,7.4903,7.4903,7.4903,7.4903,7.4903,7.4903,7.4903,7.4903,7.4903,7.4903,7.4903,7.4903,7.4903,7.4903,7.4903,7.4903,7.4903,7.4903,7.5228,7.5647,7.5856,7.5766,7.5587,7.5587,7.5228,7.4903,7.4903,7.4903,7.4903,7.4903,7.4903,7.4731,7.412,7.1169,6.8699,6.8056,6.5029,6.2781,6.2781,6.2781,6.2857,6.3073,6.3576,6.3927,6.3927,6.4295,6.4346,6.3952,6.3776,6.3626,6.345,6.3048,6.2781,6.2781,6.2781,6.2781,6.2781,6.2781,6.2781,6.2781,6.2781,6.2781,4.8738,5.3528,5.8291,5.9907,6.1672,6.2929,6.2391,6.2181,6.2002,6.1702,6.5054,6.7598,6.6221,6.664,6.7328,6.7717,6.7448,6.7567,6.8646,6.9514,7.0081,7.032,7.0679,7.0889,7.0889,7.0889,7.1188,7.1846,7.2535,7.3193,7.3851,7.4544,7.4903,7.4903,7.4903,7.4903,7.4903,7.4903,7.4903,7.4903,7.4903,7.4903,7.4903,7.4903,7.4903,7.4903,7.4903,7.4903,7.4903,7.4903,7.4903,7.4903,7.4903,7.4903,7.4903,7.4903,7.4903,7.4903,7.4903,7.4903,7.4903,7.4903,7.4903,7.4903,7.4903,7.4903,7.4903,7.4903,7.5168,7.5617,7.6125,7.6096,7.5916,7.5916,7.5377,7.4903,7.4903,7.4903,7.4903,7.4903,7.4903,7.4903,7.4903,7.1532,6.8888,6.8888,6.5398,6.2781,6.2781,6.2781,6.2781,6.2781,6.3149,6.335,6.335,6.3852,6.4028,6.3701,6.3701,6.3701,6.3701,6.3149,6.2781,6.2781,6.2781,6.2781,6.2781,6.2781,6.2781,6.2781,6.2781,6.2781,4.9576,5.4375,5.9738,6.182,6.4363,6.5952,6.4691,6.3695,6.3239,6.3879,6.6463,6.8661,6.8865,6.9164,6.9313,6.9035,6.9093,6.9363,6.9901,7.0053,7.026,7.0829,7.0889,7.0889,7.0889,7.0889,7.1188,7.1936,7.2565,7.3223,7.3941,7.454,7.4903,7.4903,7.4903,7.4903,7.4903,7.4903,7.4903,7.4903,7.4903,7.4903,7.4903,7.4903,7.4903,7.4903,7.4903,7.4903,7.4903,7.4903,7.4903,7.4903,7.4903,7.4903,7.4903,7.4903,7.4903,7.4903,7.4903,7.4903,7.4903,7.4903,7.4903,7.4903,7.4903,7.4903,7.4903,7.4903,7.4993,7.5318,7.6479,7.6455,7.6066,7.6066,7.5497,7.4993,7.4933,7.4903,7.4903,7.4903,7.4903,7.4903,7.4903,7.1532,6.8775,6.8397,6.5187,6.2781,6.2781,6.2781,6.2781,6.2781,6.2781,6.2781,6.2781,6.3299,6.3626,6.3626,6.3626,6.3626,6.3626,6.3099,6.2781,6.2781,6.2832,6.2832,6.2781,6.2832,6.2832,6.2781,6.2781,6.2781,5.1738,5.6503,6.073,6.3637,6.6511,6.8363,6.7504,6.887,6.9197,6.5142,6.9049,7.2212,6.9027,7.0551,7.1566,6.9374,6.9842,7.038,7.0053,7.041,7.0739,7.0889,7.0889,7.0889,7.0889,7.0889,7.1398,7.2595,7.2834,7.3432,7.4599,7.4843,7.4903,7.4903,7.4903,7.4903,7.4903,7.4903,7.4903,7.4903,7.4903,7.4903,7.4903,7.4903,7.4903,7.4903,7.4903,7.4903,7.4903,7.4903,7.4903,7.4903,7.4903,7.4903,7.4903,7.4903,7.4903,7.4903,7.4903,7.4903,7.4903,7.4903,7.4903,7.4903,7.4903,7.4903,7.4903,7.4903,7.5617,7.645,7.6719,7.7078,7.7412,7.7412,7.6514,7.5527,7.5023,7.4903,7.4903,7.4903,7.4903,7.4903,7.4903,7.1532,6.7789,6.4617,6.3367,6.2781,6.2781,6.2781,6.2781,6.2781,6.2781,6.2781,6.2781,6.2907,6.2982,6.2982,6.2982,6.2982,6.2982,6.2857,6.2781,6.2781,6.3274,6.3274,6.2781,6.3299,6.3274,6.2781,6.2781,6.2781,5.257,5.7734,6.2933,6.7023,6.9186,7.0186,6.9811,7.1726,7.2874,7.039,7.1779,7.2906,7.1049,7.2392,7.3014,7.0759,7.1839,7.252,7.1108,7.1158,7.1248,7.0949,7.0889,7.0889,7.0889,7.1188,7.1787,7.2834,7.3223,7.3821,7.4873,7.4903,7.4903,7.4903,7.4903,7.4903,7.4903,7.4903,7.4903,7.4903,7.4903,7.4903,7.4903,7.4903,7.4903,7.4903,7.4903,7.4903,7.4903,7.4903,7.4903,7.4903,7.4903,7.4903,7.4963,7.5258,7.5377,7.5377,7.5377,7.5377,7.5318,7.5023,7.4903,7.4903,7.4903,7.4903,7.4903,7.4903,7.5377,7.6036,7.6629,7.7048,7.7412,7.7741,7.6844,7.5796,7.5437,7.5142,7.4903,7.4903,7.4903,7.4903,7.4903,7.1532,6.751,6.3448,6.2781,6.2781,6.2781,6.2781,6.2781,6.2781,6.2781,6.2781,6.2781,6.2781,6.2781,6.2781,6.2781,6.2781,6.2781,6.2781,6.2781,6.2781,6.3124,6.3124,6.2781,6.34,6.3525,6.3249,6.3249,6.3249,5.204,5.8145,6.5147,7.0471,7.1896,7.1928,7.1799,7.3593,7.5463,7.6026,7.4521,7.3175,7.3624,7.4373,7.4283,7.2237,7.3917,7.4644,7.2229,7.1876,7.1768,7.1369,7.1083,7.0986,7.1279,7.1683,7.2176,7.2864,7.3522,7.418,7.4873,7.4903,7.4903,7.4903,7.4903,7.4903,7.4903,7.4903,7.4903,7.4903,7.4903,7.4903,7.4903,7.4903,7.4903,7.4903,7.4903,7.4903,7.4903,7.4903,7.4903,7.4903,7.4903,7.4903,7.4993,7.5527,7.5796,7.5916,7.5916,7.5916,7.5826,7.5228,7.4993,7.4903,7.4903,7.4903,7.4903,7.4903,7.5083,7.5467,7.6509,7.6958,7.7287,7.7861,7.7083,7.6185,7.5946,7.5467,7.5053,7.4933,7.4903,7.48,7.4461,7.1314,6.7625,6.3882,6.3026,6.2781,6.2781,6.2781,6.2781,6.2781,6.2781,6.2781,6.2781,6.2781,6.2781,6.2781,6.2781,6.2781,6.2781,6.2781,6.2781,6.2781,6.2882,6.2882,6.2781,6.34,6.3701,6.3701,6.3701,6.3751,4.9244,5.7367,6.598,7.1836,7.3802,7.409,7.3466,7.5505,7.7594,7.7696,7.6918,7.6014,7.5394,7.6373,7.608,7.2493,7.4283,7.5166,7.2289,7.1876,7.2193,7.2891,7.1728,7.1409,7.2737,7.2272,7.2176,7.2864,7.3522,7.418,7.4873,7.4903,7.4903,7.4903,7.4903,7.4903,7.4903,7.4903,7.4903,7.4903,7.4903,7.4903,7.4903,7.4903,7.4903,7.4903,7.4903,7.4903,7.4903,7.4903,7.4903,7.4903,7.4903,7.4903,7.4933,7.5023,7.5377,7.5916,7.5916,7.5916,7.5886,7.5796,7.5377,7.4903,7.4903,7.4903,7.4903,7.4903,7.5677,7.6569,7.6749,7.7682,7.8549,7.8639,7.81,7.7263,7.6155,7.5826,7.5587,7.5023,7.4903,7.4357,7.2599,7.0411,6.8094,6.5726,6.3922,6.2781,6.2781,6.2781,6.2781,6.2781,6.2781,6.2781,6.2781,6.2781,6.2781,6.2781,6.2781,6.2781,6.2781,6.2781,6.2781,6.2781,6.3324,6.3324,6.2781,6.34,6.3701,6.3701,6.3701,6.3927,5.1463,5.9422,6.6865,7.0738,7.3466,7.5296,7.5421,7.6099,7.6961,7.7831,7.7032,7.635,7.6804,7.8088,7.8212,7.5587,7.6901,7.7215,7.4265,7.3073,7.2681,7.3231,7.1887,7.1505,7.3107,7.2431,7.2176,7.2864,7.3522,7.418,7.4873,7.4903,7.4903,7.4903,7.4903,7.4903,7.4903,7.4903,7.4903,7.4903,7.4903,7.4903,7.4903,7.4903,7.4903,7.4903,7.4903,7.4903,7.4903,7.4903,7.4903,7.4903,7.4903,7.4903,7.4963,7.5318,7.5856,7.633,7.6036,7.6125,7.6305,7.5557,7.5138,7.4903,7.4903,7.4903,7.4993,7.5347,7.5856,7.6485,7.7167,7.7801,7.834,7.8699,7.8579,7.81,7.7173,7.6694,7.6245,7.5587,7.5172,7.4258,7.2243,7.0227,6.8208,6.6117,6.4083,6.2781,6.2781,6.2781,6.2781,6.2781,6.2781,6.2781,6.2781,6.2781,6.2781,6.2781,6.2781,6.2781,6.2781,6.2781,6.2781,6.2781,6.3073,6.3073,6.2781,6.34,6.3701,6.3701,6.3701,6.3827,5.3534,5.9769,6.5216,6.8973,7.2124,7.4695,7.6251,7.6115,7.6082,7.7435,7.681,7.6435,7.7921,7.9077,7.9346,7.7925,7.9044,7.9072,7.6025,7.4761,7.4113,7.4154,7.2578,7.211,7.3749,7.2688,7.2116,7.2624,7.3432,7.4121,7.4599,7.4813,7.4903,7.4903,7.4903,7.4903,7.4903,7.4903,7.4903,7.4903,7.4903,7.4903,7.4903,7.4903,7.4903,7.4903,7.4903,7.4903,7.4903,7.4903,7.4903,7.4903,7.4903,7.4903,7.4963,7.5467,7.6155,7.6719,7.6305,7.6544,7.6868,7.5736,7.5377,7.5347,7.5198,7.5258,7.5497,7.6006,7.6245,7.6604,7.7562,7.7921,7.819,7.8669,7.8789,7.8609,7.7951,7.7173,7.642,7.6006,7.5347,7.4426,7.2911,7.0557,6.8359,6.6829,6.4418,6.2781,6.2781,6.2781,6.2781,6.2781,6.2781,6.2781,6.2781,6.2781,6.2781,6.2781,6.2781,6.2781,6.2781,6.2781,6.2781,6.2781,6.2781,6.2781,6.2781,6.3249,6.355,6.3701,6.3701,6.3751,5.3213,5.5952,5.9227,6.7163,6.9823,7.1413,7.4965,7.5743,7.5946,7.6792,7.6913,7.7303,7.8765,7.9048,7.8756,7.7861,7.9563,7.9902,7.6681,7.6926,7.7196,7.6521,7.4456,7.3717,7.5319,7.332,7.1906,7.1936,7.3163,7.3911,7.3941,7.4574,7.4903,7.4903,7.4903,7.4903,7.4903,7.4903,7.4903,7.4903,7.4903,7.4903,7.4903,7.4903,7.4903,7.4903,7.4903,7.4903,7.4903,7.4903,7.4903,7.4903,7.4903,7.4903,7.4903,7.4963,7.5736,7.6779,7.6749,7.7167,7.7652,7.6928,7.6689,7.6569,7.6036,7.6275,7.6689,7.6719,7.7233,7.7741,7.7801,7.828,7.8759,7.8789,7.8789,7.8609,7.7951,7.6844,7.5946,7.5916,7.5347,7.4869,7.4766,7.1495,6.885,6.8737,6.5345,6.2781,6.2781,6.2781,6.2781,6.2781,6.2781,6.2781,6.2781,6.2781,6.2781,6.2781,6.2781,6.2781,6.2781,6.2781,6.2781,6.2781,6.2781,6.2781,6.2781,6.2832,6.3149,6.3701,6.3701,6.3952,4.951,5.3129,5.7119,6.1516,6.4986,6.7916,7.0161,7.1819,7.324,7.4458,7.5879,7.7198,7.8213,7.9154,7.9812,7.9974,8.0239,8.0025,7.8898,7.8147,7.7818,7.8111,7.5675,7.4399,7.5467,7.2983,7.1427,7.1879,7.2325,7.2984,7.3851,7.4121,7.4484,7.4903,7.4903,7.5078,7.5527,7.5527,7.5527,7.5527,7.5527,7.5527,7.5527,7.5527,7.5766,7.6125,7.6125,7.5647,7.4903,7.4903,7.4903,7.4903,7.4903,7.4903,7.4963,7.5377,7.6096,7.6779,7.6779,7.7227,7.7711,7.7018,7.6779,7.6749,7.6539,7.6629,7.6868,7.7317,7.7622,7.7921,7.834,7.8609,7.8789,7.8789,7.8789,7.8729,7.8489,7.7412,7.645,7.645,7.5617,7.4903,7.4903,7.2628,7.0374,6.9075,6.6507,6.4258,6.2985,6.2781,6.2781,6.2781,6.2781,6.2781,6.2781,6.2781,6.2781,6.2781,6.2781,6.2781,6.2781,6.2781,6.2781,6.2781,6.2781,6.2781,6.2781,6.2781,6.2882,6.3149,6.3149,6.3249,4.7177,5.0592,5.4515,5.7543,6.1061,6.441,6.6643,6.9316,7.1582,7.2563,7.4762,7.6724,7.7468,7.8416,7.9498,8.0716,8.0654,8.0151,7.9401,7.9064,7.8835,7.8574,7.6528,7.5349,7.5908,7.3106,7.1338,7.1547,7.1757,7.2265,7.3163,7.3642,7.421,7.4903,7.5108,7.5318,7.5557,7.5557,7.5557,7.5557,7.5557,7.5557,7.5557,7.5557,7.5916,7.6479,7.6479,7.6036,7.5228,7.5228,7.5113,7.4933,7.5172,7.5228,7.5288,7.5976,7.6604,7.7137,7.7137,7.7592,7.8041,7.7382,7.7287,7.7442,7.7197,7.7287,7.7562,7.8011,7.813,7.825,7.8669,7.8789,7.8789,7.8789,7.8789,7.8789,7.8789,7.7921,7.7048,7.6838,7.5946,7.5138,7.4963,7.3222,7.1459,7.0116,6.817,6.6117,6.4083,6.3801,6.3544,6.2863,6.2781,6.2781,6.2781,6.2781,6.2781,6.2781,6.2781,6.2781,6.2781,6.2781,6.2781,6.2781,6.2781,6.2781,6.2781,6.2781,6.2781,6.2781,6.2781,6.2781,0.0,0.0,0.0,5.5547,5.8287,6.0892,6.4701,6.8402,7.1052,7.1289,7.3612,7.5845,7.6724,7.6893,7.7604,7.9735,8.0716,8.0421,7.809,7.9814,8.0408,7.8037,7.6987,7.6513,7.6574,7.3721,7.1577,7.0949,7.1487,7.1909,7.1876,7.3163,7.418,7.4873,7.5527,7.5587,7.4963,7.4963,7.4963,7.4933,7.4933,7.4933,7.4933,7.4933,7.5288,7.5976,7.5976,7.5976,7.5946,7.5946,7.5527,7.5023,7.5677,7.5946,7.6006,7.6599,7.7227,7.7801,7.7831,7.825,7.8669,7.8041,7.828,7.8669,7.8041,7.828,7.8789,7.8789,7.8789,7.8789,7.8789,7.8789,7.8789,7.8789,7.8789,7.8789,7.8789,7.828,7.7652,7.6928,7.63,7.5677,7.5023,7.3293,7.1963,7.1891,7.0227,6.8208,6.6078,6.5804,6.5003,6.3026,6.2781,6.2781,6.2781,6.2781,6.2781,6.2781,6.2781,6.2781,6.2781,6.2781,6.2781,6.2781,6.2781,6.2781,6.2781,6.2781,6.2781,6.2781,6.2781,6.2781,4.6718,0.0,0.0,0.0,0.0,0.0,6.1434,6.3328,6.5595,7.1007,7.2326,7.3443,7.6352,7.6893,7.7096,7.7705,7.8889,7.966,7.952,8.0531,8.0644,7.884,7.7033,7.5489,7.4332,7.1988,7.062,7.0889,7.1068,7.1398,7.1846,7.3163,7.3971,7.4151,7.5288,7.5826,7.5617,7.6066,7.6066,7.5617,7.5617,7.5617,7.5617,7.5617,7.6245,7.7293,7.7293,7.7293,7.7263,7.6749,7.642,7.6305,7.645,7.6539,7.6629,7.7293,7.7652,7.7891,7.834,7.8639,7.8759,7.8579,7.8639,7.8759,7.8579,7.8639,7.8789,7.8789,7.8789,7.8789,7.8789,7.8789,7.8789,7.8789,7.8789,7.8789,7.8789,7.8639,7.819,7.7018,7.63,7.5677,7.5023,7.4461,7.3603,7.2106,7.1423,6.9792,6.6247,6.5804,6.5003,6.3026,6.2781,6.2781,6.2781,6.2781,6.2781,6.2781,6.2781,6.2781,6.2781,6.2781,6.2781,6.2781,6.2781,6.2781,6.2781,6.2781,6.2781,6.2781,6.2781,6.2781,4.7192,4.8105,4.939,5.098,0.0,0.0,5.7746,5.9945,6.2956,6.8842,6.97,7.0478,7.395,7.3544,7.3105,7.4356,7.5303,7.6429,7.81,7.9246,7.959,7.8659,7.6807,7.5356,7.4788,7.2084,7.05,7.0889,7.0679,7.0919,7.1846,7.2894,7.3732,7.43,7.5347,7.6036,7.6275,7.636,7.6275,7.5916,7.5617,7.5467,7.5497,7.5766,7.6455,7.7412,7.7682,7.7981,7.819,7.7801,7.7287,7.6808,7.7108,7.7233,7.7287,7.7981,7.822,7.828,7.8639,7.8789,7.8789,7.8789,7.8789,7.8789,7.8789,7.8789,7.8789,7.8789,7.8789,7.8789,7.8789,7.8789,7.8789,7.8789,7.8789,7.8789,7.8789,7.8789,7.8489,7.7407,7.6933,7.6395,7.5467,7.5318,7.4823,7.3357,7.3123,7.1676,6.7637,6.7099,6.6,6.3082,6.2781,6.2781,6.2781,6.2781,6.2781,6.2781,6.2781,6.2781,6.2781,6.2781,6.2781,6.2781,6.2781,6.2781,6.2781,6.2781,6.2781,6.2781,6.2781,6.2781,4.7752,4.8428,4.9187,4.9914,5.1691,0.0,5.4719,5.7881,6.1704,6.573,6.6352,6.7096,7.0106,6.855,6.7671,7.0342,7.1086,7.226,7.508,7.6659,7.7363,7.707,7.5644,7.5029,7.5876,7.2765,7.0709,7.0799,7.029,7.047,7.164,7.2475,7.3462,7.4663,7.5527,7.6245,7.6689,7.6245,7.5976,7.5886,7.5198,7.4903,7.4933,7.5527,7.6185,7.6838,7.7442,7.81,7.8789,7.8789,7.81,7.7078,7.7682,7.7921,7.7981,7.8579,7.8789,7.8789,7.8789,7.8789,7.8789,7.8789,7.8789,7.8789,7.8789,7.8789,7.8789,7.8789,7.8789,7.8789,7.8789,7.8789,7.8789,7.8789,7.8789,7.8789,7.8789,7.8789,7.8609,7.8041,7.7861,7.7442,7.6215,7.6006,7.5796,7.5198,7.5018,7.3551,6.9523,6.8998,6.7438,6.3346,6.2882,6.2882,6.2882,6.2832,6.2781,6.2781,6.2781,6.2781,6.2781,6.2781,6.2781,6.2781,6.2781,6.2781,6.2781,6.2781,6.2781,6.2781,6.2781,6.2781,0.0,0.0,0.0,0.0,0.0,0.0,5.6411,5.658,5.7645,6.3768,6.3632,6.3294,6.6237,6.6812,6.6994,6.7569,6.97,7.1931,7.3666,7.4215,7.3675,7.1848,7.0839,7.0592,7.1225,7.0135,6.9602,7.0143,7.0083,7.0113,7.0382,7.1966,7.3043,7.3283,7.5467,7.645,7.6096,7.642,7.636,7.5886,7.5198,7.4903,7.4903,7.5053,7.5707,7.6808,7.6928,7.7682,7.8789,7.8789,7.8639,7.843,7.8549,7.8579,7.8609,7.8729,7.8789,7.8789,7.8789,7.8789,7.8789,7.8789,7.8789,7.8789,7.8789,7.8789,7.8789,7.8789,7.8789,7.8789,7.8789,7.8789,7.8789,7.8789,7.8789,7.8789,7.8789,7.8789,7.8759,7.8609,7.816,7.7562,7.6749,7.6599,7.6569,7.645,7.6036,7.4256,7.0145,6.9578,6.7993,6.3953,6.3525,6.3525,6.3525,6.3099,6.2781,6.2781,6.2781,6.2781,6.2781,6.2781,6.2781,6.2781,6.2781,6.2781,6.2781,6.2781,6.2781,6.2781,6.2781,6.2781,0.0,0.0,0.0,5.0101,0.0,0.0,0.0,5.4837,5.6089,6.1264,6.0317,5.9404,6.2347,6.2009,6.1752,6.3226,6.4749,6.6237,6.7747,7.1808,7.4186,7.3041,7.1619,7.0858,7.1181,6.9548,6.8764,6.9453,7.0081,7.059,7.0951,7.1547,7.2535,7.3851,7.4839,7.5826,7.6844,7.6808,7.6629,7.6365,7.5707,7.5198,7.4933,7.5228,7.5916,7.6808,7.7137,7.7891,7.8789,7.8789,7.8789,7.8789,7.8789,7.8789,7.8789,7.8789,7.8789,7.8789,7.8789,7.8789,7.8789,7.8789,7.8789,7.8789,7.8789,7.8789,7.8789,7.8789,7.8789,7.8789,7.8789,7.8789,7.8789,7.8789,7.8789,7.8789,7.8789,7.8789,7.8789,7.8789,7.8519,7.81,7.7442,7.7287,7.7167,7.6838,7.6539,7.4867,7.0747,7.0213,6.8614,6.4551,6.3852,6.3701,6.3701,6.3174,6.2907,6.3249,6.2998,6.2907,6.3249,6.2932,6.2781,6.2781,6.2781,6.2781,6.2781,6.2781,6.2781,6.2781,6.2781,6.2781,0.0,0.0,0.0,0.0,0.0,5.23,0.0,0.0,0.0,5.8017,5.6833,5.6003,5.8389,5.6984,5.6105,5.8084,5.9336,6.0351,6.0994,6.8301,7.3384,7.2959,7.1352,7.053,7.1274,7.0069,6.9211,6.9037,7.0613,7.1578,7.152,7.1368,7.2265,7.442,7.436,7.5318,7.7412,7.6904,7.6689,7.6779,7.6066,7.5497,7.5078,7.5647,7.6245,7.6838,7.7532,7.819,7.8789,7.8789,7.8789,7.8789,7.8789,7.8789,7.8789,7.8789,7.8789,7.8789,7.8789,7.8789,7.8789,7.8789,7.8789,7.8789,7.8789,7.8789,7.8789,7.8789,7.8789,7.8789,7.8789,7.8789,7.8789,7.8789,7.8789,7.8789,7.8789,7.8789,7.8789,7.8789,7.8789,7.8609,7.81,7.7981,7.7831,7.7293,7.7078,7.5658,7.195,7.1146,6.9432,6.5681,6.452,6.4002,6.4002,6.3475,6.335,6.3802,6.34,6.335,6.3827,6.34,6.3007,6.2781,6.2907,6.2907,6.2781,6.2781,6.2781,6.2781,6.2781,6.2781,0.0,0.0,0.0,0.0,5.1691,0.0,5.23,0.0,5.3551,5.3247,0.0,5.3839,5.4194,0.0,0.0,5.2486,5.6664,5.9268,5.6781,6.1907,6.5144,6.3177,6.2704,6.3858,6.7124,7.1326,7.2488,6.9224,7.2178,7.2948,7.0327,7.1787,7.2834,7.3133,7.4779,7.5826,7.6125,7.6036,7.6275,7.6779,7.5587,7.5258,7.5796,7.5886,7.6245,7.6838,7.7532,7.819,7.8789,7.8789,7.8789,7.8789,7.8789,7.8789,7.8789,7.8789,7.8789,7.8789,7.8789,7.8789,7.8789,7.8789,7.8789,7.8789,7.8789,7.8789,7.8789,7.8789,7.8789,7.8789,7.8789,7.8789,7.8789,7.8789,7.8789,7.8789,7.8789,7.8789,7.8789,7.8789,7.8789,7.8759,7.8699,7.8669,7.8639,7.8579,7.8071,7.6871,7.46,7.2616,7.0582,6.8296,6.6301,6.5107,6.5107,6.4605,6.4346,6.4421,6.4371,6.4346,6.4421,6.4346,6.3827,6.2807,6.3324,6.335,6.2781,6.2781,6.2781,6.2781,6.2781,6.2781,0.0,0.0,0.0,0.0,0.0,0.0,5.2909,0.0,5.3281,0.0,0.0,0.0,0.0,0.0,0.0,0.0,5.3653,5.5141,5.3906,5.6292,5.9264,6.2222,6.2582,6.3719,6.6575,6.7422,6.7803,6.7956,6.9306,6.9758,6.8887,7.0679,7.2265,7.3432,7.3941,7.4719,7.5886,7.5916,7.6036,7.6305,7.6096,7.5976,7.5916,7.6275,7.6749,7.7412,7.7682,7.819,7.8789,7.8789,7.8789,7.8789,7.8789,7.8789,7.8789,7.8789,7.8789,7.8789,7.8789,7.8789,7.8789,7.8789,7.8789,7.8789,7.8789,7.8789,7.8789,7.8789,7.8789,7.8789,7.8789,7.8789,7.8789,7.8789,7.8789,7.8789,7.8789,7.8789,7.8789,7.8789,7.8789,7.8789,7.8789,7.8789,7.8789,7.8789,7.8549,7.7625,7.5525,7.4478,7.264,6.93,6.7872,6.6637,6.541,6.4823,6.4647,6.4931,6.4931,6.4806,6.4521,6.4496,6.4295,6.3776,6.4028,6.4028,6.3776,6.3776,6.3776,6.3751,6.3124,6.2781,6.0554,6.0486,5.9945,5.937,5.8641,5.7457,5.5006,0.0,0.0,0.0,5.1995,0.0,0.0,0.0,0.0,0.0,0.0,5.1352,5.0338,5.1386,5.4465,6.0385,6.194,6.3153,6.4609,6.4618,6.4925,6.5913,6.6844,6.7455,6.7719,6.9213,7.1188,7.3552,7.3343,7.3971,7.5617,7.5617,7.5707,7.5916,7.6185,7.6155,7.5916,7.6365,7.6844,7.7293,7.7472,7.7801,7.825,7.825,7.825,7.825,7.825,7.837,7.8549,7.8729,7.8789,7.8789,7.8789,7.8789,7.8789,7.8789,7.8789,7.8789,7.8789,7.8789,7.8789,7.8789,7.8789,7.8789,7.8789,7.8789,7.8789,7.8789,7.8789,7.8789,7.8789,7.8789,7.8789,7.8789,7.8789,7.8789,7.8789,7.8789,7.8789,7.8789,7.8789,7.8222,7.667,7.5968,7.4428,7.1336,7.0166,6.8979,6.7427,6.6359,6.5706,6.5526,6.5509,6.5258,6.4748,6.4873,6.4823,6.4521,6.4647,6.4647,6.4496,6.4496,6.4496,6.4496,6.3651,6.3199,6.548,6.2854,6.096,6.4512,6.0588,5.6511,5.9235,5.7103,5.3923,0.0,0.0,0.0,0.0,0.0,0.0,0.0,0.0,0.0,0.0,4.7327,5.0574,5.4431,5.8048,5.9974,5.9416,6.5144,6.7235,6.3251,6.6228,6.79,6.7092,6.7718,6.9604,7.2834,7.3552,7.421,7.4933,7.4933,7.5258,7.5886,7.5258,7.5288,7.5916,7.5916,7.5946,7.6006,7.6569,7.6838,7.6838,7.6838,7.6838,7.6838,7.6838,7.7257,7.7921,7.8549,7.8789,7.8789,7.8789,7.8789,7.8789,7.8789,7.8789,7.8789,7.8789,7.8789,7.8789,7.8789,7.8789,7.8789,7.8789,7.8789,7.8789,7.8789,7.8789,7.8789,7.8789,7.8789,7.8789,7.8789,7.8789,7.8789,7.8789,7.8789,7.8789,7.8789,7.8789,7.8789,7.8717,7.6885,7.5524,7.541,7.3577,7.236,7.228,7.0367,6.8279,6.6215,6.6086,6.5835,6.5283,6.5785,6.5559,6.4521,6.4982,6.5007,6.4496,6.4496,6.4496,6.4496,6.4471,6.4195,6.8288,6.8098,6.759,6.7895,6.5121,6.1941,6.0452,5.7611,5.482,0.0,0.0,0.0,0.0,0.0,0.0,0.0,0.0,0.0,0.0,0.0,4.8901,5.0676,0.0,0.0,0.0,5.9231,5.9903,6.1234,6.2221,6.3156,6.4176,6.6955,6.9487,7.152,7.2654,7.3552,7.421,7.5753,7.6054,7.5262,7.6544,7.672,7.5916,7.63,7.6479,7.6509,7.6689,7.6779,7.6779,7.6779,7.6779,7.6779,7.6779,7.6928,7.7197,7.7891,7.843,7.8789,7.8789,7.8789,7.8789,7.8789,7.8789,7.8789,7.8789,7.8789,7.8789,7.8789,7.8789,7.8789,7.8789,7.8789,7.8789,7.8789,7.8789,7.8789,7.8789,7.8789,7.8789,7.8789,7.8789,7.8789,7.8789,7.8789,7.8789,7.8789,7.8789,7.8789,7.8789,7.8149,7.7173,7.5742,7.4954,7.3421,7.0597,6.8414,6.6874,6.6155,6.6112,6.6036,6.5835,6.6011,6.5936,6.5559,6.5735,6.5735,6.5559,6.5559,6.5559,6.5559,6.5559,6.5082,7.1751,7.1548,7.1075,7.1718,6.8741,6.548,6.4647,6.1772,5.893,5.7712,5.619,0.0,0.0,0.0,0.0,0.0,0.0,0.0,0.0,4.7109,0.0,0.0,0.0,0.0,0.0,0.0,5.5795,5.8033,5.866,6.0108,6.2836,6.5519,6.8677,7.2365,7.2528,7.3521,7.5556,7.5918,7.6288,7.6665,7.7524,7.7409,7.6395,7.6819,7.6654,7.6125,7.6125,7.6125,7.6125,7.6125,7.6125,7.6125,7.6125,7.6275,7.6539,7.7233,7.7861,7.843,7.843,7.8579,7.8789,7.8789,7.8789,7.8789,7.8789,7.8789,7.8789,7.8789,7.8789,7.8789,7.8789,7.8789,7.8789,7.8789,7.8789,7.8789,7.8789,7.8789,7.8789,7.8789,7.8789,7.8789,7.8789,7.8789,7.8789,7.8789,7.8789,7.8789,7.8789,7.8789,7.8258,7.6885,7.6736,7.503,7.0799,6.9177,6.7712,6.6197,6.6112,6.6112,6.6112,6.6112,6.6011,6.5835,6.6011,6.6011,6.581,6.6011,6.6112,6.6112,6.6112,6.5735]}]]